     2              OBSERVATION DATA    GPS                 RINEX VERSION / TYPE
teqc 2002Apr3 20070406 16:16:44UTC                          PGM / RUN BY / DATE
                                                            COMMENT
L2: 1 -> 1; 150 -> 5; 250 -> 9                              COMMENT
L2: 1 -> 1; 150 -> 5; 250 -> 9                              COMMENT
L2: 1 -> 1; 150 -> 5; 250 -> 9                              COMMENT
L2: 1 -> 1; 150 -> 5; 250 -> 9                              COMMENT
L2: 1 -> 1; 150 -> 5; 250 -> 9                              COMMENT
Original Marker Name: MH03                                  COMMENT
Campaign Name: Painted Canyon Array                         COMMENT
4-Character Station Name: MH03                              COMMENT
6-Character Antenna Code: DMRCHT                            COMMENT
Vertical Measurement Point: BCR                             COMMENT
Vertical Offset to Rinex Ref. Point: 0.0348                 COMMENT
Radial Measurement Point: ECF                               COMMENT
Radial Offset to Rinex Ref. Point: 0.1897                   COMMENT
Antenna Height from Field Measurement: 0.9230 m             COMMENT
Additional Antenna Identification Info.:                    COMMENT
Turborogue and Ashtech Choke Ring                           COMMENT
Original XYZ: 0.0000 0.0000 0.0000                          COMMENT
New XYZ position is based on association with SCEC monument COMMENT
E1D0K9W1+0031. Position of that monument is believed to be  COMMENT
valid to within 1 m horizontally; vertical accuracy         COMMENT
should be no worse than 3-times this value.                 COMMENT
                                                            COMMENT
Revised Rinex header created by UCSD GPS archive for        COMMENT
GSAC on 09-Jun-2007 (2007:160) 17:14:34 GMT                 COMMENT
For assistance contact dagnew@ucsd.edu                      COMMENT
or anderson@python.ucsd.edu                                 COMMENT
                                                            COMMENT
MH03                                                        MARKER NAME
-Unknown- SCRIPPS INSTITUTION OF OCEANOGRAPHY               OBSERVER / AGENCY
378 ASHTECH Z-XII3 CC00                                     REC # / TYPE / VERS
002 DORNE-MARGOL. TYPE T                                    ANT # / TYPE
 -2333175.0000 -4778752.0000  3509663.0000                  APPROX POSITION XYZ
        0.8685        0.0000        0.0000                  ANTENNA: DELTA H/E/N
     1     1     0                                          WAVELENGTH FACT L1/2
     7    C1    L1    L2    P1    P2    S1    S2            # / TYPES OF OBSERV
    30                                                      INTERVAL
  2007     2    17    18    35    5.000000                  TIME OF FIRST OBS
  2007     2    17    19    47   35.000000                  TIME OF LAST OBS
                                                            END OF HEADER
 07  2 17 18 35  5.0000000  0  9G21G 2G30G 7G 5G 6G24G10G12
                   -179294.44759   -113810.77943
       213.0004         74.0004
                     22399.50949     15671.01443
       229.0004         74.0004
  20589382.0674    -107822.37049    -75092.85747  20589382.2474   20589387.9614
       241.0004        205.0004
                   -278533.08849   -196404.99443
       227.0004         74.0004
  21219371.7654       7260.17249      5088.26447  21219371.0954   21219377.7244
       240.0004        203.0004
  21710830.3244    -253583.96649   -181840.35747  21710829.6254   21710836.1794
       236.0004        189.0004
  20598470.4594    -153201.73249   -105708.11947  20598470.0364   20598477.0494
       241.0004        206.0004
  20676854.1424    -111582.44849    -79731.77547  20676853.1724   20676860.0534
       240.0004        203.0004
  21242078.3454       4345.08449      3094.61947  21242078.3354   21242083.7114
       236.0004        204.0004
 07  2 17 18 35 10.0000000  0  9G21G 2G30G 7G 5G 6G24G10G12
                   -202676.51549   -132030.58643
       211.0004         74.0004
                     23975.61049     16931.27043
       227.0004         74.0004
  20587734.6694    -116480.32149    -81839.32447  20587734.7684   20587740.6434
       243.0004        205.0004
                   -301362.30049   -214191.44143
       223.0004         74.0004
  21219478.9434       7824.10249      5527.68047  21219478.5714   21219485.3534
       239.0004        203.0004
  21706810.7094    -274707.95749   -198300.60347  21706810.3384   21706816.4034
       231.0004        190.0004
  20596138.4994    -165456.02149   -115256.91147  20596138.1904   20596145.0314
       240.0004        207.0004
  20674888.7724    -121910.97549    -87779.97847  20674887.8234   20674894.7274
       238.0004        203.0004
  21242146.6094       4702.21949      3372.89647  21242146.2084   21242151.6894
       238.0004        204.0004
 07  2 17 18 35 15.0000000  0  9G21G 2G30G 7G 5G 6G24G10G12
                   -226073.38649   -150261.90243
       214.0004         74.0004
                     25535.62249     18179.47943
       228.0004         74.0004
  20586086.5654    -125140.64349    -88587.62647  20586086.8694   20586092.5054
       242.0004        206.0004
                   -324208.95949   -231991.50743
       227.0004         74.0004
  21219585.1084       8380.99149      5961.61247  21219584.4574   21219590.7904
       240.0004        203.0004
  21702787.6824    -295847.49549   -214772.96447  21702787.4234   21702793.8364
       234.0004        190.0004
  20593804.8344    -177720.12149   -124813.35447  20593804.4264   20593811.2524
       242.0004        208.0004
  20672923.2604    -132240.80549    -95829.20147  20672922.3244   20672928.8674
       240.0004        203.0004
  21242213.0244       5052.57349      3645.89347  21242213.0924   21242218.2444
       239.0004        204.0004
 07  2 17 18 35 20.0000000  0  9G21G 2G30G 7G 5G 6G24G10G12
                   -249483.19349   -168503.29543
       213.0004         74.0004
                     27081.35149     19417.01843
       224.0004         74.0004
  20584438.4724    -133801.52849    -95336.36447  20584438.7004   20584444.4334
       242.0004        207.0004
                   -347071.29349   -249803.93543
       223.0004         74.0004
  21219690.0784       8932.62349      6391.45147  21219689.3254   21219696.1044
       238.0004        203.0004
  21698762.4154    -317000.74449   -231256.01947  21698761.8404   21698768.8994
       231.0004        191.0004
  20591469.4474    -189992.17249   -134376.00247  20591469.2524   20591476.2354
       243.0004        208.0004
  20670957.6434    -142570.12649   -103878.02147  20670956.7644   20670963.2504
       240.0004        204.0004
  21242278.7834       5397.90349      3914.96847  21242278.8664   21242284.0744
       238.0004        204.0004
 07  2 17 18 35 25.0000000  0  9G21G 2G30G 7G 5G 6G24G10G12
                   -272906.38949   -186755.11543
       214.0004         74.0004
                     28612.53149     20643.43243
       223.0004         74.0004
  20582790.3854    -142463.34349   -102085.83547  20582790.5014   20582796.1654
       242.0004        208.0004
                   -369949.57149   -267628.95643
       224.0004         74.0004
  21219793.9704       9478.69849      6816.93947  21219793.4134   21219799.8254
       239.0004        203.0004
  21694734.1074    -338168.11149   -247750.06947  21694733.8284   21694740.5784
       232.0004        191.0004
  20589132.6804    -202272.54149   -143945.11347  20589132.2504   20589139.2024
       243.0004        209.0004
  20668992.5644    -152899.20749   -111926.65247  20668991.2054   20668997.7024
       240.0004        204.0004
  21242343.3974       5737.86349      4179.86047  21242343.5624   21242348.6884
       240.0004        205.0004
 07  2 17 18 35 30.0000000  0  9G21G 2G30G 7G 5G 6G24G10G12
                   -296342.91749   -205017.32843
       212.0004         74.0004
                     30129.12949     21859.14343
       225.0004         74.0004
  20581141.8784    -151126.04849   -108835.99347  20581141.8824   20581147.5204
       242.0004        208.0004
                   -392843.79249   -285466.57143
       226.0004         74.0004
  21219896.7864      10019.18749      7238.10747  21219896.0024   21219902.7814
       240.0004        203.0004
  21690703.6334    -359349.42149   -264254.97947  21690703.4784   21690709.8614
       231.0004        192.0004
  20586794.0384    -214561.16349   -153520.65947  20586794.0494   20586800.6934
       240.0004        210.0004
  20667026.4074    -163228.01949   -119975.07947  20667025.7064   20667032.3644
       240.0004        204.0004
  21242407.2014       6072.49749      4440.61847  21242407.2074   21242412.4804
       237.0004        206.0004
 07  2 17 18 35 35.0000000  0  9G21G 2G30G 7G 5G 6G24G10G12
                   -319791.02049   -223288.55844                  23978846.2064
       212.0004        112.0004
                     31632.845 9     21859.143 1
       223.000
  20579493.5414    -159787.87749   -115585.47347  20579493.8934   20579499.2114
       243.0004        209.0004
                   -415752.19449   -303315.46543
       225.0004         74.0004
  21219999.0144      10555.88749      7656.29847  21219998.1114   21220005.0284
       240.0004        203.0004
  21686670.7894    -380543.08549   -280769.51147  21686670.4304   21686677.2024
       232.0004        192.0004
  20584454.6314    -226856.32849   -163101.30947  20584454.2594   20584460.9114
       242.0004        210.0004
  20665061.0884    -173554.89249   -128021.98947  20665060.4164   20665067.2304
       236.0004        204.0004
  21242470.3004       6403.48349      4698.53247  21242470.1644   21242475.4084
       241.0004        206.0004
 07  2 17 18 35 40.0000000  0  9G21G 2G30G 7G 5G 6G24G10G12
                   -343249.07649   -241567.54344                  23974382.2264
       216.0004        127.0004
                     33125.36749       991.12143
       224.0004         74.0004
  20577845.7744    -168447.22149   -122333.01747  20577845.7244   20577851.3864
       243.0004        209.0004
                   -438673.131 9    303315.466 1
       225.000
  21220100.8634      11090.39449      8072.79347  21220100.0404   21220106.5504
       240.0004        203.0004
  21682635.6484    -401747.37249   -297292.33347  21682635.4944   21682641.7704
       232.0004        192.0004
  20582114.0054    -239156.39249   -172685.77247  20582113.3594   20582120.5674
       242.0004        211.0004
  20663096.7324    -183878.14549   -136066.08047  20663096.0264   20663102.7484
       236.0004        203.0004
  21242533.1464       6732.58649      4954.96647  21242532.7914   21242538.0394
       241.0004        207.0004
 07  2 17 18 35 45.0000000  0  9G21G 2G30G 7G 5G 6G24G10G12
                   -366719.03249   -259855.80345                  23969915.8804
       214.0004        135.0004
                     34604.72749      2143.87143
       223.0004         74.0004
  20576198.1534    -177106.03449   -129080.14347  20576198.0944   20576203.7354
       243.0004        209.0004
                   -461608.58349    -11701.11743
       226.0004         74.0004
  21220201.8484      11620.72849      8486.03647  21220200.9814   21220207.8644
       240.0004        204.0004
  21678598.2984    -422964.22549   -313824.93647  21678597.8894   21678604.5454
       233.0004        192.0004
  20579772.0194    -251463.33649   -182275.59247  20579771.4414   20579778.4944
       243.0004        211.0004
  20661132.9484    -194199.76649   -144108.90147  20661131.7264   20661138.7904
       236.0004        202.0004
  21242595.1194       7057.72449      5208.31847  21242594.5484   21242599.9124
       241.0004        207.0004
 07  2 17 18 35 50.0000000  0  9G21G 2G30G 7G 5G 6G24G10G12
                   -390201.58249   -278153.88045                  23965446.9314
       215.0004        140.0004
                     36070.21849      3285.81443
       228.0004         74.0004
  20574550.3774    -185765.02549   -135827.39947  20574550.3154   20574555.8454
       241.0004        209.0004
                   -484559.17149    -29584.67745                  22421247.0774
       226.0004        133.0004
  21220301.8754      12146.20749      8895.51847  21220301.1714   21220307.5004
       237.0004        203.0004
  21674558.2744    -444194.29849   -330367.84547  21674558.3064   21674563.9004
       232.0004        192.0004
  20577428.6784    -263777.84349   -191871.30647  20577428.2334   20577435.1024
       243.0004        211.0004
  20659168.6544    -204520.40749   -152150.95547  20659167.7864   20659174.5224
       239.0004        202.0004
  21242656.1294       7378.21249      5458.05047  21242655.5264   21242660.9754
       240.0004        207.0004
 07  2 17 18 35 55.0000000  0  9G21G 2G30G 7G 5G 6G24G10G12
                   -413697.44549   -296462.33645                  23960975.3684
       210.0004        143.0004
                     37521.15949      4416.41943
       230.0004         74.0004
  20572902.4524    -194424.88149   -142575.33247  20572902.3264   20572908.1134
       240.0004        209.0004
                   -507525.66349    -47480.61545                  22416875.9944
       223.0004        149.0004
  21220400.7914      12666.02949      9300.56247  21220399.7434   21220406.5504
       236.0004        204.0004
  21670515.6564    -465438.34449   -346921.63547  21670515.5444   21670522.1664
       231.0004        192.0004
  20575083.7794    -276100.63049   -201473.49147  20575083.3464   20575090.3014
       244.0004        211.0004
  20657204.6584    -214840.79749   -160192.82847  20657203.9654   20657210.8184
       240.0004        204.0004
  21242716.0634       7693.27649      5703.55347  21242715.4544   21242720.9024
       233.0004        206.0004
 07  2 17 18 36  0.0000000  0  9G21G 2G30G 7G 5G 6G24G10G12
  23956495.7794    -437204.86549   -314779.80245  23956495.5734   23956502.2824
       213.0004        145.0004
                     38959.21849      5537.29644                  22304688.6624
       226.0004        123.0004
  20571254.6574    -203083.96949   -149322.69547  20571254.7574   20571260.4214
       242.0004        209.0004
                   -530506.34949    -65387.64545                  22412502.2144
       225.0004        158.0004
  21220498.9764      13182.03449      9702.63747  21220498.1354   21220504.8244
       242.0004        204.0004
  21666470.7204    -486694.66349   -363484.99347  21666470.5954   21666477.1494
       232.0004        191.0004
  20572737.5814    -288429.98449   -211080.76547  20572737.2004   20572744.1074
       244.0004        211.0004
  20655241.0334    -225159.29549   -168233.19947  20655240.3554   20655247.3994
       240.0004        203.0004
  21242775.2944       8004.67049      5946.18147  21242775.0234   21242780.0664
       238.0004        206.0004
 07  2 17 18 36  5.0000000  0  9G21G 2G30G 7G 5G 6G24G10G12
  23951234.2814    -464857.13549   -336327.01345  23951233.2864   23951240.8494
       210.0004        146.0004
                     36251.08849      3427.01245                  22304171.2584
       229.0004        152.0004
  20568820.4984    -215875.44749   -159290.08447  20568820.6824   20568826.2044
       242.0004        210.0004
                   -557634.45249    -86526.44346                  22407340.6624
       225.0004        163.0004
  21219809.8644       9560.83349      6880.92247  21219808.9124   21219816.0944
       236.0004        202.0004
  21661636.8984    -512096.50249   -383278.64747  21661636.6514   21661642.7694
       233.0004        192.0004
  20569603.5914    -304899.24249   -223913.94047  20569603.2604   20569610.1634
       244.0004        211.0004
  20652491.2824    -239609.08349   -179492.79047  20652490.8384   20652497.6324
       240.0004        204.0004
  21242047.2674       4179.15049      2965.27047  21242047.0674   21242052.2124
       234.0004        204.0004
 07  2 17 18 36 10.0000000  0  9G21G 2G30G 7G 5G 6G24G10G12
  23948910.7734    -477064.86749   -345839.51645  23948910.6444   23948918.3494
       211.0004        146.0004
                     48986.15149     13350.44745                  22306594.7964
       228.0004        162.0004
  20569327.6794    -213210.02749   -157213.12847  20569327.6314   20569333.3944
       241.0004        210.0004
                   -569320.59949    -95632.50746                  22405117.7604
       224.0004        167.0004
  21222061.2324      21391.81349     16099.86447  21222060.5634   21222067.3344
       237.0004        201.0004
  21659741.9524    -522054.46649   -391038.08947  21659741.6634   21659748.1474
       233.0004        192.0004
  20569409.5434    -305918.94849   -224708.52347  20569409.0544   20569416.0244
       244.0004        211.0004
  20652683.1684    -238600.80249   -178707.11947  20652682.6754   20652689.4284
       241.0004        205.0004
  21244259.7454      15806.01349     12025.15647  21244259.5654   21244264.7744
       234.0004        202.0004
 07  2 17 18 36 15.0000000  0  9G21G 2G30G 7G 5G 6G24G10G12
  23946588.0464    -489268.98949   -355349.21345  23946588.1224   23946596.1554
       212.0004        146.0004
                     61723.50049     23275.64846                  22309018.7984
       228.0004        167.0004
  20569837.9414    -210528.63949   -155123.73947  20569838.0874   20569843.7444
       241.0004        210.0004
  22402887.8874    -581005.75349   -104737.81746  22402886.2754   22402893.2944
       225.0004        170.0004
  21224314.7124      33233.99349     25327.53247  21224313.8934   21224320.6834
       236.0004        200.0004
  21657847.5814    -532009.46849   -398795.23147  21657847.4544   21657853.8834
       232.0004        192.0004
  20569217.1284    -306930.10149   -225496.43347  20569216.6484   20569223.5224
       244.0004        211.0004
  20652878.3144    -237575.41649   -177908.11847  20652877.7504   20652884.6764
       240.0004        206.0004
  21246474.4104      27444.33449     21093.97247  21246474.1924   21246479.3614
       234.0004        201.0004
 07  2 17 18 36 20.0000000  0  9G21G 2G30G 7G 5G 6G24G10G12
  23944266.2724    -501469.23849   -364855.89245  23944266.6194   23944274.2394
       213.0004        146.0004
                     74463.42449     33202.83846                  22311442.7914
       228.0004        171.0004
  20570351.2724    -207830.99449   -153021.67647  20570351.2724   20570357.1044
       243.0004        210.0004
  22400664.4284    -592689.60549   -113842.11746  22400662.9544   22400670.3764
       225.0004        171.0004
  21226570.4094      45087.75049     34564.22747  21226569.4424   21226576.1484
       239.0004        200.0004
  21655953.7974    -541961.25749   -406549.87147  21655953.8154   21655959.7914
       234.0004        192.0004
  20569026.3874    -307932.37249   -226277.41547  20569025.9504   20569032.7424
       242.0004        210.0004
  20653076.7634    -236532.62049   -177095.53147  20653076.3034   20653082.9774
       240.0004        206.0004
  21248691.3434      39094.42549     30171.95747  21248691.0374   21248696.5874
       238.0004        200.0004
 07  2 17 18 36 25.0000000  0  9G21G 2G30G 7G 5G 6G24G10G12
  23941945.4564    -513665.10849   -374359.15845  23941946.0164   23941953.0934
       213.0004        147.0004
  22313863.7804      87206.36349     43132.41246  22313863.9234   22313868.1854
       225.0004        173.0004
  20570867.7764    -205116.55049   -150906.52547  20570867.7254   20570873.7914
       243.0004        210.0004
  22398441.2984    -604371.60049   -122944.96446  22398440.2324   22398447.0514
       224.0004        173.0004
  21228828.3804      56953.55849     43810.30547  21228827.5394   21228834.4334
       240.0004        200.0004
  21654060.7404    -551909.32249   -414301.60347  21654060.7764   21654066.6034
       232.0004        192.0004
  20568837.4514    -308925.28349   -227051.10747  20568837.0804   20568843.6894
       242.0004        210.0004
  20653278.6364    -235471.91149   -176269.00747  20653277.9734   20653284.5804
       239.0004        206.0004
  21250910.5734      50756.73749     39259.47447  21250910.4914   21250915.6044
       238.0004        201.0004
 07  2 17 18 36 30.0000000  0  9G21G 2G30G 7G 5G 6G24G10G12
  23939625.5024    -525856.66749   -383859.05945  23939626.1024   23939632.7254
       214.0004        148.0004
  22316289.2674      99952.32249     53064.31146  22316289.2144   22316293.2114
       227.0004        175.0004
  20571387.4994    -202385.44149   -148778.39047  20571387.3854   20571393.4234
       243.0004        210.0004
  22396218.5384    -616051.89349   -132046.49146  22396217.2114   22396225.6594
       226.0004        174.0004
  21231088.6314      68831.25449     53065.64647  21231087.9444   21231094.5924
       239.0004        201.0004
  21652168.3674    -561853.69749   -422050.46747  21652168.2164   21652174.6384
       232.0004        192.0004
  20568650.2584    -309908.90649   -227817.56247  20568649.9504   20568656.7284
       242.0004        210.0004
  20653483.9284    -234393.36549   -175428.58247  20653483.3914   20653490.1354
       238.0004        206.0004
  21253132.1324      62431.21849     48356.46247  21253132.0134   21253137.2634
       238.0004        202.0004
 07  2 17 18 36 35.0000000  0  9G21G 2G30G 7G 5G 6G24G10G12
  23937306.3514    -538044.20349   -393355.82445  23937307.0274   23937313.5974
       213.0004        148.0004
  22318715.2614     112700.96049     62998.31346  22318715.1654   22318718.7734
       226.0004        175.0004
  20571910.3024    -199637.97049   -146637.50147  20571910.4634   20571916.4414
       243.0004        210.0004
  22393996.0494    -627730.74049   -141146.88646  22393993.9814   22394002.0314
       226.0004        174.0004
  21233351.0614      80720.56649     62330.04647  21233350.1484   21233357.2174
       239.0004        201.0004
  21650276.6624    -571794.70049   -429796.70347  21650276.5554   21650282.8584
       234.0004        192.0004
  20568464.7804    -310883.57849   -228577.04747  20568464.5284   20568471.1164
       242.0004        210.0004
  20653692.5064    -233297.30049   -174574.50147  20653691.8374   20653698.4964
       239.0004        205.0004
  21255355.9454      74117.55949     57462.70047  21255355.7234   21255361.2244
       238.0004        203.0004
 07  2 17 18 36 40.0000000  0  9G21G 2G30G 7G 5G 6G24G10G12
  23934988.0284    -550227.45249   -402849.24645  23934987.7134   23934995.6854
       213.0004        148.0004
  22321141.8074     125452.53249     72934.59746  22321141.1464   22321145.6944
       226.0004        177.0004
  20572436.3014    -196873.71449   -144483.54047  20572436.4794   20572442.1194
       243.0004        210.0004
  22391773.9304    -639407.80349   -150245.89046  22391772.3994   22391780.6894
       226.0004        175.0004
  21235615.7654      92621.81049     71603.73247  21235615.0504   21235621.6694
       240.0004        202.0004
  21648385.6584    -581732.01849   -437540.06347  21648385.4054   21648392.0414
       234.0004        192.0004
  20568281.0634    -311848.96549   -229329.29747  20568280.7264   20568287.5644
       242.0004        210.0004
  20653904.5264    -232183.36849   -173706.50547  20653903.9104   20653910.7924
       238.0004        205.0004
  21257582.0774      85816.10449     66578.44247  21257581.9224   21257587.2284
       237.0004        203.0004
 07  2 17 18 36 45.0000000  0  9G21G 2G30G 7G 5G 6G24G10G12
  23932670.5014    -562406.36549   -412339.29145  23932670.4074   23932677.7134
       212.0004        148.0004
  22323568.9324     138207.03349     82873.16946  22323568.9254   22323572.8634
       227.0004        178.0004
  20572965.5174    -194092.73649   -142316.54747  20572965.6724   20572971.6124
       242.0004        210.0004
  22389552.1214    -651083.13449   -159343.53446  22389551.0264   22389558.1114
       226.0004        175.0004
  21237882.7714     104534.95349     80886.69847  21237882.1704   21237888.8764
       239.0004        202.0004
  21646495.3454    -591665.62849   -445280.53847  21646495.2134   21646501.6294
       233.0004        192.0004
  20568099.1404    -312805.08649   -230074.32247  20568098.8414   20568105.5324
       242.0004        210.0004
  20654119.9184    -231051.61649   -172824.61747  20654119.2514   20654126.1874
       238.0004        205.0004
  21259810.5374      97526.77949     75703.63847  21259810.3404   21259815.8674
       238.0004        203.0004
 07  2 17 18 36 50.0000000  0  9G21G 2G30G 7G 5G 6G24G10G12
  23930353.7824    -574581.03449   -421826.03845  23930354.4204   23930360.6344
       211.0004        147.0004
  22325996.5964     150964.38249     92813.94346  22325996.7644   22326000.6644
       227.0004        179.0004
  20573497.8434    -191295.20249   -140136.64847  20573498.0744   20573503.6524
       242.0004        210.0004
  22387330.6524    -662756.80849   -168439.90346  22387330.2544   22387336.8284
       226.0004        175.0004
  21240151.9924     116459.88449     90178.84747  21240151.2694   21240158.0934
       239.0004        202.0004
  21644605.7214    -601595.66149   -453018.21947  21644605.7114   21644612.4154
       234.0004        192.0004
  20567918.9354    -313752.07549   -230812.22847  20567918.5464   20567925.2824
       242.0004        210.0004
  20654338.6594    -229902.15049   -171928.93047  20654338.1894   20654344.7564
       239.0004        205.0004
  21262041.2534     109249.47049     84838.19747  21262041.0654   21262046.4854
       237.0004        204.0004
 07  2 17 18 36 55.0000000  0  9G21G 2G30G 7G 5G 6G24G10G12
  23928037.9344    -586751.17849   -431309.25545  23928038.1644   23928044.9564
       210.0004        148.0004
  22328424.8334     163724.90049    102757.20546  22328424.3634   22328428.8384
       228.0004        179.0004
  20574033.4054    -188480.77749   -137943.59347  20574033.6534   20574039.5774
       243.0004        210.0004
  22385109.5864    -674428.51249   -177534.72846  22385108.1624   22385115.4724
       226.0004        176.0004
  21242423.5264     128396.89249     99480.40947  21242422.6474   21242429.5374
       239.0004        202.0004
  21642716.8564    -611521.83349   -460752.89447  21642716.7194   21642722.7054
       233.0004        192.0004
  20567740.5054    -314689.62949   -231542.78847  20567740.1404   20567746.9904
       242.0004        210.0004
  20654560.8544    -228734.66549   -171019.20147  20654560.2454   20654567.1104
       239.0004        205.0004
  21264274.3494     120984.49849     93982.37047  21264274.1294   21264279.7354
       238.0004        204.0004
 07  2 17 18 37  0.0000000  0  9G21G 2G30G 7G 5G 6G24G10G12
  23925722.8694    -598917.10049   -440789.18945  23925722.8674   23925729.8344
       212.0004        148.0004
  22330853.6434     176488.22449    112702.65146  22330852.6824   22330857.7614
       227.0004        179.0004
  20574572.1304    -185649.81049   -135737.64547  20574572.3804   20574578.1394
       242.0004        210.0004
  22382888.8224    -686098.54149   -186628.25746  22382887.5994   22382894.9514
       226.0004        176.0004
  21244697.2644     140345.61949    108791.10147  21244696.8124   21244703.4334
       239.0004        202.0004
  21640828.6644    -621444.36549   -468484.73247  21640828.4464   21640834.6964
       234.0004        192.0004
  20567563.8204    -315618.06549   -232266.24347  20567563.5024   20567570.2394
       242.0004        210.0004
  20654786.3894    -227549.48349   -170095.68647  20654785.6294   20654792.6164
       239.0004        205.0004
  21266509.7224     132731.51949    103135.89047  21266509.5624   21266514.9784
       238.0004        204.0004
 07  2 17 18 37  5.0000000  0  9G21G 2G30G 7G 5G 6G24G10G12
  23923408.5864    -611078.84249   -450265.86345  23923408.6794   23923416.0964
       215.0004        148.0004
  22333282.9714     189254.39849    122650.31446  22333282.8604   22333286.9464
       226.0004        180.0004
  20575114.0184    -182802.27749   -133518.78647  20575114.3154   20575119.9984
       242.0004        210.0004
  22380668.3824    -697766.91149   -195720.48446  22380668.0564   22380674.4874
       226.0004        176.0004
  21246973.2924     152306.11049    118110.96047  21246972.6874   21246979.1544
       239.0004        202.0004
  21638941.1584    -631363.30849   -476213.77347  21638940.5934   21638947.1104
       234.0004        192.0004
  20567388.8884    -316537.38049   -232982.58947  20567388.6034   20567395.3484
       242.0004        210.0004
  20655015.3054    -226346.59349   -169158.35947  20655014.5814   20655021.2954
       238.0004        205.0004
  21268747.3944     144490.52249    112298.74747  21268747.3034   21268752.7414
       238.0004        204.0004
 07  2 17 18 37 10.0000000  0  9G21G 2G30G 7G 5G 6G24G10G12
  23921095.1954    -623235.95649   -459738.93645  23921095.0314   23921102.3054
       214.0004        148.0004
  22335712.8854     202023.68049    132600.39646  22335711.9884   22335717.4184
       228.0004        180.0004
  20575659.0934    -179937.83549   -131286.75347  20575659.2184   20575664.9994
       243.0004        210.0004
  22378448.3284    -709433.22549   -204811.13046  22378447.4034   22378454.2074
       228.0004        177.0004
  21249251.5724     164278.67249    127440.22847  21249250.9604   21249257.6634
       240.0004        202.0004
  21637054.4214    -641278.29249   -483939.73247  21637054.2094   21637060.6494
       232.0004        192.0004
  20567215.7614    -317447.24349   -233691.56647  20567215.5034   20567222.2844
       242.0004        210.0004
  20655247.6304    -225125.67449   -168206.99147  20655247.0104   20655253.3594
       238.0004        205.0004
  21270987.4024     156261.83549    121471.19747  21270987.2624   21270992.6014
       238.0004        204.0004
 07  2 17 18 37 15.0000000  0  9G21G 2G30G 7G 5G 6G24G10G12
  23918782.5714    -635388.98549   -469208.81645  23918783.0014   23918789.5924
       214.0004        148.0004
  22338143.3204     214795.62049    142552.55146  22338142.4964   22338147.4764
       226.0004        180.0004
  20576207.3004    -177057.02949   -129041.97247  20576207.5384   20576213.2814
       242.0004        210.0004
  22376228.5774    -721098.04149   -213900.57346  22376227.3804   22376235.2444
       228.0004        177.0004
  21251532.0744     176262.78849    136778.49147  21251531.4514   21251538.1174
       239.0004        202.0004
  21635168.3144    -651189.84749   -491663.01247  21635168.1554   21635174.2494
       233.0004        192.0004
  20567044.3014    -318348.17249   -234393.58747  20567043.9624   20567050.8584
       242.0004        210.0004
  20655483.3334    -223887.21249   -167241.95847  20655482.7074   20655489.3844
       239.0004        205.0004
  21273229.6254     168044.93749    130652.82847  21273229.3204   21273235.0434
       238.0004        204.0004
 07  2 17 18 37 20.0000000  0  9G21G 2G30G 7G 5G 6G24G10G12
  23916470.6944    -647538.09549   -478675.63245  23916471.0324   23916476.9184
       211.0004        147.0004
  22340574.2234     227570.12749    152506.70946  22340574.0224   22340578.2344
       225.0004        180.0004
  20576758.6324    -174159.86249   -126784.43747  20576758.8864   20576764.5914
       242.0004        210.0004
  22374009.1174    -732761.41749   -222988.91446  22374008.4964   22374015.7874
       228.0004        177.0004
  21253814.7764     188258.39749    146125.71747  21253814.3704   21253820.8904
       239.0004        202.0004
  21633282.8374    -661098.01249   -499383.65247  21633283.0004   21633288.9784
       233.0004        192.0004
  20566874.5604    -319240.21049   -235088.67747  20566874.3694   20566881.0844
       242.0004        210.0004
  20655722.3314    -222631.29349   -166263.31347  20655721.4024   20655728.5294
       239.0004        205.0004
  21275474.1084     179839.81349    139843.63647  21275473.8664   21275479.2934
       237.0004        204.0004
 07  2 17 18 37 25.0000000  0  9G21G 2G30G 7G 5G 6G24G10G12
  23914159.6734    -659682.71149   -488138.95145  23914159.3024   23914165.7374
       211.0004        147.0004
  22343005.6834     240347.62849    162463.19046  22343005.0094   22343009.6584
       226.0004        180.0004
  20577313.1474    -171245.87749   -124513.80147  20577313.5024   20577319.1454
       242.0004        210.0004
  22371789.9874    -744422.87349   -232075.75446  22371789.6424   22371796.6664
       227.0004        178.0004
  21256099.7204     200265.93849    155482.23747  21256099.2994   21256105.9074
       240.0004        202.0004
  21631398.1264    -671002.31949   -507101.29047  21631398.1754   21631404.2684
       233.0004        192.0004
  20566706.5894    -320122.90049   -235776.48447  20566706.1564   20566713.1714
       242.0004        210.0004
  20655964.7494    -221357.44949   -165270.71047  20655964.1144   20655970.7734
       239.0004        205.0004
  21277720.9174     191646.85849    149043.92747  21277720.8704   21277726.5434
       238.0004        204.0004
 07  2 17 18 37 30.0000000  0  9G21G 2G30G 7G 5G 6G24G10G12
  23911849.4274    -671823.08549   -497598.96845  23911849.6414   23911856.8704
       212.0004        146.0004
  22345437.6954     253127.96349    172421.90346  22345437.1364   22345441.6974
       227.0004        180.0004
  20577870.8234    -168315.28749   -122230.22547  20577871.0564   20577876.7554
       242.0004        210.0004
  22369571.2254    -756082.59149   -241161.25846  22369570.6384   22369577.4604
       226.0004        178.0004
  21258386.9164     212285.22349    164847.90947  21258386.4154   21258393.1514
       239.0004        202.0004
  21629514.0884    -680902.96949   -514816.08547  21629513.7694   21629519.9504
       232.0004        192.0004
  20566540.3624    -320996.40749   -236457.13947  20566540.0414   20566546.8374
       242.0004        210.0004
  20656210.5414    -220065.85949   -164264.27847  20656209.9434   20656216.8204
       239.0004        205.0004
  21279970.0034     203465.88549    158253.55547  21279969.8534   21279975.4184
       238.0004        204.0004
 07  2 17 18 37 35.0000000  0  9G21G 2G30G 7G 5G 6G24G10G12
  23909539.9934    -683959.22949   -507055.68945  23909539.7104   23909546.5054
       213.0004        146.0004
  22347870.2454     265911.13849    182382.81446  22347869.7724   22347873.9124
       227.0004        180.0004
  20578431.6734    -165368.10749   -119933.72047  20578431.8784   20578437.5264
       242.0004        210.0004
  22367352.8024    -767740.49749   -250245.32746  22367351.9644   22367359.1534
       227.0004        178.0004
  21260676.3424     224316.24349    174222.72947  21260675.6904   21260682.5844
       239.0004        202.0004
  21627630.7674    -690799.90149   -522527.97647  21627630.4134   21627636.9714
       233.0004        192.0004
  20566375.8794    -321860.77249   -237130.66647  20566375.6044   20566382.4894
       242.0004        210.0004
  20656459.7224    -218756.51649   -163244.00647  20656458.8614   20656465.4504
       239.0004        205.0004
  21282221.3514     215296.91349    167472.53647  21282221.2654   21282226.5894
       237.0004        204.0004
 07  2 17 18 37 40.0000000  0  9G21G 2G30G 7G 5G 6G24G10G12
  23907231.3864    -696091.22749   -516509.18545  23907231.7284   23907237.6014
       213.0004        146.0004
  22350303.3064     278697.03949    192345.84246  22350303.2774   22350307.6584
       227.0004        181.0004
  20578995.6304    -162404.43949   -117624.37247  20578995.6684   20579001.5834
       242.0004        210.0004
  22365134.6834    -779396.82149   -259328.16846  22365133.4104   22365140.9404
       228.0004        179.0004
  21262967.9834     236358.85249    183606.57647  21262967.3344   21262974.2414
       239.0004        202.0004
  21625748.1204    -700693.25349   -530237.07947  21625747.8064   21625754.0514
       234.0004        192.0004
  20566213.1204    -322716.14449   -237797.18647  20566212.8474   20566219.5314
       242.0004        210.0004
  20656712.2264    -217429.57249   -162210.02247  20656711.5564   20656718.2804
       239.0004        205.0004
  21284474.9634     227139.76349    176700.72647  21284474.9554   21284480.5124
       238.0004        204.0004
 07  2 17 18 37 45.0000000  0  9G21G 2G30G 7G 5G 6G24G10G12
  23904923.5604    -708218.98349   -525959.37745  23904923.4464   23904929.7124
       213.0004        146.0004
  22352736.9254     291485.75549    202311.07546  22352736.5424   22352741.4324
       228.0004        181.0004
  20579562.7494    -159424.16349   -115302.07647  20579562.9954   20579568.4944
       242.0004        210.0004
  22362916.8714    -791051.32149   -268409.59346  22362916.5354   22362923.3094
       227.0004        179.0004
  21265261.8474     248413.16949    192999.54747  21265261.2264   21265267.9344
       240.0004        202.0004
  21623866.1844    -710582.90549   -537943.29147  21623866.1294   21623872.1844
       233.0004        193.0004
  20566052.0724    -323562.36549   -238456.57847  20566051.7394   20566058.7564
       242.0004        210.0004
  20656968.1224    -216084.87849   -161162.20647  20656967.1594   20656974.1474
       239.0004        205.0004
  21286730.8714     238994.59349    185938.25547  21286730.8934   21286736.0594
       238.0004        204.0004
 07  2 17 18 37 50.0000000  0  9G21G 2G30G 7G 5G 6G24G10G12
  23902616.5694    -720342.37549   -535406.16845  23902615.9134   23902622.7824
       213.0004        146.0004
  22355171.0954     304277.32749    212278.52446  22355170.6474   22355175.1304
       227.0004        180.0004
  20580133.0704    -156427.21549   -112966.79247  20580133.2304   20580139.0294
       242.0004        210.0004
  22360699.4444    -802704.02749   -277489.61946  22360699.1504   22360705.5234
       228.0004        179.0004
  21267557.9394     260479.24149    202401.67747  21267557.3064   21267563.9684
       240.0004        202.0004
  21621984.9424    -720468.78649   -545646.57247  21621984.6324   21621991.3284
       234.0004        193.0004
  20565892.7894    -324399.39949   -239108.80847  20565892.3394   20565899.2634
       242.0004        210.0004
  20657227.4204    -214722.37649   -160100.51647  20657226.7794   20657233.4634
       239.0004        205.0004
  21288989.0514     250861.44149    195185.14447  21288989.1104   21288994.5154
       238.0004        204.0004
 07  2 17 18 37 55.0000000  0  9G21G 2G30G 7G 5G 6G24G10G12
  23900310.4104    -732461.37549   -544849.53445  23900308.9804   23900316.0254
       212.0004        146.0004
  22357605.8314     317071.86749    222248.29646  22357605.2624   22357609.3364
       227.0004        181.0004
  20580706.5284    -153413.55249   -110618.48547  20580706.5834   20580712.4754
       242.0004        210.0004
  22358482.3404    -814354.83649   -286568.16846  22358481.8554   22358489.1274
       227.0004        179.0004
  21269856.2974     272557.13649    211813.02147  21269855.5454   21269862.5304
       240.0004        202.0004
  21620104.4534    -730350.84749   -553346.87947  21620104.1834   21620110.5374
       234.0004        193.0004
  20565735.2854    -325227.17449   -239753.82647  20565734.9484   20565741.9094
       242.0004        210.0004
  20657490.0864    -213342.00049   -159024.89847  20657489.4584   20657496.2734
       239.0004        205.0004
  21291249.5174     262740.34449    204441.43047  21291249.4854   21291254.9484
       239.0004        204.0004
 07  2 17 18 38  0.0000000  0  9G21G 2G30G 7G 5G 6G24G10G12
  23898005.0624    -744576.28549   -554289.70745  23898004.2664   23898010.7484
       214.0004        146.0004
  22360041.0544     329868.98649    232220.06846  22360040.9864   22360045.1444
       227.0004        181.0004
  20581283.1364    -150383.48049   -108257.39147  20581283.2944   20581288.9934
       242.0004        210.0004
  22356265.5614    -826004.08449   -295645.49746  22356265.0404   22356271.7244
       228.0004        179.0004
  21272156.8444     284646.53149    221233.32347  21272156.3334   21272163.1064
       239.0004        202.0004
  21618224.6444    -740229.36849   -561044.42147  21618224.2154   21618230.7574
       234.0004        193.0004
  20565579.4564    -326046.02549   -240391.88847  20565579.1164   20565585.9214
       242.0004        210.0004
  20657756.0974    -211944.07949   -157935.60747  20657755.3444   20657762.1724
       239.0004        205.0004
  21293512.2514     274630.97249    213706.84747  21293512.3184   21293517.8134
       238.0004        204.0004
 07  2 17 18 38  5.0000000  0  9G21G 2G30G 7G 5G 6G24G10G12
  23895700.5884    -756686.63949   -563726.34145  23895700.5414   23895707.1944
       214.0004        146.0004
  22362476.8604     342669.19749    242194.25946  22362476.3504   22362481.0934
       227.0004        181.0004
  20581862.9444    -147336.58749   -105883.18747  20581863.0934   20581868.9494
       242.0004        210.0004
  22354049.1884    -837651.23149   -304721.18546  22354048.9744   22354055.7394
       228.0004        179.0004
  21274459.6384     296747.88249    230662.94747  21274458.9494   21274466.0334
       239.0004        202.0004
  21616345.5964    -750103.86049   -568738.82747  21616345.5354   21616351.9824
       234.0004        193.0004
  20565425.4194    -326855.45349   -241022.60647  20565425.1424   20565431.8944
       242.0004        210.0004
  20658025.5404    -210528.12849   -156832.26447  20658024.6774   20658031.5564
       240.0004        205.0004
  21295777.2984     286533.83649    222981.80547  21295777.4904   21295782.5884
       238.0004        204.0004
 07  2 17 18 38 10.0000000  0  9G21G 2G30G 7G 5G 6G24G10G12
  23893396.8924    -768792.82949   -573159.73045  23893397.5654   23893403.9464
       213.0004        146.0004
  22364913.1914     355472.05949    252170.50546  22364913.3034   22364917.3654
       228.0004        181.0004
  20582445.8914    -144273.25149   -103496.17647  20582446.1294   20582451.8984
       243.0004        210.0004
  22351833.1094    -849296.69149   -313795.56646  22351832.5184   22351839.5524
       228.0004        179.0004
  21276764.6624     308860.76849    240101.55547  21276763.9334   21276770.8834
       239.0004        202.0004
  21614467.2184    -759974.77149   -576430.44247  21614467.0364   21614473.1904
       234.0004        193.0004
  20565273.1024    -327655.90549   -241646.33447  20565272.8484   20565279.6124
       242.0004        210.0004
  20658298.3644    -209094.57549   -155715.21047  20658297.6984   20658304.5104
       239.0004        205.0004
  21298044.5944     298448.49249    232265.94847  21298044.8204   21298050.1514
       238.0004        204.0004
 07  2 17 18 38 15.0000000  0  9G21G 2G30G 7G 5G 6G24G10G12
  23891094.0034    -780894.72549   -582589.76045  23891094.2904   23891101.3674
       213.0004        146.0004
  22367350.0304     368277.65749    262148.88646  22367349.5364   22367354.6394
       228.0004        181.0004
  20583032.0084    -141193.24649   -101096.17147  20583032.2534   20583038.1304
       243.0004        209.0004
  22349617.4274    -860940.27649   -322868.48646  22349617.1124   22349623.4284
       228.0004        179.0004
  21279071.8844     320985.32149    249549.25647  21279071.3754   21279078.2424
       239.0004        202.0004
  21612589.5474    -769841.87549   -584119.09147  21612589.2564   21612595.7664
       234.0004        193.0004
  20565122.5194    -328447.21349   -242262.93547  20565122.2624   20565129.2234
       242.0004        210.0004
  20658574.5294    -207643.26749   -154584.31747  20658573.9274   20658580.7074
       239.0004        205.0004
  21300314.1704     310375.10149    241559.40647  21300314.2794   21300319.5224
       238.0004        204.0004
 07  2 17 18 38 20.0000000  0  9G21G 2G30G 7G 5G 6G24G10G12
  23888791.9394    -792992.26149   -592016.40245  23888790.9544   23888799.2424
       212.0004        146.0004
  22369787.3944     381086.12649    272129.51046  22369787.3584   22369791.7594
       226.0004        181.0004
  20583621.2914    -138096.54849    -98683.15947  20583621.6754   20583627.3204
       243.0004        209.0004
  22347402.0824    -872582.03749   -331939.97746  22347401.2264   22347408.3704
       227.0004        180.0004
  21281381.3404     333121.60749    259006.10347  21281380.8274   21281387.4244
       240.0004        202.0004
  21610712.6414    -779705.16349   -591804.76347  21610712.2854   21610718.9294
       234.0004        193.0004
  20564973.6884    -329229.34549   -242872.38647  20564973.4154   20564980.2204
       243.0004        210.0004
  20658854.0904    -206174.17249   -153439.56547  20658853.2144   20658860.2414
       240.0004        205.0004
  21302586.0034     322313.69349    250862.20347  21302586.1964   21302591.1404
       238.0004        204.0004
 07  2 17 18 38 25.0000000  0  9G21G 2G30G 7G 5G 6G24G10G12
  23886490.7374    -805085.20549   -601439.46645  23886489.5974   23886497.1284
       212.0004        146.0004
  22372225.3594     393897.67849    282112.53346  22372225.1214   22372229.6274
       228.0004        181.0004
  20584213.8044    -134982.95649    -96256.98447  20584214.0954   20584220.0004
       243.0004        210.0004
  22345187.1344    -884221.69749   -341009.83746  22345186.3294   22345192.9684
       228.0004        180.0004
  21283693.0654     345269.76149    268472.19247  21283692.5564   21283699.2944
       239.0004        202.0004
  21608836.4884    -789564.38849   -599487.27147  21608835.7344   21608842.7394
       234.0004        193.0004
  20564826.6254    -330002.09749   -243474.52847  20564826.4274   20564833.2004
       242.0004        210.0004
  20659137.1044    -204687.05049   -152280.76947  20659136.3974   20659143.2164
       239.0004        205.0004
  21304860.1674     334264.46849    260174.49047  21304860.2724   21304865.5674
       238.0004        204.0004
 07  2 17 18 38 30.0000000  0  9G21G 2G30G 7G 5G 6G24G10G12
  23884190.3454    -817173.90649   -610859.22445  23884188.6904   23884196.0274
       212.0004        146.0004
  22374663.8434     406711.93649    292097.66646  22374663.5734   22374668.1084
       227.0004        181.0004
  20584809.4364    -131852.86049    -93817.95047  20584809.7834   20584815.2424
       242.0004        210.0004
  22342972.4914    -895859.58449   -350078.31646  22342972.3024   22342978.8174
       228.0004        180.0004
  21286006.9854     357429.51349    277947.32147  21286006.4144   21286013.1894
       239.0004        202.0004
  21606961.0184    -799419.93449   -607166.91547  21606960.7724   21606967.3634
       234.0004        193.0004
  20564681.2964    -330765.83149   -244069.64147  20564680.9384   20564687.5834
       242.0004        210.0004
  20659423.4614    -203182.26449   -151108.20547  20659422.8494   20659429.4074
       239.0004        205.0004
  21307136.5714     346227.07949    269496.00447  21307136.5964   21307142.1054
       238.0004        204.0004
 07  2 17 18 38 35.0000000  0  9G21G 2G30G 7G 5G 6G24G10G12
  23881890.6754    -829258.62849   -620275.88145  23881889.5524   23881896.4444
       213.0004        146.0004
  22377102.7884     419528.69949    302084.74946  22377102.1454   22377107.8714
       228.0004        181.0004
  20585408.1994    -128706.46949    -91366.21447  20585408.4984   20585414.1394
       243.0004        210.0004
  22340758.1774    -907495.92349   -359145.59446  22340757.5254   22340764.5594
       228.0004        180.0004
  21288323.0684     369600.59649    287431.27547  21288322.5814   21288329.5094
       239.0004        202.0004
  21605086.2454    -809272.00349   -614843.84747  21605086.4404   21605092.5964
       234.0004        193.0004
  20564537.6534    -331520.75549   -244657.89147  20564537.3974   20564544.1944
       242.0004        210.0004
  20659713.1504    -201660.04449   -149922.05447  20659712.4794   20659719.1904
       239.0004        205.0004
  21309415.2004     358201.27749    278826.54447  21309415.1394   21309420.8224
       238.0004        204.0004
 07  2 17 18 38 40.0000000  0  9G21G 2G30G 7G 5G 6G24G10G12
  23879591.9284    -841338.63749   -629688.86545  23879591.4934   23879598.0834
       213.0004        147.0004
  22379542.3244     432348.65949    312074.31646  22379542.2754   22379546.5044
       227.0004        181.0004
  20586010.1584    -125543.05949    -88901.22147  20586010.6314   20586016.1794
       243.0004        210.0004
  22338544.3064    -919130.00049   -368211.10246  22338543.8584   22338550.7934
       228.0004        180.0004
  21290641.4384     381783.67349    296924.58447  21290640.8464   21290647.8184
       239.0004        202.0004
  21603212.2704    -819119.85949   -622517.49447  21603211.8384   21603218.7284
       234.0004        193.0004
  20564395.8224    -332266.16349   -245238.72547  20564395.6854   20564402.3904
       242.0004        210.0004
  20660006.2584    -200119.67049   -148721.76647  20660005.5564   20660012.3114
       239.0004        205.0004
  21311696.1304     370187.74049    288166.64247  21311696.2604   21311701.6294
       237.0004        204.0004
 07  2 17 18 38 45.0000000  0  9G21G 2G30G 7G 5G 6G24G10G12
  23877293.9804    -853414.45249   -639098.58145  23877293.6744   23877300.4004
       212.0004        147.0004
  22381982.4114     445171.30349    322065.98746  22381981.9864   22381986.5214
       226.0004        181.0004
  20586615.2944    -122363.20249    -86423.41247  20586615.5234   20586621.1714
       243.0004        210.0004
  22336330.7394    -930762.31449   -377275.23446  22336330.2204   22336337.5724
       229.0004        180.0004
  21292961.9774     393978.26849    306426.85847  21292961.3304   21292968.1704
       239.0004        202.0004
  21601338.9864    -828964.02149   -630188.27047  21601338.8244   21601345.4594
       234.0004        193.0004
  20564255.6924    -333002.58149   -245812.55647  20564255.4724   20564262.2654
       243.0004        210.0004
  20660302.7534    -198561.67349   -147507.74147  20660302.1704   20660308.4394
       239.0004        205.0004
  21313979.3114     382185.94949    297515.89347  21313979.1794   21313984.5834
       238.0004        204.0004
 07  2 17 18 38 50.0000000  0  9G21G 2G30G 7G 5G 6G24G10G12
  23874996.8094    -865485.97549   -648504.94745  23874996.2444   23875003.1594
       212.0004        147.0004
  22384423.0034     457996.77949    332059.86046  22384423.3464   22384427.6544
       227.0004        182.0004
  20587223.5764    -119166.67849    -83932.61547  20587223.8324   20587229.5074
       242.0004        210.0004
  22334117.5374    -942392.73049   -386337.88846  22334117.0334   22334123.2204
       229.0004        180.0004
  21295284.7564     406184.51649    315938.21847  21295284.2124   21295291.0024
       239.0004        202.0004
  21599466.4374    -838804.35449   -637856.05747  21599466.0514   21599472.6864
       234.0004        193.0004
  20564117.2834    -333729.85449   -246379.26047  20564117.1184   20564123.5804
       242.0004        210.0004
  20660602.6034    -196985.86249   -146279.83347  20660601.8734   20660608.5454
       240.0004        205.0004
  21316264.7504     394196.06349    306874.42047  21316265.0374   21316270.2034
       238.0004        204.0004
 07  2 17 18 38 55.0000000  0  9G21G 2G30G 7G 5G 6G24G10G12
  23872700.5194    -877553.00649   -657907.80945  23872699.8644   23872707.4534
       212.0004        147.0004
  22386864.1904     470825.19549    342056.02846  22386863.6274   22386868.6484
       227.0004        182.0004
  20587835.0564    -115953.40449    -81428.76447  20587835.4384   20587841.0154
       242.0004        210.0004
  22331904.7394    -954021.12649   -395398.96846  22331903.9354   22331911.3374
       227.0004        180.0004
  21297609.7594     418402.50149    325458.72247  21297608.9524   21297616.1914
       239.0004        202.0004
  21597594.6554    -848640.69249   -645520.73447  21597594.3574   21597601.1424
       234.0004        193.0004
  20563980.6594    -334447.89149   -246938.76647  20563980.3234   20563987.0494
       242.0004        210.0004
  20660905.8804    -195392.18549   -145038.00547  20660905.2034   20660911.8724
       239.0004        205.0004
  21318552.4874     406218.16949    316242.29147  21318552.4534   21318557.8754
       238.0004        204.0004
 07  2 17 18 39  0.0000000  0  9G21G 2G30G 7G 5G 6G24G10G12
  23870405.0294    -889615.84149   -667307.41045  23870404.5634   23870411.6714
       213.0004        147.0004
  22389305.8444     483656.22049    352054.21946  22389305.8864   22389310.0224
       227.0004        181.0004
  20588449.6744    -112723.66349    -78912.08247  20588449.9534   20588455.6204
       243.0004        210.0004
  22329692.2464    -965647.76549   -404458.68446  22329691.8864   22329698.4594
       228.0004        180.0004
  21299936.9444     430631.89949    334988.12047  21299936.2714   21299943.4464
       238.0004        202.0004
  21595723.5774    -858473.31549   -653182.51547  21595723.2324   21595729.7624
       234.0004        193.0004
  20563845.7224    -335156.95249   -247491.27947  20563845.5064   20563852.2284
       242.0004        210.0004
  20661212.5204    -193780.89749   -143782.45347  20661211.8314   20661218.5684
       239.0004        205.0004
  21320842.4284     418251.96949    325619.27747  21320842.5384   21320848.0754
       238.0004        204.0004
 07  2 17 18 39  5.0000000  0  9G21G 2G30G 7G 5G 6G24G10G12
  23868110.3894    -901674.25549   -676703.56645  23868109.6524   23868116.9554
       212.0004        147.0004
  22391748.0554     496490.07049    362054.62246  22391747.1864   22391752.4894
       227.0004        181.0004
  20589067.4544    -109477.24549    -76382.40747  20589067.7954   20589073.3624
       243.0004        210.0004
  22327480.1414    -977272.44549   -413516.86446  22327479.4184   22327485.9504
       228.0004        180.0004
  21302266.3334     442872.97449    344526.61947  21302265.6884   21302272.5944
       238.0004        202.0004
  21593853.2344    -868302.02649   -660841.24647  21593853.1874   21593859.4904
       235.0004        193.0004
  20563712.5414    -335856.83649   -248036.64047  20563712.2784   20563718.9684
       242.0004        210.0004
  20661522.5374    -192151.76549   -142512.99847  20661521.9064   20661528.4444
       239.0004        205.0004
  21323134.6724     430297.70449    335005.56047  21323134.6614   21323139.8064
       238.0004        204.0004
 07  2 17 18 39 10.0000000  0  9G21G 2G30G 7G 5G 6G24G10G12
  23865816.5414    -913728.53649   -686096.50845  23865815.9094   23865822.9994
       214.0004        147.0004
  22394190.7404     509326.46949    372057.00246  22394190.7944   22394194.9744
       227.0004        181.0004
  20589688.3544    -106214.45349    -73839.97047  20589688.6054   20589694.2094
       242.0004        210.0004
  22325268.3624    -988895.38949   -422573.70446  22325267.9694   22325274.5534
       227.0004        180.0004
  21304597.8884     455125.42549    354073.97947  21304597.4444   21304604.0644
       239.0004        201.0004
  21591983.5914    -878127.07249   -668497.12547  21591983.2914   21591989.7374
       234.0004        194.0004
  20563581.0604    -336547.85949   -248575.09547  20563580.8194   20563587.4904
       242.0004        210.0004
  20661835.8684    -190505.11049   -141229.88747  20661835.1594   20661841.7504
       239.0004        205.0004
  21325429.1014     442355.06649    344400.90647  21325429.1534   21325434.4564
       238.0004        204.0004
 07  2 17 18 39 15.0000000  0  9G21G 2G30G 7G 5G 6G24G10G12
  23863523.5374    -925778.39049   -695485.98745  23863522.5874   23863529.7964
       214.0004        147.0004
  22396633.9914     522165.75249    382061.63446  22396633.7734   22396638.3364
       227.0004        181.0004
  20590312.4174    -102934.94849    -71284.51047  20590312.7434   20590318.2224
       243.0004        210.0004
  22323056.9634   -1000516.32449   -431628.96446  22323056.6694   22323063.5084
       228.0004        180.0004
  21306931.6834     467389.56449    363630.45047  21306931.2384   21306938.0814
       239.0004        201.0004
  21590114.7094    -887948.17749   -676149.92747  21590114.3854   21590120.6674
       234.0004        194.0004
  20563451.3204    -337229.67949   -249106.37947  20563450.8894   20563457.9284
       242.0004        210.0004
  20662152.6374    -188840.60149   -139932.86347  20662152.0404   20662158.5874
       239.0004        205.0004
  21327725.8344     454424.38049    353805.56547  21327726.0424   21327731.2274
       238.0004        204.0004
 07  2 17 18 39 20.0000000  0  9G21G 2G30G 7G 5G 6G24G10G12
  23861231.4134    -937823.61949   -704871.87345  23861231.2134   23861237.1094
       214.0004        147.0004
  22399077.8154     535008.06949    392068.63246  22399077.6814   22399082.0424
       228.0004        181.0004
  20590939.6934     -99638.58149    -68715.91847  20590939.9694   20590945.5494
       243.0004        210.0004
  22320845.9734   -1012135.04049   -440682.50546  22320845.3404   22320851.9634
       229.0004        180.0004
  21309267.7034     479665.54549    373196.14247  21309267.2214   21309274.1024
       239.0004        201.0004
  21588246.6134    -897765.07449   -683799.45547  21588246.0184   21588252.6894
       234.0004        194.0004
  20563323.3404    -337902.12449   -249630.36347  20563323.0584   20563329.9244
       242.0004        210.0004
  20662472.7944    -187158.05949   -138621.79047  20662472.0984   20662478.9194
       239.0004        205.0004
  21330024.8484     466505.80849    363219.65747  21330024.9114   21330030.2184
       238.0004        204.0004
 07  2 17 18 39 25.0000000  0  9G21G 2G30G 7G 5G 6G24G10G12
  23858940.0894    -949864.71949   -714254.53645  23858939.7504   23858945.6184
       214.0004        147.0004
  22401522.1004     547852.91949    402077.60246  22401522.5194   22401526.4614
       227.0004        181.0004
  20591570.1064     -96325.82849    -66134.54947  20591570.3134   20591575.9164
       243.0004        210.0004
  22318635.3184   -1023752.04149   -449734.71046  22318634.9414   22318641.5624
       227.0004        180.0004
  21311605.9074     491952.83149    382770.65147  21311605.2434   21311612.2244
       239.0004        201.0004
  21586379.2114    -907578.38649   -691446.18647  21586379.0314   21586385.2304
       234.0004        194.0004
  20563197.0704    -338565.72549   -250147.45047  20563196.7854   20563203.4124
       242.0004        210.0004
  20662796.3104    -185457.99949   -137297.06347  20662795.6344   20662802.1804
       239.0004        205.0004
  21332326.0674     478598.83149    372642.79047  21332326.1184   21332331.5394
       238.0004        203.0004
 07  2 17 18 39 30.0000000  0  9G21G 2G30G 7G 5G 6G24G10G12
  23856649.5234    -961901.59749   -723633.90345  23856648.5864   23856655.9954
       214.0004        147.0004
  22403966.9124     560700.40049    412088.62346  22403966.5774   22403971.1684
       228.0004        181.0004
  20592203.6514     -92996.54749    -63540.30647  20592203.8644   20592209.3874
       242.0004        210.0004
  22316425.0384   -1035367.16749   -458785.45446  22316424.0614   22316431.3964
       228.0004        180.0004
  21313946.3004     504251.58849    392354.09347  21313945.6024   21313952.4874
       239.0004        201.0004
  21584512.5354    -917387.85349   -699089.92347  21584512.1634   21584518.6194
       235.0004        194.0004
  20563072.5014    -339220.32749   -250657.52947  20563072.1314   20563079.0044
       242.0004        210.0004
  20663123.1964    -183740.26649   -135958.57047  20663122.4684   20663128.9974
       239.0004        205.0004
  21334629.5524     490703.61249    382075.08147  21334629.6934   21334635.0844
       238.0004        203.0004
 07  2 17 18 39 35.0000000  0  9G21G 2G30G 7G 5G 6G24G10G12
  23854359.8254    -973934.06949   -733009.85145  23854358.7414   23854367.2054
       214.0004        147.0004
  22406412.2644     573550.68649    422101.83346  22406412.2844   22406416.0574
       227.0004        181.0004
  20592840.3694     -89650.57149    -60933.05047  20592840.6234   20592846.2264
       242.0004        210.0004
  22314215.1324   -1046980.26449   -467834.60946  22314214.4114   22314221.7704
       227.0004        180.0004
  21316288.8924     516561.94549    401946.58047  21316288.4214   21316295.2304
       239.0004        201.0004
  21582646.6114    -927193.34749   -706730.56447  21582646.2854   21582653.1944
       234.0004        194.0004
  20562949.6814    -339865.79049   -251160.48347  20562949.3364   20562956.1754
       242.0004        210.0004
  20663453.4764    -182004.69149   -134606.16947  20663452.7794   20663459.4754
       240.0004        205.0004
  21336935.2594     502820.26349    391516.62747  21336935.4574   21336940.8134
       237.0004        203.0004
 07  2 17 18 39 40.0000000  0  9G21G 2G30G 7G 5G 6G24G10G12
  23852070.9364    -985962.28949   -742382.46545  23852070.2154   23852077.2104
       213.0004        147.0004
  22408858.0994     586403.59849    432117.08346  22408858.1704   22408862.6324
       228.0004        181.0004
  20593480.2074     -86288.14749    -58312.98347  20593480.5304   20593485.9504
       243.0004        210.0004
  22312005.5384   -1058591.58649   -476882.38946  22312004.6114   22312011.3074
       227.0004        180.0004
  21318633.6664     528883.70149    411547.94147  21318633.1574   21318640.0994
       239.0004        201.0004
  21580781.4094    -936995.05949   -714368.26047  21580781.3064   21580787.4374
       234.0004        194.0004
  20562828.5444    -340502.31049   -251656.47347  20562828.2204   20562834.9514
       243.0004        210.0004
  20663787.0964    -180251.49149   -133240.04047  20663786.4484   20663792.9454
       240.0004        205.0004
  21339243.2394     514948.71949    400967.36747  21339243.4394   21339248.8274
       238.0004        203.0004
 07  2 17 18 39 45.0000000  0  9G21G 2G30G 7G 5G 6G24G10G12
  23849782.8394    -997986.27149   -751751.79845  23849782.6794   23849788.8064
       214.0004        148.0004
  22411304.4644     599259.09749    442134.34546  22411304.1774   22411308.7844
       228.0004        181.0004
  20594123.1804     -82909.23349    -55680.06047  20594123.5254   20594129.0414
       243.0004        210.0004
  22309796.3384   -1070201.06149   -485928.72446  22309795.8604   22309802.5754
       228.0004        180.0004
  21320980.5694     541216.84749    421158.18347  21320980.2034   21320986.7994
       238.0004        201.0004
  21578916.9234    -946793.00749   -722003.01947  21578916.6274   21578923.1804
       234.0004        194.0004
  20562709.1274    -341129.89449   -252145.49347  20562708.7234   20562715.6394
       242.0004        210.0004
  20664124.0684    -178480.67449   -131860.17647  20664123.2354   20664130.0774
       239.0004        205.0004
  21341553.4184     527088.75649    410427.13747  21341553.3704   21341558.8774
       237.0004        203.0004
 07  2 17 18 39 50.0000000  0  9G21G 2G30G 7G 5G 6G24G10G12
  23847495.6594   -1010005.47649   -761117.40245  23847494.9634   23847501.5994
       214.0004        148.0004
  22413751.3854     612117.68349    452154.02346  22413751.2034   22413755.7484
       228.0004        181.0004
  20594769.4264     -79513.29749    -53033.87847  20594769.7884   20594775.4104
       243.0004        210.0004
  22307587.5574   -1081808.12249   -494973.17946  22307586.4194   22307593.7844
       228.0004        180.0004
  21323329.7624     553561.89249    430777.69647  21323329.1364   21323335.9314
       239.0004        201.0004
  21577053.2644    -956586.59349   -729634.38347  21577053.0874   21577059.3364
       234.0004        194.0004
  20562591.5224    -341747.97249   -252627.11147  20562591.3844   20562598.0614
       242.0004        210.0004
  20664464.5344    -176691.66649   -130466.14447  20664463.7394   20664470.1844
       239.0004        205.0004
  21343865.9144     539240.98449    419896.40047  21343865.9394   21343871.2994
       237.0004        203.0004
 07  2 17 18 39 55.0000000  0  9G21G 2G30G 7G 5G 6G24G10G12
  23845209.2394   -1022020.74749   -770479.94445  23845208.4464   23845214.9344
       213.0004        148.0004
  22416198.7484     624978.62649    462175.53646  22416198.9784   22416203.1344
       227.0004        181.0004
  20595418.7344     -76101.20849    -50375.10547  20595419.0484   20595424.6154
       243.0004        210.0004
  22305379.1204   -1093413.61449   -504016.41346  22305378.5684   22305385.2524
       229.0004        180.0004
  21325681.0894     565918.05349    440405.87147  21325680.7084   21325687.4524
       239.0004        201.0004
  21575190.2724    -966376.62549   -737262.97647  21575189.7574   21575196.2404
       235.0004        194.0004
  20562475.5464    -342357.39749   -253101.98447  20562475.2454   20562482.1534
       242.0004        210.0004
  20664808.2484    -174885.31249   -129058.59147  20664807.5114   20664814.1024
       240.0004        205.0004
  21346180.5714     551404.57249    429374.51947  21346180.9064   21346186.0314
       238.0004        203.0004
 07  2 17 18 40  0.0000000  0  9G21G 2G30G 7G 5G 6G24G10G12
  23842923.6554   -1034031.55449   -779839.01045  23842922.3184   23842929.5094
       213.0004        148.0004
  22418646.6474     637842.36349    472199.22446  22418647.0544   22418651.0834
       228.0004        181.0004
  20596071.2184     -72672.47549    -47703.36947  20596071.4264   20596077.2114
       243.0004        210.0004
  22303171.0274   -1105017.10049   -513058.08746  22303169.4874   22303176.9674
       228.0004        181.0004
  21328034.5754     578285.71549    450043.00447  21328034.3194   21328040.9254
       239.0004        201.0004
  21573328.0514    -976162.66849   -744888.46247  21573328.1064   21573334.1294
       235.0004        194.0004
  20562361.3034    -342957.72249   -253569.76947  20562360.9644   20562367.6224
       242.0004        210.0004
  20665155.3984    -173061.16549   -127637.17747  20665154.4614   20665161.2294
       239.0004        205.0004
  21348497.4644     563579.94549    438861.81947  21348497.5534   21348502.9404
       237.0004        203.0004
 07  2 17 18 40  5.0000000  0  9G21G 2G30G 7G 5G 6G24G10G12
  23840638.9104   -1046038.03649   -789194.69145  23840638.2004   23840644.8984
       213.0004        148.0004
  22421095.0494     650708.81049    482225.02146  22421094.9794   22421099.1054
       228.0004        181.0004
  20596726.8414     -69227.22449    -45018.75847  20596727.1034   20596732.6044
       243.0004        210.0004
  22300963.3344   -1116618.55649   -522098.17746  22300962.3854   22300969.3754
       228.0004        181.0004
  21330390.2584     590664.82049    459689.05547  21330389.7884   21330396.4814
       239.0004        201.0004
  21571466.5514    -985944.81949   -752510.91747  21571466.3054   21571472.7684
       234.0004        194.0004
  20562248.7744    -343549.04349   -254030.53647  20562248.5424   20562255.3444
       242.0004        210.0004
  20665505.8914    -171219.30049   -126201.95447  20665505.3384   20665511.7974
       239.0004        205.0004
  21350816.6004     575767.03949    448358.25547  21350816.7474   21350821.9994
       237.0004        203.0004
 07  2 17 18 40 10.0000000  0  9G21G 2G30G 7G 5G 6G24G10G12
  23838354.9844   -1058040.25549   -798547.05145  23838354.0514   23838361.7334
       214.0004        148.0004
  22423543.9864     663578.06649    492253.01046  22423544.0144   22423548.5144
       227.0004        181.0004
  20597385.6024     -65765.37749    -42321.21647  20597385.9264   20597391.5154
       243.0004        210.0004
  22298756.0504   -1128218.02449   -531136.71746  22298755.6434   22298762.1004
       228.0004        181.0004
  21332748.1374     603055.41749    469344.06147  21332747.8964   21332754.4494
       239.0004        201.0004
  21569605.8494    -995722.96849   -760130.24747  21569605.8234   21569612.0204
       235.0004        194.0004
  20562138.0004    -344131.28849   -254484.22947  20562137.7984   20562144.3704
       242.0004        210.0004
  20665859.7654    -169359.65049   -124752.87447  20665858.8244   20665865.8224
       239.0004        205.0004
  21353137.9784     587966.00049    457863.93447  21353137.9204   21353143.4764
       238.0004        203.0004
 07  2 17 18 40 15.0000000  0  9G21G 2G30G 7G 5G 6G24G10G12
  23836071.8664   -1070038.06349   -807895.97045  23836071.4614   23836078.8194
       212.0004        148.0004
  22425993.4654     676450.07249    502283.14346  22425993.1384   22425997.5044
       227.0004        181.0004
  20598047.5664     -62286.91849    -39610.72747  20598047.7184   20598053.5224
       243.0004        210.0004
  22296549.1244   -1139815.45749   -540173.67246  22296548.6614   22296555.8334
       228.0004        181.0004
  21335108.1944     615457.51949    479008.03447  21335107.8324   21335114.7364
       239.0004        201.0004
  21567745.8834   -1005497.15149   -767746.49147  21567745.8504   21567751.9544
       235.0004        194.0004
  20562028.9224    -344704.44049   -254930.84047  20562028.5844   20562035.5534
       242.0004        210.0004
  20666217.0374    -167482.22449   -123289.94247  20666216.3564   20666222.9364
       239.0004        205.0004
  21355461.5844     600176.70249    467378.76447  21355461.7614   21355467.1154
       237.0004        203.0004
 07  2 17 18 40 20.0000000  0  9G21G 2G30G 7G 5G 6G24G10G12
  23833789.5384   -1082031.81249   -817241.74645  23833788.8714   23833796.1444
       212.0004        149.0004
  22428443.3624     689324.45249    512315.12446  22428443.3124   22428447.1874
       227.0004        181.0004
  20598712.5894     -58792.17249    -36887.55147  20598712.8384   20598718.5114
       243.0004        210.0004
  22294342.5254   -1151411.20549   -549209.31646  22294342.1584   22294349.1874
       228.0004        181.0004
  21337470.3464     627870.73749    488680.67047  21337470.0174   21337476.8194
       239.0004        201.0004
  21565886.6074   -1015267.67049   -775359.88047  21565886.3884   21565892.7614
       235.0004        194.0004
  20561921.5084    -345268.89049   -255370.66947  20561921.2584   20561928.1874
       242.0004        210.0004
  20666577.6004    -165587.37449   -121813.43547  20666576.9464   20666583.4574
       239.0004        205.0004
  21357787.3794     612398.81549    476902.48247  21357787.5814   21357792.6984
       237.0004        203.0004
 07  2 17 18 40 25.0000000  0  9G21G 2G30G 7G 5G 6G24G10G12
  23831508.1034   -1094020.84849   -826583.83945  23831506.8514   23831513.7594
       213.0004        149.0004
  22430893.8664     702201.85849    522349.46246  22430893.3964   22430897.6964
       226.0004        180.0004
  20599380.8524     -55280.50349    -34151.18447  20599381.0754   20599386.6264
       243.0004        210.0004
  22292136.3724   -1163004.57449   -558243.10546  22292135.8954   22292142.9124
       228.0004        181.0004
  21339834.7744     640295.73949    498362.48647  21339834.2404   21339841.2904
       238.0004        201.0004
  21564028.1664   -1025033.87049   -782969.90247  21564028.2444   21564034.5264
       235.0004        194.0004
  20561815.9024    -345823.95449   -255803.18147  20561815.5814   20561822.3874
       242.0004        210.0004
  20666941.6384    -163674.43649   -120322.82947  20666941.1644   20666947.4444
       240.0004        205.0004
  21360115.4834     624632.99549    486435.61247  21360115.4404   21360120.9184
       237.0004        203.0004
 07  2 17 18 40 30.0000000  0  9G21G 2G30G 7G 5G 6G24G10G12
  23829227.4144   -1106005.82349   -835922.76345  23829227.4094   23829233.1794
       213.0004        149.0004
  22433344.8224     715081.70549    532385.70046  22433344.4994   22433348.8724
       227.0004        180.0004
  20600052.2154     -51752.50749    -31402.09647  20600052.3704   20600058.0274
       243.0004        210.0004
  22289930.5654   -1174596.15849   -567275.50246  22289929.7534   22289936.4054
       227.0004        181.0004
  21342201.3014     652731.92449    508053.01547  21342200.7424   21342207.5624
       238.0004        201.0004
  21562170.4434   -1034796.31249   -790576.99647  21562170.2804   21562176.5274
       235.0004        194.0004
  20561711.9414    -346370.22349   -256228.84447  20561711.5834   20561718.4154
       242.0004        210.0004
  20667308.9934    -161744.00649   -118818.59547  20667308.2604   20667314.7614
       239.0004        205.0004
  21362445.7274     636878.62949    495977.66147  21362445.6674   21362451.0484
       237.0004        203.0004
 07  2 17 18 40 35.0000000  0  9G21G 2G30G 7G 5G 6G24G10G12
  23826947.5574   -1117986.60849   -845258.42745  23826947.0984   23826953.2174
       213.0004        149.0004
  22435796.2664     727964.04549    542423.88846  22435796.3514   22435800.5514
       227.0004        180.0004
  20600726.6914     -48208.10949    -28640.22547  20600726.8744   20600732.5324
       242.0004        209.0004
  22287725.1084   -1186185.91049   -576306.47046  22287724.6594   22287731.6664
       228.0004        181.0004
  21344569.9624     665179.35649    517752.31447  21344569.3124   21344576.5224
       238.0004        201.0004
  21560313.4294   -1044554.94749   -798181.12347  21560313.4564   21560319.4324
       235.0004        194.0004
  20561609.6744    -346907.64649   -256647.61047  20561609.3244   20561616.2004
       242.0004        210.0004
  20667679.6914    -159796.02749   -117300.68147  20667679.0444   20667685.5634
       239.0004        205.0004
  21364778.1904     649135.79649    505528.69847  21364778.4724   21364783.6754
       237.0004        203.0004
 07  2 17 18 40 40.0000000  0  9G21G 2G30G 7G 5G 6G24G10G12
  23824668.4924   -1129963.19749   -854590.82145  23824667.8964   23824675.6944
       213.0004        149.0004
  22438248.1874     740848.87949    552464.01446  22438248.6244   22438252.7154
       227.0004        180.0004
  20601404.3064     -44647.29149    -25865.56447  20601404.5544   20601410.4434
       243.0004        209.0004
  22285519.9924   -1197773.80949   -585335.99646  22285519.5064   22285526.2664
       227.0004        181.0004
  21346940.7614     677637.98049    527460.32747  21346940.1614   21346946.8124
       238.0004        201.0004
  21558457.1554   -1054309.74449   -805782.26447  21558457.0214   21558463.3284
       235.0004        194.0004
  20561509.1034    -347436.23349   -257059.49547  20561508.8044   20561515.5684
       242.0004        210.0004
  20668053.7414    -157830.51049   -115769.11247  20668053.0354   20668059.6764
       239.0004        205.0004
  21367112.8574     661404.45249    515088.68447  21367112.8664   21367118.3364
       237.0004        203.0004
 07  2 17 18 40 45.0000000  0  9G21G 2G30G 7G 5G 6G24G10G12
  23822390.2964   -1141935.12949   -863919.58645  23822389.6234   23822396.8004
       214.0004        149.0004
  22440700.6774     753736.62049    562506.41246  22440700.2964   22440704.6794
       227.0004        180.0004
  20602085.1014     -41069.68449    -23077.81947  20602085.2034   20602090.9714
       242.0004        209.0004
  22283315.3234   -1209359.38049   -594363.70446  22283314.4424   22283321.5504
       228.0004        181.0004
  21349313.8054     690108.26649    537177.42847  21349313.3784   21349320.3054
       238.0004        201.0004
  21556601.6984   -1064060.32349   -813380.11447  21556601.6954   21556607.7714
       235.0004        194.0004
  20561410.2804    -347955.55949   -257464.16447  20561410.0224   20561416.7874
       242.0004        210.0004
  20668431.1724    -155847.02249   -114223.53547  20668430.5334   20668436.8934
       240.0004        205.0004
  21369449.7714     673685.02649    524657.96147  21369450.0484   21369455.2274
       238.0004        203.0004
 07  2 17 18 40 50.0000000  0  9G21G 2G30G 7G 5G 6G24G10G12
  23820112.9194   -1153902.72549   -873244.98045  23820111.6504   23820119.3174
       214.0004        149.0004
  22443153.6344     766626.99549    572550.85746  22443153.8284   22443157.3274
       226.0004        180.0004
  20602769.0214     -37475.60149    -20277.23347  20602769.0604   20602775.0004
       243.0004        209.0004
  22281111.0164   -1220942.98049   -603389.87846  22281110.3984   22281117.5854
       227.0004        181.0004
  21351688.9824     702589.86649    546903.34747  21351688.3044   21351695.6044
       238.0004        201.0004
  21554746.9914   -1073806.93849   -820974.87747  21554747.0294   21554753.1934
       236.0004        194.0004
  20561313.1454    -348465.92949   -257861.85247  20561312.7994   20561319.6804
       242.0004        210.0004
  20668811.9964    -153845.87249   -112664.19047  20668811.1204   20668817.7984
       240.0004        205.0004
  21371788.8984     685977.23949    534236.30747  21371789.0284   21371794.3854
       237.0004        203.0004
 07  2 17 18 40 55.0000000  0  9G21G 2G30G 7G 5G 6G24G10G12
  23817836.3794   -1165866.02949   -882567.01845  23817835.3264   23817842.7374
       214.0004        149.0004
  22445607.1144     779519.98749    582597.33746  22445607.2394   22445611.8254
       227.0004        180.0004
  20603456.0964     -33865.03149    -17463.80247  20603456.5444   20603461.9394
       243.0004        209.0004
  22278907.0794   -1232524.64949   -612414.55146  22278906.2944   22278913.6424
       227.0004        181.0004
  21354066.2874     715082.72449    556638.04147  21354065.7184   21354072.6674
       238.0004        201.0004
  21552893.0334   -1083549.60949   -828566.56047  21552892.8134   21552899.1464
       235.0004        194.0004
  20561217.7254    -348967.37449   -258252.58547  20561217.5254   20561224.2394
       242.0004        210.0004
  20669196.1544    -151827.08049   -111091.10247  20669195.4844   20669201.9394
       240.0004        205.0004
  21374130.2354     698281.03949    543823.68047  21374130.3474   21374135.7704
       237.0004        203.0004
 07  2 17 18 41  0.0000000  0  9G21G 2G30G 7G 5G 6G24G10G12
  23815560.6784   -1177824.92849   -891885.63045  23815560.0214   23815566.3844
       213.0004        149.0004
  22448061.0614     792415.68849    592645.93946  22448060.7714   22448065.1344
       227.0004        180.0004
  20604146.3464     -30237.86549    -14637.44247  20604146.6064   20604152.1214
       242.0004        209.0004
  22276703.5364   -1244104.18049   -621437.55046  22276702.9694   22276709.4554
       228.0004        181.0004
  21356445.7674     727587.00049    566381.62747  21356445.3814   21356452.4094
       238.0004        201.0004
  21551039.8434   -1093288.19349   -836155.06847  21551039.9754   21551046.0744
       235.0004        194.0004
  20561124.0244    -349459.78249   -258636.28147  20561123.8404   20561130.5294
       242.0004        210.0004
  20669583.7044    -149790.52849   -109504.17947  20669582.7564   20669589.4054
       239.0004        205.0004
  21376473.8054     710596.51049    553420.14847  21376474.0654   21376479.5214
       237.0004        203.0004
 07  2 17 18 41  5.0000000  0  9G21G 2G30G 7G 5G 6G24G10G12
  23813285.8344   -1189779.32349   -901200.72745  23813285.0464   23813291.8814
       213.0004        149.0004
  22450515.5684     805314.15049    602696.68546  22450515.6814   22450519.6814
       227.0004        180.0004
  20604839.7434     -26594.09549    -11798.13947  20604840.0564   20604845.4444
       242.0004        209.0004
  22274500.4314   -1255681.55349   -630458.87246  22274500.4544   22274507.3544
       228.0004        181.0004
  21358827.4564     740102.76249    576134.16847  21358826.8124   21358833.9644
       238.0004        200.0004
  21549187.4384   -1103022.70249   -843740.38947  21549187.2584   21549193.4664
       235.0004        194.0004
  20561032.0464    -349943.09949   -259012.88547  20561031.7744   20561038.4874
       242.0004        210.0004
  20669974.6294    -147736.16049   -107903.36447  20669973.8054   20669980.1914
       239.0004        205.0004
  21378819.6054     722923.72749    563025.77147  21378819.9114   21378825.2654
       238.0004        203.0004
 07  2 17 18 41 10.0000000  0  9G21G 2G30G 7G 5G 6G24G10G12
  23811011.7104   -1201729.84349   -910512.80945  23811011.0904   23811017.9944
       215.0004        150.0004
  22452970.4704     818214.77949    612749.12746  22452970.1424   22452974.8864
       226.0004        180.0004
  20605536.1984     -22934.24549     -8946.30847  20605536.4144   20605541.9174
       243.0004        209.0004
  22272297.6394   -1267257.26649   -639478.90846  22272297.1604   22272304.3404
       228.0004        181.0004
  21361211.1854     752629.36349    585895.15247  21361210.7024   21361217.6374
       238.0004        200.0004
  21547335.6874   -1112753.65149   -851322.94947  21547335.5304   21547341.5294
       235.0004        194.0004
  20560941.6914    -350417.90749   -259382.86547  20560941.3564   20560948.1574
       242.0004        210.0004
  20670368.8504    -145664.53849   -106289.11647  20670367.9124   20670374.7254
       239.0004        205.0004
  21381167.5354     735262.12149    572640.09947  21381168.0354   21381172.9794
       238.0004        202.0004
 07  2 17 18 41 15.0000000  0  9G21G 2G30G 7G 5G 6G24G10G12
  23808738.4914   -1213675.67849   -919821.24045  23808737.5244   23808744.9984
       215.0004        150.0004
  22455425.9204     831118.36849    622803.86246  22455425.4724   22455430.0244
       227.0004        180.0004
  20606235.8384     -19257.50949     -6081.31647  20606235.9804   20606241.6254
       242.0004        209.0004
  22270095.2904   -1278830.62949   -648497.10646  22270094.7944   22270101.3054
       228.0004        181.0004
  21363597.1314     765167.61249    595665.21747  21363596.6004   21363603.5294
       238.0004        200.0004
  21545484.8134   -1122480.18949   -858902.06447  21545484.7614   21545490.7714
       235.0004        195.0004
  20560853.1184    -350883.41049   -259745.58847  20560852.7384   20560859.5124
       242.0004        210.0004
  20670766.4964    -143574.89149   -104660.81447  20670765.7074   20670772.2994
       239.0004        205.0004
  21383517.7424     747612.45149    582263.73147  21383517.7494   21383523.2334
       237.0004        203.0004
 07  2 17 18 41 20.0000000  0  9G21G 2G30G 7G 5G 6G24G10G12
  23806466.0384   -1225617.38949   -929126.45345  23806465.1274   23806472.4574
       215.0004        150.0004
  22457881.8664     844024.39449    632860.50346  22457882.2724   22457886.2154
       227.0004        180.0004
  20606938.6164     -15564.43549     -3203.59847  20606938.7534   20606944.3974
       242.0004        209.0004
  22267893.2914   -1290402.12349   -657513.85246  22267892.3094   22267899.6334
       228.0004        181.0004
  21365985.1954     777716.94649    605443.91347  21365984.5974   21365991.4294
       238.0004        200.0004
  21543634.6164   -1132202.92249   -866478.21947  21543634.3824   21543640.6324
       236.0004        194.0004
  20560766.1984    -351340.14449   -260101.48447  20560765.7084   20560772.6734
       242.0004        210.0004
  20671167.4804    -141467.76249   -103018.89047  20671166.2894   20671173.3054
       239.0004        205.0004
  21385870.1034     759974.17849    591896.24247  21385870.1304   21385875.4204
       238.0004        202.0004
 07  2 17 18 41 25.0000000  0  9G21G 2G30G 7G 5G 6G24G10G12
  23804194.4444   -1237554.72149   -938428.25945  23804194.1994   23804201.3324
       213.0004        150.0004
  22460338.2814     856933.02949    642919.18046  22460338.0814   22460342.4644
       226.0004        180.0004
  20607644.5374     -11854.83249      -313.00047  20607644.8544   20607650.3284
       243.0004        209.0004
  22265691.7124   -1301971.52449   -666528.95846  22265691.6524   22265698.0664
       227.0004        181.0004
  21368375.4164     790277.55649    615231.40047  21368375.0224   21368381.6744
       239.0004        200.0004
  21541785.2084   -1141921.62249   -874051.23047  21541785.1424   21541791.1984
       235.0004        195.0004
  20560680.9934    -351787.92049   -260450.39947  20560680.6274   20560687.3594
       242.0004        210.0004
  20671571.8084    -139342.94449   -101363.18147  20671570.8594   20671577.5404
       239.0004        205.0004
  21388224.6784     772347.50449    601537.79247  21388224.9104   21388230.4034
       238.0004        202.0004
 07  2 17 18 41 30.0000000  0  9G21G 2G30G 7G 5G 6G24G10G12
  23801923.6824   -1249487.69049   -947726.66445  23801923.7214   23801930.1624
       214.0004        150.0004
  22462795.2164     869844.32849    652979.92246  22462794.8514   22462799.1824
       227.0004        180.0004
  20608353.6004      -8128.66249      2590.51247  20608353.8344   20608359.4414
       243.0004        209.0004
  22263490.5404   -1313538.82349   -675542.43846  22263489.3174   22263496.8034
       228.0004        181.0004
  21370767.7754     802849.48649    625027.70747  21370767.1564   21370774.5114
       239.0004        200.0004
  21539936.5924   -1151636.24649   -881621.06447  21539936.4724   21539942.8614
       235.0004        195.0004
  20560597.5004    -352226.71049   -260792.31047  20560597.1954   20560603.8664
       242.0004        210.0004
  20671979.5064    -137200.41949    -99693.68247  20671978.6374   20671985.4274
       239.0004        205.0004
  21390581.4644     784732.45149    611188.39847  21390581.6384   21390587.1314
       238.0004        202.0004
 07  2 17 18 41 35.0000000  0  9G21G 2G30G 7G 5G 6G24G10G12
  23799653.7164   -1261416.43449   -957021.77545  23799652.6434   23799659.6374
       214.0004        151.0004
  22465252.6374     882758.10049    663042.60346  22465253.1194   22465256.6004
       228.0004        180.0004
  20609065.7704      -4386.05749      5506.82747  20609066.0204   20609071.4784
       242.0004        209.0004
  22261289.7264   -1325104.16649   -684554.38646  22261289.6804   22261296.4404
       228.0004        181.0004
  21373162.2524     815432.57749    634832.70847  21373161.8684   21373168.6054
       238.0004        200.0004
  21538088.7064   -1161346.88949   -889187.79247  21538088.1924   21538094.9844
       235.0004        195.0004
  20560515.6804    -352656.65549   -261127.32847  20560515.3214   20560522.2174
       242.0004        210.0004
  20672390.5614    -135040.32149    -98010.48847  20672389.8324   20672396.6204
       239.0004        205.0004
  21392940.4244     797128.84149    620847.92047  21392940.6754   21392945.9954
       237.0004        202.0004
 07  2 17 18 41 40.0000000  0  9G21G 2G30G 7G 5G 6G24G10G12
  23797384.5744   -1273340.78549   -966313.47345  23797383.7844   23797391.3644
       214.0004        150.0004
  22467710.5664     895674.49649    673107.33046  22467710.0084   22467714.2144
       227.0004        180.0004
  20609781.1224       -626.91249      8436.03047  20609781.3554   20609786.9364
       243.0004        209.0004
  22259089.3114   -1336667.38449   -693564.68146  22259088.4544   22259095.7004
       228.0004        181.0004
  21375558.9084     828026.95449    644646.50947  21375558.6494   21375565.0244
       239.0004        200.0004
  21536241.6134   -1171053.47249   -896751.36147  21536241.3204   21536247.8584
       235.0004        195.0004
  20560435.5514    -353077.62049   -261455.35047  20560435.3374   20560442.0404
       242.0004        210.0004
  20672805.0064    -132862.49949    -96313.48047  20672804.3554   20672810.7764
       240.0004        205.0004
  21395301.6004     809536.83249    630516.48047  21395301.6614   21395307.3034
       237.0004        202.0004
 07  2 17 18 41 45.0000000  0  9G21G 2G30G 7G 5G 6G24G10G12
  23795116.3264   -1285260.46349   -975601.51945  23795115.6744   23795122.9594
       213.0004        150.0004
  22470169.0504     908593.78449    683174.29946  22470169.1164   22470173.0854
       227.0004        180.0004
  20610499.6674       3149.03549     11378.32547  20610499.9884   20610505.5334
       243.0004        209.0004
  22256889.3444   -1348228.20649   -702573.11046  22256889.0264   22256896.2414
       229.0004        181.0004
  21377957.7344     840632.86849    654469.29547  21377957.4684   21377963.9384
       238.0004        200.0004
  21534395.3564   -1180755.72249   -904311.55247  21534395.1984   21534401.5914
       235.0004        195.0004
  20560357.1954    -353489.36149   -261776.18747  20560356.7014   20560363.5244
       242.0004        210.0004
  20673222.8604    -130666.69549    -94602.46247  20673222.1464   20673228.8174
       240.0004        205.0004
  21397665.0264     821956.69849    640194.29747  21397665.0754   21397670.4154
       237.0004        202.0004
 07  2 17 18 41 50.0000000  0  9G21G 2G30G 7G 5G 6G24G10G12
  23792848.8134   -1297176.37549   -984886.63345  23792848.2244   23792854.8184
       214.0004        150.0004
  22472627.8724     921515.02549    693242.80546  22472628.0134   22472631.8514
       227.0004        180.0004
  20611221.2404       6940.84649     14332.98747  20611221.4984   20611227.0244
       243.0004        209.0004
  22254689.6944   -1359787.51649   -711580.35246  22254689.3294   22254696.4714
       228.0004        181.0004
  21380358.5964     853249.41449    664300.37047  21380358.1764   21380365.0724
       239.0004        200.0004
  21532549.7464   -1190454.43849   -911868.98447  21532549.4364   21532555.7724
       235.0004        195.0004
  20560280.4534    -353892.78249   -262090.53447  20560280.0144   20560286.8534
       242.0004        210.0004
  20673643.9524    -128453.82249    -92878.13947  20673643.2054   20673649.7214
       239.0004        205.0004
  21400030.5344     834387.50749    649880.63947  21400030.6174   21400036.1384
       237.0004        202.0004
 07  2 17 18 41 55.0000000  0  9G21G 2G30G 7G 5G 6G24G10G12
  23790582.1324   -1309087.66249   -994168.13645  23790581.1034   23790587.5344
       213.0004        150.0004
  22475087.2684     934439.06849    703313.48546  22475087.3614   22475090.7034
       227.0004        179.0004
  20611945.9624      10749.35049     17300.65247  20611946.2774   20611951.8444
       243.0004        209.0004
  22252490.4794   -1371344.50249   -720585.79146  22252490.3514   22252496.8554
       228.0004        181.0004
  21382761.6254     865877.41449    674140.36547  21382761.0134   21382768.1294
       239.0004        200.0004
  21530704.9494   -1200148.89049   -919423.10647  21530704.6634   21530710.8354
       236.0004        195.0004
  20560205.4314    -354287.04149   -262397.75147  20560205.2464   20560211.8954
       242.0004        210.0004
  20674068.4604    -126223.04249    -91139.86747  20674067.5914   20674074.3264
       239.0004        205.0004
  21402398.2504     846830.04449    659576.11947  21402398.4984   21402403.7554
       237.0004        202.0004
 07  2 17 18 42  0.0000000  0  9G21G 2G30G 7G 5G 6G24G10G12
  23788316.2804   -1320994.70649  -1003446.34345  23788315.1524   23788322.6834
       213.0004        149.0004
  22477547.1374     947365.64949    713386.14346  22477547.1284   22477550.6554
       227.0004        179.0004
  20612673.8554      14574.35849     20281.17847  20612674.0834   20612679.6274
       243.0004        209.0004
  22250291.6584   -1382899.39349   -729589.60046  22250291.2544   22250297.7834
       229.0004        181.0004
  21385166.7944     878516.60949    683989.09047  21385166.3374   21385173.1234
       238.0004        200.0004
  21528860.9304   -1209839.24449   -926974.02547  21528860.6704   21528866.8444
       236.0004        195.0004
  20560132.1024    -354672.40249   -262698.02847  20560131.7374   20560138.7374
       242.0004        210.0004
  20674496.3324    -123974.61949    -89387.84647  20674495.6054   20674501.9434
       239.0004        205.0004
  21404768.1654     859284.05849    669280.54447  21404768.6274   21404774.0424
       237.0004        202.0004
 07  2 17 18 42  5.0000000  0  9G21G 2G30G 7G 5G 6G24G10G12
  23786051.2404   -1332897.49649  -1012721.22445  23786050.5204   23786058.1184
       213.0004        149.0004
  22480007.4954     960294.65149    723460.68346  22480007.4054   22480011.7044
       227.0004        179.0004
  20613404.8294      18415.68249     23274.41847  20613405.0374   20613410.6104
       243.0004        209.0004
  22248093.2304   -1394452.29249   -738591.85146  22248092.9064   22248099.6334
       228.0004        181.0004
  21387574.0674     891166.83349    693846.40347  21387573.4014   21387580.2954
       239.0004        200.0004
  21527017.6724   -1219525.66749   -934521.88347  21527017.4864   21527023.7754
       236.0004        195.0004
  20560060.4464    -355049.00049   -262991.47947  20560060.1174   20560066.8364
       242.0004        210.0004
  20674927.5384    -121708.68849    -87622.18347  20674926.9164   20674933.3354
       239.0004        205.0004
  21407140.2464     871749.42649    678993.81647  21407140.5254   21407146.1174
       237.0004        202.0004
 07  2 17 18 42 10.0000000  0  9G21G 2G30G 7G 5G 6G24G10G12
  23783787.0744   -1344795.73749  -1021992.56445  23783786.3374   23783794.1444
       214.0004        149.0004
  22482468.3264     973226.35549    733537.33246  22482467.7414   22482472.2744
       227.0004        179.0004
  20614138.9894      22273.68949     26280.65747  20614139.1384   20614144.7074
       243.0004        209.0004
  22245895.2264   -1406002.90349   -747592.31846  22245894.5884   22245901.9834
       228.0004        181.0004
  21389983.5124     903828.43549    703712.58347  21389982.9834   21389989.7474
       239.0004        200.0004
  21525175.2054   -1229207.84149   -942066.42747  21525174.6624   21525181.4134
       235.0004        195.0004
  20559990.5104    -355416.51149   -263277.84747  20559990.3554   20559996.8814
       242.0004        210.0004
  20675362.1234    -119424.92649    -85842.62447  20675361.3154   20675367.9214
       239.0004        205.0004
  21409514.5484     884226.44649    688716.16547  21409514.8214   21409520.2044
       237.0004        202.0004
 07  2 17 18 42 15.0000000  0  9G21G 2G30G 7G 5G 6G24G10G12
  23781523.6724   -1356689.90449  -1031260.74045  23781523.2044   23781530.3534
       214.0004        150.0004
  22484929.6274     986160.34949    743615.76646  22484929.3974   22484933.4844
       226.0004        179.0004
  20614876.2314      26147.91249     29299.53247  20614876.4184   20614882.1454
       243.0004        209.0004
  22243697.5894   -1417551.66149   -756591.34946  22243697.1094   22243704.5814
       229.0004        181.0004
  21392394.9914     916500.89949    713587.22847  21392394.3944   21392401.3934
       238.0004        200.0004
  21523333.4964   -1238886.17449   -949607.98547  21523333.2164   21523339.4884
       236.0004        195.0004
  20559922.2204    -355775.39549   -263557.49447  20559921.9124   20559928.7194
       242.0004        210.0004
  20675800.0084    -117123.78849    -84049.52847  20675799.1924   20675805.8564
       239.0004        205.0004
  21411890.9844     896714.67649    698447.24747  21411891.3664   21411896.6284
       237.0004        202.0004
 07  2 17 18 42 20.0000000  0  9G21G 2G30G 7G 5G 6G24G10G12
  23779261.1884   -1368579.30249  -1040525.19145  23779260.5804   23779267.3204
       215.0004        150.0004
  22487391.4504     999097.30949    753696.51146  22487391.0834   22487395.5444
       226.0004        179.0004
  20615616.7274      30039.06149     32331.59547  20615617.0254   20615622.3664
       243.0004        209.0004
  22241500.4264   -1429097.88549   -765588.39946  22241500.1104   22241507.0634
       229.0004        181.0004
  21394808.6934     929184.93949    723470.88947  21394808.2024   21394814.8324
       239.0004        200.0004
  21521492.6404   -1248559.97849   -957146.01147  21521492.6414   21521498.4264
       236.0004        195.0004
  20559855.6894    -356124.98349   -263829.89747  20559855.3884   20559861.9714
       242.0004        210.0004
  20676241.3384    -114804.58049    -82242.35047  20676240.5474   20676246.9564
       240.0004        205.0004
  21414269.6914     909214.78649    708187.59447  21414269.7704   21414275.2274
       238.0004        202.0004
 07  2 17 18 42 25.0000000  0  9G21G 2G30G 7G 5G 6G24G10G12
  23776999.4764   -1380464.71049  -1049786.53845  23776999.2164   23777005.5414
       214.0004        150.0004
  22489853.6874    1012036.43149    763778.94146  22489853.5484   22489857.8424
       226.0004        179.0004
  20616360.2534      33946.35549     35376.24147  20616360.4514   20616366.0114
       243.0004        209.0004
  22239303.5784   -1440642.35849   -774584.09346  22239303.4414   22239309.8904
       228.0004        181.0004
  21397224.4474     941879.76449    733362.96147  21397223.5104   21397230.9174
       239.0004        200.0004
  21519652.4724   -1258230.01549   -964681.10247  21519652.3654   21519658.4454
       236.0004        195.0004
  20559790.7724    -356466.06549   -264095.67547  20559790.4834   20559797.2534
       242.0004        210.0004
  20676685.9894    -112468.08149    -80421.69747  20676685.2294   20676691.9584
       239.0004        205.0004
  21416650.5234     921726.02149    717936.60447  21416650.6014   21416656.2104
       238.0004        202.0004
 07  2 17 18 42 30.0000000  0  9G21G 2G30G 7G 5G 6G24G10G12
  23774738.5984   -1392345.74349  -1059044.47345  23774738.0314   23774745.4894
       215.0004        150.0004
  22492316.4374    1024978.10449    773863.36146  22492315.7144   22492320.3784
       226.0004        179.0004
  20617106.9114      37870.13049     38433.72747  20617107.1744   20617112.5634
       243.0004        209.0004
  22237107.1714   -1452184.63749   -783578.06846  22237106.5024   22237113.0714
       228.0004        181.0004
  21399642.3204     954585.75049    743263.72547  21399641.7564   21399648.4964
       238.0004        200.0004
  21517813.1254   -1267895.93749   -972212.98247  21517812.8384   21517819.2064
       236.0004        195.0004
  20559727.5814    -356798.24649   -264354.51547  20559727.2574   20559734.0824
       242.0004        210.0004
  20677133.9464    -110113.91249    -78587.27647  20677132.9394   20677139.6404
       239.0004        205.0004
  21419033.4994     934248.71349    727694.54247  21419033.6524   21419039.1194
       237.0004        202.0004
 07  2 17 18 42 35.0000000  0  9G21G 2G30G 7G 5G 6G24G10G12
  23772478.5494   -1404222.31449  -1068298.92645  23772477.5364   23772485.4454
       215.0004        150.0004
  22494779.6654    1037922.44849    783949.86146  22494779.4384   22494783.5984
       225.0004        178.0004
  20617856.7414      41810.47849     41504.12947  20617856.9854   20617862.4294
       242.0004        209.0004
  22234911.1864   -1463724.64849   -792570.27746  22234910.7624   22234917.8494
       229.0004        181.0004
  21402062.3254     967302.96249    753173.24147  21402061.7114   21402068.6104
       238.0004        200.0004
  21515974.5644   -1277557.65249   -979741.58947  21515974.3614   21515980.8484
       236.0004        195.0004
  20559666.0664    -357121.43749   -264606.34747  20559665.8304   20559672.5464
       242.0004        210.0004
  20677585.3254    -107741.99049    -76739.02447  20677584.3364   20677590.9674
       240.0004        205.0004
  21421418.7064     946782.96649    737461.48747  21421418.8904   21421424.2044
       238.0004        202.0004
 07  2 17 18 42 40.0000000  0  9G21G 2G30G 7G 5G 6G24G10G12
  23770219.2884   -1416094.98949  -1077550.34645  23770218.1804   23770226.1764
       215.0004        150.0004
  22497243.2764    1050868.82049    794037.94246  22497242.8334   22497247.0994
       226.0004        178.0004
  20618609.5984      45766.78449     44586.96347  20618609.7044   20618615.3884
       243.0004        209.0004
  22232715.4904   -1475262.96149   -801561.15946  22232715.7414   22232722.0554
       228.0004        181.0004
  21404484.3534     980030.81549    763091.03947  21404483.8244   21404490.7224
       238.0004        200.0004
  21514136.6934   -1287215.67149   -987267.31147  21514136.6334   21514142.8664
       236.0004        195.0004
  20559606.1764    -357436.22649   -264851.63647  20559605.9014   20559612.7784
       242.0004        210.0004
  20678039.9374    -105352.89549    -74877.39047  20678039.0014   20678045.5854
       240.0004        205.0004
  21423805.9894     959328.17249    747236.97047  21423806.1684   21423811.5514
       237.0004        202.0004
 07  2 17 18 42 45.0000000  0  9G21G 2G30G 7G 5G 6G24G10G12
  23767960.8954   -1427962.93149  -1086798.08145  23767960.0844   23767967.2964
       215.0004        151.0004
  22499707.4404    1063818.09349    804128.28946  22499707.1574   22499710.9504
       225.0004        178.0004
  20619365.6724      49739.91849     47682.91347  20619365.9004   20619371.5064
       243.0004        209.0004
  22230520.3094   -1486798.76149   -810550.09646  22230520.0614   22230526.1504
       228.0004        181.0004
  21406908.5694     992770.13849    773017.78447  21406907.8864   21406915.0344
       238.0004        200.0004
  21512299.7104   -1296869.14849   -994789.49747  21512299.6854   21512305.6314
       236.0004        195.0004
  20559548.0194    -357741.77749   -265089.72447  20559547.7714   20559554.4914
       242.0004        210.0004
  20678498.0054    -102945.82349    -73001.74247  20678497.1444   20678503.8124
       239.0004        205.0004
  21426195.5434     971885.28949    757021.73847  21426195.6334   21426200.9914
       238.0004        202.0004
 07  2 17 18 42 50.0000000  0  9G21G 2G30G 7G 5G 6G24G10G12
  23765703.3304   -1439826.54149  -1096042.43745  23765702.7664   23765709.4354
       215.0004        151.0004
  22502172.0704    1076769.84349    814220.54946  22502171.9014   22502176.4864
       225.0004        178.0004
  20620124.8774      53729.49849     50791.67547  20620124.8854   20620130.7374
       243.0004        209.0004
  22228325.5254   -1498332.38549   -819537.32646  22228325.2814   22228331.9344
       228.0004        181.0004
  21409334.8754    1005520.51149    782953.13647  21409334.4664   21409341.2154
       238.0004        200.0004
  21510463.4844   -1306518.55849  -1002308.51447  21510463.1864   21510469.5654
       236.0004        195.0004
  20559491.5514    -358038.49149   -265320.92647  20559491.2904   20559497.9084
       242.0004        210.0004
  20678959.4074    -100521.13849    -71112.37747  20678958.5254   20678965.0264
       239.0004        205.0004
  21428587.2364     984453.75749    766815.34147  21428587.4084   21428592.9064
       237.0004        202.0004
 07  2 17 18 42 55.0000000  0  9G21G 2G30G 7G 5G 6G24G10G12
  23763446.5744   -1451685.83849  -1105283.43145  23763445.9894   23763452.4024
       215.0004        151.0004
  22504637.1684    1089724.01249    824314.71146  22504636.6744   22504640.8464
       226.0004        178.0004
  20620887.1644      57735.46149     53913.20847  20620887.2574   20620892.8684
       242.0004        209.0004
  22226131.1314   -1509863.92349   -828522.93346  22226130.9504   22226138.2304
       228.0004        181.0004
  21411763.2984    1018281.90049    792897.07347  21411762.6954   21411769.3354
       238.0004        200.0004
  21508628.0514   -1316163.90349  -1009824.36447  21508627.7074   21508634.0894
       236.0004        195.0004
  20559436.7634    -358326.42749   -265545.28847  20559436.3984   20559443.1224
       242.0004        210.0004
  20679424.1264     -98078.90749    -69209.33547  20679423.3834   20679429.7994
       239.0004        205.0004
  21430981.1124     997033.52549    776617.75947  21430981.3404   21430986.7104
       237.0004        202.0004
 07  2 17 18 43  0.0000000  0  9G21G 2G30G 7G 5G 6G24G10G12
  23761190.6454   -1463540.76549  -1114521.02345  23761189.7814   23761197.3704
       215.0004        151.0004
  22507102.7444    1102680.72749    834410.84946  22507102.6774   22507107.4834
       224.0004        178.0004
  20621652.6404      61757.92449     57047.59547  20621652.8074   20621658.4534
       243.0004        209.0004
  22223937.1744   -1521393.25749   -837506.82046  22223936.3494   22223943.4644
       228.0004        181.0004
  21414193.8434    1031054.39249    802849.66447  21414193.3524   21414200.1194
       238.0004        200.0004
  21506793.4034   -1325805.03349  -1017336.92747  21506793.2174   21506799.3784
       236.0004        195.0004
  20559383.6744    -358605.46649   -265762.71847  20559383.3054   20559389.9454
       242.0004        210.0004
  20679892.2394     -95619.01749    -67292.53947  20679891.4194   20679897.9084
       240.0004        205.0004
  21433377.1264    1009624.73249    786429.08747  21433377.3124   21433382.8454
       238.0004        202.0004
 07  2 17 18 43  5.0000000  0  9G21G 2G30G 7G 5G 6G24G10G12
  23758935.5044   -1475391.64249  -1123755.45045  23758934.3524   23758942.7644
       216.0004        151.0004
  22509568.7284    1115639.67949    844508.73546  22509568.1404   22509572.4034
       225.0004        178.0004
  20622421.1574      65796.49249     60194.53347  20622421.2954   20622426.9334
       243.0004        209.0004
  22221743.5774   -1532920.66449   -846489.21346  22221743.1274   22221749.7274
       228.0004        181.0004
  21416626.4164    1043837.64949    812810.64047  21416625.8084   21416632.5504
       238.0004        199.0004
  21504959.5414   -1335442.20749  -1024846.40847  21504959.6564   21504965.7994
       236.0004        195.0004
  20559332.1864    -358875.96849   -265973.49547  20559331.8614   20559338.4334
       242.0004        210.0004
  20680363.6374     -93141.80949    -65362.24147  20680362.9334   20680369.3514
       240.0004        205.0004
  21435775.2684    1022226.99949    796249.03447  21435775.6214   21435780.8814
       237.0004        202.0004
 07  2 17 18 43 10.0000000  0  9G21G 2G30G 7G 5G 6G24G10G12
  23756681.2724   -1487237.64349  -1132986.08545  23756680.4524   23756688.0184
       216.0004        151.0004
  22512035.2854    1128601.59749    854608.92946  22512034.3534   22512039.0714
       225.0004        178.0004
  20623192.8914      69851.97949     63354.64947  20623193.0514   20623198.7164
       242.0004        209.0004
  22219550.4974   -1544445.41249   -855469.52646  22219549.9664   22219556.6104
       228.0004        181.0004
  21419061.1924    1056632.43449    822780.59747  21419060.8734   21419067.4494
       238.0004        199.0004
  21503126.5124   -1345074.77049  -1032352.29947  21503126.3954   21503132.4024
       236.0004        196.0004
  20559282.4914    -359137.17149   -266177.02847  20559282.1854   20559288.9494
       242.0004        210.0004
  20680838.4934     -90646.51149    -63417.84947  20680837.5644   20680844.0984
       239.0004        205.0004
  21438175.6734    1034841.10249    806078.20147  21438175.9104   21438181.1224
       237.0004        202.0004
 07  2 17 18 43 15.0000000  0  9G21G 2G30G 7G 5G 6G24G10G12
  23754427.8344   -1499079.40149  -1142213.41745  23754427.0024   23754433.1184
       214.0004        152.0004
  22514502.2914    1141565.91649    864710.98446  22514502.2144   22514506.3724
       225.0004        178.0004
  20623967.7244      73923.79649     66527.49547  20623967.8344   20623973.6874
       243.0004        209.0004
  22217357.7914   -1555968.06049   -864448.21146  22217357.3444   22217364.5184
       228.0004        181.0004
  21421498.0414    1069438.16049    832759.08347  21421497.6464   21421504.2534
       238.0004        199.0004
  21501294.3054   -1354703.28349  -1039855.03347  21501294.1244   21501300.6584
       236.0004        196.0004
  20559234.4544    -359389.61949   -266373.73947  20559234.2184   20559240.7724
       242.0004        210.0004
  20681316.6774     -88133.69949    -61459.81147  20681316.0034   20681322.3194
       239.0004        205.0004
  21440578.1974    1047466.47549    815916.15047  21440578.4164   21440583.6034
       237.0004        202.0004
 07  2 17 18 43 20.0000000  0  9G21G 2G30G 7G 5G 6G24G10G12
  23752175.2104   -1510916.95249  -1151437.47145  23752174.6924   23752181.0874
       214.0004        152.0004
  22516969.7694    1154532.53749    874814.84746  22516969.1174   22516973.3324
       224.0004        178.0004
  20624745.6464      78011.77949     69712.93747  20624745.6764   20624751.4214
       243.0004        209.0004
  22215165.5104   -1567488.68749   -873425.31646  22215164.8414   22215171.6464
       228.0004        181.0004
  21423936.9584    1082254.70749    842746.00147  21423936.5774   21423943.3544
       238.0004        199.0004
  21499462.8164   -1364327.79649  -1047354.64647  21499462.5124   21499469.0664
       236.0004        196.0004
  20559188.0554    -359633.44049   -266563.72247  20559187.7214   20559194.4454
       242.0004        210.0004
  20681798.1824     -85603.44749    -59488.18247  20681797.3504   20681804.1214
       239.0004        205.0004
  21442982.8814    1060102.97949    825762.77647  21442983.1724   21442988.4894
       237.0004        202.0004
 07  2 17 18 43 25.0000000  0  9G21G 2G30G 7G 5G 6G24G10G12
  23749923.4174   -1522750.16749  -1160658.14045  23749922.3514   23749929.5534
       216.0004        152.0004
  22519437.6894    1167501.58049    884920.59346  22519437.5184   22519441.3624
       225.0004        177.0004
  20625526.6844      82116.13949     72911.13647  20625526.9354   20625532.5334
       242.0004        209.0004
  22212973.6094   -1579007.13849   -882400.72546  22212973.2694   22212980.5244
       228.0004        181.0004
  21426377.9764    1095082.25449    852741.48647  21426377.5184   21426384.2384
       238.0004        199.0004
  21497632.1434   -1373948.15049  -1054851.02247  21497631.7994   21497638.4124
       236.0004        196.0004
  20559143.3204    -359868.48649   -266746.87247  20559143.1714   20559149.8594
       242.0004        210.0004
  20682283.0194     -83055.61149    -57502.85747  20682282.2644   20682288.6804
       239.0004        205.0004
  21445389.6684    1072750.80949    835618.22247  21445389.7564   21445395.0854
       237.0004        202.0004
 07  2 17 18 43 30.0000000  0  9G21G 2G30G 7G 5G 6G24G10G12
  23747672.4074   -1534579.28249  -1169875.61945  23747671.2394   23747678.6594
       214.0004        152.0004
  22521906.0474    1180472.85149    895028.07246  22521905.6494   22521909.8404
       224.0004        177.0004
  20626310.8134      86236.69849     76121.96547  20626310.9524   20626316.8074
       243.0004        209.0004
  22210782.0994   -1590523.57149   -891374.56046  22210781.4264   22210788.6004
       228.0004        181.0004
  21428821.0454    1107920.55849    862745.35847  21428820.3764   21428827.4034
       238.0004        199.0004
  21495802.2114   -1383564.48449  -1062344.26747  21495802.1664   21495808.3944
       236.0004        196.0004
  20559100.2274    -360094.91149   -266923.30347  20559099.9114   20559106.8064
       243.0004        210.0004
  20682771.1714     -80490.38249    -55503.97447  20682770.2364   20682777.1004
       239.0004        205.0004
  21447798.5964    1085409.73849    845482.32347  21447798.7684   21447804.2524
       237.0004        202.0004
 07  2 17 18 43 35.0000000  0  9G21G 2G30G 7G 5G 6G24G10G12
  23745422.2744   -1546403.82249  -1179089.53245  23745421.0874   23745428.9954
       216.0004        152.0004
  22524374.9034    1193446.78149    905137.62846  22524374.6204   22524378.0584
       224.0004        177.0004
  20627098.0994      90373.88249     79345.74547  20627098.3274   20627104.0644
       242.0004        209.0004
  22208591.0524   -1602037.57249   -900346.50746  22208590.5434   22208597.8154
       228.0004        181.0004
  21431266.2334    1120770.07549    872757.96547  21431265.7834   21431272.4434
       238.0004        199.0004
  21493973.1234   -1393176.44449  -1069834.10047  21493973.4324   21493979.2244
       235.0004        196.0004
  20559058.8764    -360312.33049   -267092.71547  20559058.5404   20559065.3144
       242.0004        210.0004
  20683262.7024     -77907.35549    -53491.22147  20683261.7764   20683268.4084
       240.0004        205.0004
  21450209.7004    1098080.15249    855355.37247  21450209.8194   21450215.0824
       237.0004        202.0004
 07  2 17 18 43 40.0000000  0  9G21G 2G30G 7G 5G 6G24G10G12
  23743172.9454   -1558223.97749  -1188300.02145  23743172.2544   23743179.5364
       215.0004        152.0004
  22526844.2134    1206423.13849    915249.06646  22526843.2014   22526848.4524
       225.0004        177.0004
  20627888.4904      94527.49149     82582.32247  20627888.7904   20627894.3604
       243.0004        209.0004
  22206400.4344   -1613549.39049   -909316.74946  22206399.8394   22206407.1644
       228.0004        181.0004
  21433713.4744    1133630.51949    882779.08847  21433712.8094   21433719.7044
       238.0004        199.0004
  21492144.8184   -1402784.19349  -1077320.65747  21492144.4884   21492150.8144
       236.0004        196.0004
  20559019.1744    -360520.96049   -267255.28647  20559018.9074   20559025.8204
       242.0004        210.0004
  20683757.5744     -75306.74749    -51464.77147  20683756.7634   20683763.4344
       240.0004        205.0004
  21452622.9514    1110761.86149    865237.21547  21452623.0884   21452628.6264
       237.0004        202.0004
 07  2 17 18 43 45.0000000  0  9G21G 2G30G 7G 5G 6G24G10G12
  23740924.4874   -1570039.58249  -1197506.97545  23740924.2004   23740930.6644
       216.0004        153.0004
  22529314.0664    1219402.11549    925362.56146  22529314.1504   22529318.1294
       224.0004        177.0004
  20628682.0604      98697.70049     85831.83647  20628682.1904   20628687.9854
       242.0004        209.0004
  22204210.2624   -1625058.79249   -918285.10946  22204209.5864   22204216.2944
       229.0004        181.0004
  21436162.8694    1146502.11949    892808.90347  21436162.4444   21436169.2964
       237.0004        199.0004
  21490317.3694   -1412387.55349  -1084803.79147  21490316.9834   21490323.3744
       235.0004        196.0004
  20558981.1824    -360720.60049   -267410.84447  20558981.0144   20558987.7094
       243.0004        210.0004
  20684255.8224     -72688.36249    -49424.47147  20684255.0484   20684261.6094
       239.0004        205.0004
  21455038.3644    1123455.03749    875128.00047  21455038.6964   21455043.9834
       237.0004        202.0004
 07  2 17 18 43 50.0000000  0  9G21G 2G30G 7G 5G 6G24G10G12
  23738676.8004   -1581851.29749  -1206710.90045  23738676.4764   23738683.4194
       215.0004        153.0004
  22531784.2634    1232383.06049    935477.57846  22531784.1704   22531789.0064
       224.0004        177.0004
  20629478.6664     102883.84749     89093.77147  20629478.7694   20629484.7064
       243.0004        209.0004
  22202020.4024   -1636566.44449   -927252.10246  22202019.5424   22202026.7154
       228.0004        181.0004
  21438614.2614    1159384.18049    902846.87447  21438613.6374   21438620.4794
       238.0004        199.0004
  21488490.6314   -1421987.20949  -1092284.03647  21488490.4684   21488496.6854
       235.0004        196.0004
  20558944.7654    -360911.93849   -267559.93647  20558944.4094   20558951.2444
       242.0004        210.0004
  20684757.3324     -70052.89149    -47370.85247  20684756.6314   20684763.0944
       239.0004        205.0004
  21457455.8644    1136158.98549    885027.17747  21457456.1324   21457461.4784
       237.0004        202.0004
 07  2 17 18 43 55.0000000  0  9G21G 2G30G 7G 5G 6G24G10G12
  23736430.0024   -1593658.30649  -1215911.15345  23736429.2924   23736436.7424
       216.0004        153.0004
  22534254.9964    1245366.82649    945594.78446  22534254.7004   22534258.5894
       224.0004        177.0004
  20630278.4554     107086.74949     92368.75747  20630278.6754   20630284.3144
       243.0004        209.0004
  22199831.0774   -1648071.50649   -936217.08246  22199830.6974   22199838.0904
       228.0004        181.0004
  21441067.7844    1172277.57249    912893.66947  21441067.3484   21441074.2604
       238.0004        199.0004
  21486664.7654   -1431582.23549  -1099760.67247  21486664.3424   21486670.8254
       235.0004        196.0004
  20558910.1254    -361094.10549   -267701.88247  20558909.7534   20558916.5934
       242.0004        210.0004
  20685262.2834     -67399.46849    -45303.24747  20685261.4514   20685268.0954
       239.0004        205.0004
  21459875.5714    1148874.58549    894935.43347  21459875.8174   21459880.9184
       237.0004        202.0004
 07  2 17 18 44  0.0000000  0  9G21G 2G30G 7G 5G 6G24G10G12
  23734183.9834   -1605461.15849  -1225108.16845  23734183.2474   23734189.7494
       217.0004        153.0004
  22536726.1334    1258352.75949    955713.69146  22536725.4404   22536730.4224
       224.0004        177.0004
  20631081.3054     111305.76149     95656.29947  20631081.4604   20631087.2624
       242.0004        209.0004
  22197642.1134   -1659574.55649   -945180.48746  22197641.4934   22197648.2504
       229.0004        181.0004
  21443523.3594    1185181.62549    922948.77147  21443522.6484   21443529.6154
       237.0004        199.0004
  21484839.6364   -1441173.30449  -1107234.23147  21484839.3254   21484845.3994
       235.0004        196.0004
  20558877.0934    -361267.72749   -267837.17047  20558876.8064   20558883.6594
       242.0004        210.0004
  20685770.4964     -64728.71549    -43222.13847  20685769.5704   20685776.4224
       239.0004        205.0004
  21462297.3574    1161601.21949    904852.28847  21462297.4514   21462303.0124
       237.0004        202.0004
 07  2 17 18 44  5.0000000  0  9G21G 2G30G 7G 5G 6G24G10G12
  23731938.8604   -1617259.40049  -1234301.59445  23731938.1914   23731945.3784
       217.0004        153.0004
  22539197.7584    1271341.29849    965834.63246  22539197.5284   22539201.5604
       224.0004        177.0004
  20631887.2994     115541.33549     98956.74747  20631887.4824   20631893.1194
       242.0004        209.0004
  22195453.6004   -1671075.21249   -954142.02446  22195452.7984   22195459.6744
       228.0004        181.0004
  21445981.0144    1198096.77749    933012.52547  21445980.4374   21445987.4734
       238.0004        199.0004
  21483015.3734   -1450759.92749  -1114704.31947  21483015.1184   21483021.2514
       235.0004        196.0004
  20558845.7554    -361432.38149   -267965.46547  20558845.3874   20558852.3304
       242.0004        210.0004
  20686282.1104     -62040.20549    -41127.19047  20686281.3754   20686287.8294
       240.0004        205.0004
  21464721.3604    1174339.29449    914778.05947  21464721.3934   21464727.0604
       237.0004        202.0004
 07  2 17 18 44 10.0000000  0  9G21G 2G30G 7G 5G 6G24G10G12
  23729694.6064   -1629053.17149  -1243491.52545  23729694.1254   23729700.2224
       216.0004        154.0004
  22541669.9024    1284332.37849    975957.54446  22541669.8574   22541674.2984
       222.0004        176.0004
  20632696.4434     119793.40149    102270.04547  20632696.7714   20632702.0444
       242.0004        209.0004
  22193265.5614   -1682573.49349   -963101.71946  22193264.8224   22193271.5534
       228.0004        181.0004
  21448440.7744    1211022.92849    943084.84747  21448440.2344   21448446.7884
       238.0004        199.0004
  21481191.9054   -1460342.24849  -1122171.06047  21481191.6014   21481197.7744
       235.0004        196.0004
  20558816.1124    -361588.18749   -268086.87147  20558815.7384   20558822.4614
       242.0004        210.0004
  20686797.0884     -59334.03449    -39018.48447  20686796.5994   20686802.6914
       239.0004        205.0004
  21467147.4824    1187088.71649    924712.67247  21467147.6434   21467152.8954
       237.0004        202.0004
 07  2 17 18 44 15.0000000  0  9G21G 2G30G 7G 5G 6G24G10G12
  23727451.1084   -1640842.81649  -1252678.24645  23727450.0884   23727457.2294
       216.0004        153.0004
  22544142.4074    1297325.64049    986082.16546  22544141.5864   22544146.6094
       225.0004        176.0004
  20633508.6814     124061.61749    105595.92847  20633509.1794   20633514.6034
       242.0004        209.0004
  22191077.8954   -1694069.66749   -972059.77746  22191076.9674   22191084.2644
       228.0004        181.0004
  21450902.5914    1223959.76249    953165.49447  21450901.8904   21450908.8214
       238.0004        199.0004
  21479369.2254   -1469920.49749  -1129634.62647  21479368.9524   21479375.2364
       235.0004        196.0004
  20558788.0614    -361735.45949   -268201.62747  20558787.7974   20558794.5724
       242.0004        210.0004
  20687315.3474     -56610.50149    -36896.25047  20687314.4904   20687321.0754
       239.0004        205.0004
  21469575.7134    1199849.15449    934655.86547  21469576.0524   21469581.1274
       238.0004        202.0004
 07  2 17 18 44 20.0000000  0  9G21G 2G30G 7G 5G 6G24G10G12
  23725208.4554   -1652628.04549  -1261861.52345  23725207.7004   23725214.5744
       216.0004        154.0004
  22546615.4124    1310321.40049    996208.72546  22546614.9934   22546619.2084
       222.0004        176.0004
  20634324.0394     128346.30549    108934.64547  20634324.4344   20634329.9824
       242.0004        209.0004
  22188890.6754   -1705563.55649   -981016.04646  22188889.7114   22188896.9104
       228.0004        181.0004
  21453366.4554    1236907.53549    963254.66147  21453365.7344   21453372.7604
       238.0004        199.0004
  21477547.3904   -1479494.38349  -1137094.79747  21477547.3234   21477553.4144
       235.0004        196.0004
  20558761.7184    -361873.92849   -268309.52347  20558761.5664   20558768.1624
       242.0004        210.0004
  20687836.9584     -53869.36649    -34760.29647  20687836.1594   20687842.8084
       239.0004        205.0004
  21472006.1044    1212620.91749    944607.88547  21472006.3494   21472011.7084
       236.0004        202.0004
 07  2 17 18 44 25.0000000  0  9G21G 2G30G 7G 5G 6G24G10G12
  23722966.5514   -1664409.32549  -1271041.72345  23722966.5124   23722972.8614
       217.0004        154.0004
  22549088.8044    1323319.19549   1006336.87646  22549088.3114   22549092.1854
       223.0004        176.0004
  20635142.4214     132646.97949    112285.82147  20635142.7784   20635148.3744
       243.0004        209.0004
  22186703.8204   -1717055.50149   -989970.80146  22186703.0554   22186710.0934
       229.0004        181.0004
  21455832.3594    1249865.82449    973352.03047  21455831.8574   21455838.5434
       238.0004        199.0004
  21475726.2614   -1489064.41949  -1144551.95547  21475725.8444   21475732.0424
       235.0004        196.0004
  20558736.9864    -362004.01649   -268410.88647  20558736.6834   20558743.5234
       242.0004        210.0004
  20688361.8684     -51111.03649    -32610.94447  20688360.7664   20688367.6604
       239.0004        205.0004
  21474438.5794    1225403.50849    954568.34347  21474438.9254   21474444.1484
       237.0004        202.0004
 07  2 17 18 44 30.0000000  0  9G21G 2G30G 7G 5G 6G24G10G12
  23720725.5424   -1676185.98349  -1280218.33245  23720724.8444   23720731.3454
       218.0004        154.0004
  22551562.7344    1336319.71349   1016467.14046  22551562.0484   22551566.7474
       224.0004        176.0004
  20635964.0054     136964.33349    115649.99247  20635964.2994   20635969.8584
       242.0004        209.0004
  22184517.4384   -1728544.89149   -998923.55946  22184516.4594   22184524.0754
       228.0004        181.0004
  21458300.3484    1262835.26049    983458.08047  21458299.7184   21458306.7874
       238.0004        199.0004
  21473906.0124   -1498629.88849  -1152005.56947  21473905.8044   21473911.8424
       235.0004        196.0004
  20558713.9554    -362125.06949   -268505.20847  20558713.5694   20558720.2254
       242.0004        210.0004
  20688890.1524     -48334.86149    -30447.69047  20688889.3604   20688895.8234
       240.0004        205.0004
  21476873.2254    1238197.57449    964537.74247  21476873.3304   21476878.7554
       238.0004        202.0004
 07  2 17 18 44 35.0000000  0  9G21G 2G30G 7G 5G 6G24G10G12
  23718485.3354   -1687958.28249  -1289391.54545  23718484.6154   23718491.4754
       219.0004        154.0004
  22554037.0794    1349322.55049   1026599.22246  22554036.4454   22554040.9294
       224.0004        176.0004
  20636788.6714     141298.02649    119026.89747  20636788.9984   20636794.5764
       243.0004        209.0004
  22182331.5174   -1740032.02549  -1007874.57646  22182330.7324   22182337.9904
       228.0004        181.0004
  21460770.4324    1275815.50849    993572.55647  21460769.7984   21460776.6964
       237.0004        199.0004
  21472086.5984   -1508191.10349  -1159455.85847  21472086.1844   21472092.5534
       235.0004        196.0004
  20558692.5654    -362237.41549   -268592.74747  20558692.3134   20558699.0164
       242.0004        210.0004
  20689421.7724     -45541.16849    -28270.78147  20689420.8924   20689427.6504
       239.0004        205.0004
  21479309.9954    1251002.81449    974515.84847  21479310.2534   21479315.4464
       237.0004        202.0004
 07  2 17 18 44 40.0000000  0  9G21G 2G30G 7G 5G 6G24G10G12
  23716245.9524   -1699726.40649  -1298561.50245  23716245.6454   23716252.5164
       217.0004        154.0004
  22556511.8614    1362327.64049   1036733.05546  22556511.6524   22556515.7204
       223.0004        176.0004
  20637616.4324     145647.90749    122416.41647  20637616.7854   20637622.4054
       243.0004        209.0004
  22180145.9684   -1751516.96149  -1016823.86746  22180144.8854   22180152.6194
       229.0004        181.0004
  21463242.4994    1288806.42549   1003695.34647  21463241.6774   21463248.8064
       237.0004        198.0004
  21470267.9354   -1517748.14849  -1166902.90047  21470267.5234   21470273.8394
       235.0004        196.0004
  20558672.8154    -362341.16449   -268673.58747  20558672.4674   20558679.2224
       242.0004        210.0004
  20689956.6954     -42730.07749    -26080.31547  20689955.8724   20689962.4154
       239.0004        205.0004
  21481748.8374    1263819.07949    984502.54947  21481749.0054   21481754.2484
       237.0004        202.0004
 07  2 17 18 44 45.0000000  0  9G21G 2G30G 7G 5G 6G24G10G12
  23714007.3714   -1711490.14249  -1307728.02745  23714007.1844   23714013.6274
       216.0004        155.0004
  22558987.1224    1375335.13149   1046868.75446  22558986.0794   22558990.7264
       222.0004        176.0004
  20638447.3144     150014.18249    125818.71147  20638447.3304   20638453.1484
       243.0004        209.0004
  22177960.9104   -1762999.54349  -1025771.32846  22177960.2684   22177967.3744
       228.0004        181.0004
  21465716.6564    1301808.23349   1013826.62747  21465716.2544   21465723.1964
       238.0004        198.0004
  21468450.1104   -1527300.86249  -1174346.56647  21468449.8214   21468455.9004
       235.0004        196.0004
  20558654.7674    -362436.14249   -268747.58947  20558654.3604   20558661.1534
       242.0004        210.0004
  20690494.9944     -39901.39749    -23876.14547  20690494.2094   20690500.8034
       239.0004        205.0004
  21484189.8294    1276646.52149    994497.95747  21484190.0654   21484195.4224
       237.0004        201.0004
 07  2 17 18 44 50.0000000  0  9G21G 2G30G 7G 5G 6G24G10G12
  23711769.6734   -1723249.33049  -1316891.01045  23711768.5744   23711775.8994
       216.0004        155.0004
  22561462.8424    1388345.21349   1057006.49046  22561462.4854   22561466.9854
       222.0004        176.0004
  20639281.3474     154397.04149    129233.92047  20639281.6234   20639287.1404
       243.0004        209.0004
  22175776.3084   -1774479.66649  -1034716.87646  22175775.2904   22175783.1124
       228.0004        181.0004
  21468192.9374    1314821.03649   1023966.46647  21468192.7194   21468199.5184
       237.0004        198.0004
  21466633.1094   -1536849.09249  -1181786.74947  21466632.6894   21466638.8034
       235.0004        196.0004
  20558638.3814    -362522.21249   -268814.65947  20558638.0814   20558644.5814
       242.0004        210.0004
  20691036.6504     -37054.99949    -21658.17447  20691035.6944   20691042.3984
       239.0004        205.0004
  21486632.9804    1289485.28349   1004502.17947  21486633.1034   21486638.6244
       237.0004        201.0004
 07  2 17 18 44 55.0000000  0  9G21G 2G30G 7G 5G 6G24G10G12
  23709532.7234   -1735004.59049  -1326050.93545  23709532.6624   23709538.9034
       216.0004        155.0004
  22563938.9654    1401357.30549   1067145.76946  22563938.3814   22563942.7754
       225.0004        176.0004
  20640118.4404     158795.89949    132661.60447  20640118.7334   20640124.0264
       243.0004        209.0004
  22173592.0864   -1785957.83649  -1043660.89346  22173591.6624   22173598.4174
       229.0004        181.0004
  21470671.1684    1327844.27849   1034114.44447  21470670.6244   21470677.4514
       237.0004        198.0004
  21464816.8794   -1546393.41849  -1189223.87947  21464816.7274   21464822.8864
       235.0004        196.0004
  20558623.6004    -362599.91949   -268875.20547  20558623.1214   20558630.1524
       242.0004        210.0004
  20691581.5674     -34191.41849    -19426.80847  20691580.8374   20691587.5174
       240.0004        205.0004
  21489078.1694    1302334.85649   1014514.83247  21489078.3014   21489083.5244
       237.0004        201.0004
 07  2 17 18 45  0.0000000  0  9G21G 2G30G 7G 5G 6G24G10G12
  23707296.6304   -1746755.35749  -1335207.36645  23707295.9714   23707302.0444
       216.0004        155.0004
  22566415.5524    1414371.85849   1077286.98746  22566414.8464   22566419.8544
       223.0004        176.0004
  20640958.6574     163211.20549    136102.10147  20640958.7824   20640964.4194
       243.0004        209.0004
  22171408.3184   -1797433.57949  -1052603.02646  22171407.4044   22171414.9074
       229.0004        181.0004
  21473151.4794    1340878.35449   1044270.86347  21473151.1074   21473157.8864
       238.0004        198.0004
  21463001.4874   -1555933.26449  -1196657.51747  21463001.0344   21463007.5134
       235.0004        196.0004
  20558610.4764    -362668.82749   -268928.89747  20558610.2304   20558616.7954
       243.0004        210.0004
  20692129.8284     -31310.23149    -17181.72547  20692129.0674   20692135.6384
       239.0004        205.0004
  21491525.5224    1315195.65849   1024536.23447  21491525.8364   21491531.0444
       237.0004        201.0004
 07  2 17 18 45  5.0000000  0  9G21G 2G30G 7G 5G 6G24G10G12
  23705061.3404   -1758501.68249  -1344360.33745  23705061.1984   23705067.4374
       217.0004        155.0004
  22568892.5604    1427388.80249   1087430.05246  22568892.4214   22568896.9884
       223.0004        176.0004
  20641801.9954     167642.86449    139555.34247  20641802.5174   20641807.9014
       243.0004        209.0004
  22169225.0104   -1808906.99849  -1061543.35046  22169224.3154   22169231.1924
       229.0004        181.0004
  21475633.8294    1353923.26049   1054435.72147  21475633.1494   21475640.1524
       238.0004        198.0004
  21461186.9534   -1565468.74949  -1204087.76347  21461186.6904   21461192.9034
       235.0004        196.0004
  20558599.0214    -362729.00249   -268975.78447  20558598.7184   20558605.4914
       243.0004        210.0004
  20692681.4464     -28411.49149    -14922.96347  20692680.5354   20692687.2064
       240.0004        205.0004
  21493974.9634    1328067.60049   1034566.31647  21493975.2914   21493980.4784
       238.0004        201.0004
 07  2 17 18 45 10.0000000  0  9G21G 2G30G 7G 5G 6G24G10G12
  23702826.9224   -1770243.54749  -1353509.82245  23702826.2454   23702832.6944
       218.0004        155.0004
  22571370.0624    1440408.16549   1097575.00646  22571369.9664   22571374.2664
       222.0004        176.0004
  20642648.4194     172090.95349    143021.38447  20642648.7724   20642654.2674
       243.0004        209.0004
  22167042.1724   -1820377.93949  -1070481.74046  22167041.2574   22167048.6744
       229.0004        181.0004
  21478118.2964    1366979.06949   1064609.08047  21478117.9184   21478124.3724
       238.0004        198.0004
  21459373.2134   -1574999.82649  -1211514.57047  21459373.1554   21459379.5734
       235.0004        196.0004
  20558589.2694    -362780.37249   -269015.81247  20558588.9754   20558595.5014
       242.0004        210.0004
  20693236.4444     -25495.09749    -12650.44747  20693235.6914   20693242.0954
       240.0004        205.0004
  21496426.5504    1340950.77449   1044605.14947  21496426.6934   21496432.1624
       237.0004        201.0004
 07  2 17 18 45 15.0000000  0  9G21G 2G30G 7G 5G 6G24G10G12
  23700593.2904   -1781981.28249  -1362656.10445  23700592.1024   23700598.8944
       216.0004        155.0004
  22573847.9504    1453429.61949   1107721.59246  22573847.4814   22573852.0614
       222.0004        176.0004
  20643497.9384     176555.08049    146499.92947  20643498.1744   20643503.8324
       243.0004        209.0004
  22164859.7154   -1831846.78449  -1079418.49146  22164859.2474   22164866.0444
       228.0004        182.0004
  21480604.7354    1380045.36349   1074790.60247  21480604.3974   21480610.8994
       237.0004        198.0004
  21457560.2954   -1584526.83449  -1218938.20647  21457560.0704   21457566.2064
       235.0004        196.0004
  20558581.1064    -362823.30049   -269049.25747  20558580.8514   20558587.3414
       243.0004        210.0004
  20693794.6804     -22561.44149    -10364.47547  20693793.7854   20693800.5804
       240.0004        205.0004
  21498880.2134    1353844.81349   1054652.45247  21498880.3454   21498885.6764
       237.0004        201.0004
 07  2 17 18 45 20.0000000  0  9G21G 2G30G 7G 5G 6G24G10G12
  23698360.4924   -1793714.66949  -1371798.98645  23698358.9774   23698366.2504
       217.0004        155.0004
  22576326.2584    1466453.36749   1117869.96246  22576325.5354   22576330.9884
       223.0004        176.0004
  20644350.5264     181035.49449    149991.16047  20644350.7834   20644356.1664
       243.0004        209.0004
  22162677.6924   -1843313.36149  -1088353.48646  22162677.0584   22162684.2784
       228.0004        181.0004
  21483093.1984    1393122.34949   1084980.46047  21483092.6444   21483099.4214
       237.0004        198.0004
  21455748.1784   -1594049.53849  -1226358.49247  21455747.7054   21455754.1564
       235.0004        196.0004
  20558574.5944    -362857.58549   -269075.97147  20558574.4054   20558580.9944
       243.0004        210.0004
  20694356.2794     -19610.33649     -8064.91247  20694355.5664   20694362.2734
       239.0004        205.0004
  21501335.9584    1366749.90649   1064708.36447  21501336.1254   21501341.5674
       237.0004        201.0004
 07  2 17 18 45 25.0000000  0  9G21G 2G30G 7G 5G 6G24G10G12
  23696128.5224   -1805443.60749  -1380938.39545  23696127.7724   23696134.5094
       217.0004        155.0004
  22578805.0324    1479479.50649   1128020.19846  22578804.8794   22578808.8214
       224.0004        176.0004
  20645206.2674     185532.29949    153495.16447  20645206.6014   20645211.9934
       243.0004        209.0004
  22160496.1324   -1854777.50949  -1097286.57346  22160495.3784   22160502.8534
       228.0004        181.0004
  21485583.7174    1406210.15349   1095178.74447  21485583.3204   21485589.9894
       237.0004        198.0004
  21453936.8984   -1603567.84149  -1233775.34747  21453936.7194   21453943.0734
       236.0004        196.0004
  20558569.7224    -362883.14049   -269095.88047  20558569.4594   20558576.0914
       242.0004        210.0004
  20694921.1974     -16641.64949     -5751.65047  20694920.3454   20694926.9634
       239.0004        205.0004
  21503793.8584    1379666.12749   1074772.94947  21503794.0334   21503799.5594
       237.0004        201.0004
 07  2 17 18 45 30.0000000  0  9G21G 2G30G 7G 5G 6G24G10G12
  23693897.3974   -1817168.12049  -1390074.36345  23693895.6674   23693903.6844
       217.0004        155.0004
  22581284.2454    1492507.95249   1138172.22946  22581283.2034   22581288.9554
       223.0004        176.0004
  20646065.0694     190045.36749    157011.84347  20646065.2964   20646070.7484
       243.0004        209.0004
  22158314.9974   -1866239.31949  -1106217.84946  22158314.4784   22158321.7234
       229.0004        182.0004
  21488076.2874    1419308.64249   1105385.35947  21488076.0354   21488082.5834
       237.0004        198.0004
  21452126.4524   -1613081.83349  -1241188.84147  21452126.1524   21452132.5124
       235.0004        196.0004
  20558566.5064    -362900.04849   -269109.05247  20558566.3414   20558572.9954
       243.0004        210.0004
  20695489.4374     -13655.46249     -3424.74447  20695488.6614   20695495.2654
       239.0004        204.0004
  21506253.8364    1392593.42749   1084846.16847  21506254.0704   21506259.4264
       237.0004        201.0004
 07  2 17 18 45 35.0000000  0  9G21G 2G30G 7G 5G 6G24G10G12
  23691667.1214   -1828888.21449  -1399206.88345  23691666.0214   23691673.3654
       218.0004        155.0004
  22583763.9114    1505538.83649   1148326.16146  22583763.6264   22583768.1874
       223.0004        176.0004
  20646927.0054     194574.83449    160541.29947  20646927.0804   20646932.6084
       243.0004        209.0004
  22156134.3514   -1877698.64949  -1115147.19646  22156134.0284   22156140.0644
       229.0004        182.0004
  21490570.9004    1432417.92049   1115600.38147  21490570.3084   21490577.2314
       237.0004        198.0004
  21450316.8504   -1622591.35549  -1248598.85347  21450316.4854   21450322.9134
       235.0004        196.0004
  20558564.9424    -362908.17549   -269115.37947  20558564.5124   20558571.3504
       243.0004        210.0004
  20696061.0464     -10651.66549     -1084.12047  20696060.2464   20696066.8294
       240.0004        204.0004
  21508715.9554    1405531.88049   1094928.07647  21508715.9064   21508721.5434
       237.0004        201.0004
 07  2 17 18 45 40.0000000  0  9G21G 2G30G 7G 5G 6G24G10G12
  23689437.7044   -1840603.76749  -1408335.87145  23689437.1544   23689444.1194
       217.0004        155.0004
  22586244.0804    1518572.15949   1158481.99646  22586243.8694   22586248.2884
       223.0004        175.0004
  20647792.0844     199120.76449    164083.57747  20647792.2514   20647797.7994
       243.0004        209.0004
  22153954.1894   -1889155.48549  -1124074.59146  22153953.8174   22153960.5874
       229.0004        182.0004
  21493067.5764    1445538.04049   1125823.84647  21493067.0694   21493073.7264
       237.0004        198.0004
  21448508.1124   -1632096.37149  -1256005.35847  21448507.8974   21448514.3244
       235.0004        196.0004
  20558565.0994    -362907.49349   -269114.84747  20558564.8424   20558571.4834
       243.0004        210.0004
  20696636.0194      -7630.21749      1270.25247  20696635.0084   20696641.5994
       239.0004        204.0004
  21511180.1884    1418481.53749   1105018.71447  21511180.2604   21511185.8584
       237.0004        201.0004
 07  2 17 18 45 45.0000000  0  9G21G 2G30G 7G 5G 6G24G10G12
  23687209.1394   -1852315.06449  -1417461.53845  23687208.9764   23687215.0794
       219.0004        155.0004
  22588724.6344    1531607.66249   1168639.52646  22588724.3224   22588729.2884
       223.0004        176.0004
  20648660.2164     203682.87249    167638.46647  20648660.4804   20648666.0914
       243.0004        209.0004
  22151774.4664   -1900610.04449  -1133000.22146  22151773.9064   22151780.5524
       229.0004        182.0004
  21495566.2654    1458668.76649   1136055.57747  21495565.8094   21495572.7044
       237.0004        198.0004
  21446700.1684   -1641597.10349  -1263408.52447  21446700.1184   21446706.3044
       235.0004        196.0004
  20558566.8614    -362898.26849   -269107.65747  20558566.4014   20558573.3554
       242.0004        210.0004
  20697214.3004      -4591.37549      3638.18647  20697213.3974   20697220.2034
       239.0004        204.0004
  21513646.5154    1431442.13149   1115117.87647  21513646.5924   21513651.8464
       237.0004        201.0004
 07  2 17 18 45 50.0000000  0  9G21G 2G30G 7G 5G 6G24G10G12
  23684981.4174   -1864021.73749  -1426583.60845  23684980.7994   23684987.3484
       218.0004        155.0004
  22591205.6934    1544645.67749   1178799.01546  22591205.4044   22591210.4274
       222.0004        176.0004
  20649531.5064     208261.53049    171206.25347  20649531.6474   20649537.3344
       243.0004        209.0004
  22149595.2324   -1912062.01249  -1141923.82346  22149594.4454   22149601.7244
       229.0004        182.0004
  21498067.0424    1471810.36549   1146295.78847  21498066.4984   21498073.0494
       237.0004        198.0004
  21444893.1254   -1651093.21049  -1270808.08647  21444893.2694   21444899.1154
       235.0004        196.0004
  20558570.3074    -362880.15649   -269093.53747  20558569.9684   20558576.7154
       242.0004        210.0004
  20697795.9334      -1534.81249      6019.92647  20697794.9654   20697801.5554
       239.0004        204.0004
  21516114.9784    1444413.94949   1125225.78347  21516115.2034   21516120.5964
       236.0004        201.0004
 07  2 17 18 45 55.0000000  0  9G21G 2G30G 7G 5G 6G24G10G12
  23682754.4994   -1875724.34949  -1435702.50445  23682754.2104   23682760.0524
       217.0004        156.0004
  22593687.1444    1557685.67549   1188960.05046  22593686.9964   22593691.8814
       223.0004        176.0004
  20650405.8524     212856.16849    174786.49147  20650406.2614   20650411.8154
       243.0004        209.0004
  22147416.4124   -1923511.89149  -1150845.80246  22147415.9134   22147422.7024
       230.0004        182.0004
  21500569.7904    1484962.33049   1156544.06747  21500569.4064   21500576.1214
       237.0004        198.0004
  21443086.8714   -1660585.22449  -1278204.45347  21443086.5404   21443092.7674
       236.0004        196.0004
  20558575.3324    -362853.69449   -269072.91347  20558574.9454   20558581.7764
       243.0004        210.0004
  20698380.8504       1538.91549      8415.04247  20698380.0704   20698386.5924
       240.0004        204.0004
  21518585.5004    1457396.47349   1135342.03447  21518585.6134   21518591.1994
       237.0004        201.0004
 07  2 17 18 46  0.0000000  0  9G21G 2G30G 7G 5G 6G24G10G12
  23680528.4354   -1887422.47149  -1444817.92145  23680527.4424   23680534.2074
       218.0004        156.0004
  22596169.0244    1570728.04849   1199122.94046  22596168.6184   22596173.5604
       223.0004        176.0004
  20651283.3084     217467.16849    178379.47847  20651283.5444   20651289.1784
       243.0004        209.0004
  22145238.0184   -1934959.32949  -1159765.88246  22145237.8614   22145244.5894
       229.0004        182.0004
  21503074.5484    1498124.99649   1166800.68447  21503074.3214   21503080.7324
       237.0004        198.0004
  21441281.4484   -1670072.80549  -1285597.36647  21441281.3704   21441287.3824
       235.0004        196.0004
  20558582.0294    -362818.53149   -269045.51247  20558581.6904   20558588.3624
       242.0004        210.0004
  20698969.0964       4630.18149     10823.82447  20698968.2324   20698974.8354
       239.0004        204.0004
  21521058.1014    1470390.09049   1145466.92547  21521058.3314   21521063.5194
       236.0004        201.0004
 07  2 17 18 46  5.0000000  0  9G21G 2G30G 7G 5G 6G24G10G12
  23678303.0674   -1899116.71049  -1453930.29945  23678302.2024   23678309.0894
       218.0004        156.0004
  22598651.2644    1583772.23549   1209287.22446  22598651.3194   22598656.0664
       223.0004        176.0004
  20652163.7474     222093.90249    181984.72447  20652163.9744   20652169.4964
       243.0004        209.0004
  22143060.0134   -1946404.84249  -1168684.46246  22143059.4494   22143066.5984
       229.0004        182.0004
  21505581.2644    1511297.79749   1177065.20247  21505580.8864   21505587.7154
       238.0004        198.0004
  21439476.7524   -1679556.47649  -1292987.23547  21439476.4994   21439482.5864
       235.0004        196.0004
  20558590.2704    -362775.24049   -269011.77647  20558590.0544   20558596.7324
       243.0004        210.0004
  20699560.5624       7738.41749     13245.83047  20699559.7834   20699566.2134
       239.0004        204.0004
  21523532.7044    1483394.17049   1155599.97447  21523532.9084   21523538.1214
       237.0004        201.0004
 07  2 17 18 46 10.0000000  0  9G21G 2G30G 7G 5G 6G24G10G12
  23676078.5554   -1910806.60549  -1463039.28145  23676077.3534   23676084.6754
       217.0004        156.0004
  22601133.9584    1596818.73949   1219453.33646  22601133.6014   22601138.4044
       223.0004        176.0004
  20653047.2714     226736.95449    185602.68847  20653047.4034   20653053.0384
       243.0004        209.0004
  22140882.4604   -1957847.97249  -1177601.18046  22140882.0564   22140889.2244
       230.0004        182.0004
  21508089.9844    1524481.27549   1187338.04347  21508089.5794   21508096.5044
       238.0004        198.0004
  21437672.9044   -1689035.72649  -1300373.65747  21437672.3784   21437679.1724
       235.0004        196.0004
  20558600.1404    -362723.29849   -268971.29547  20558599.7684   20558606.5814
       242.0004        210.0004
  20700155.3864      10864.17049     15681.48347  20700154.4214   20700160.9964
       238.0004        204.0004
  21526009.4224    1496409.26949   1165741.60547  21526009.7344   21526015.0474
       237.0004        201.0004
 07  2 17 18 46 15.0000000  0  9G21G 2G30G 7G 5G 6G24G10G12
  23673854.9244   -1922491.65249  -1472144.49445  23673854.0324   23673860.7174
       219.0004        156.0004
  22603617.1354    1609868.00949   1229621.60046  22603616.9624   22603621.6104
       222.0004        176.0004
  20653934.0194     231396.73749    189233.68547  20653934.0994   20653939.8804
       242.0004        209.0004
  22138705.4744   -1969288.17149  -1186515.61046  22138704.6044   22138711.9464
       229.0004        182.0004
  21510600.8404    1537675.82049   1197619.50347  21510600.4314   21510607.1934
       237.0004        198.0004
  21435869.9664   -1698510.12249  -1307756.29847  21435869.4564   21435875.9374
       235.0004        196.0004
  20558611.7484    -362662.25749   -268923.72847  20558611.4294   20558618.0824
       242.0004        210.0004
  20700753.5974      14007.84249     18131.09847  20700752.8374   20700759.2314
       239.0004        204.0004
  21528488.2964    1509435.80449   1175892.15047  21528488.4784   21528493.9254
       236.0004        201.0004
 07  2 17 18 46 20.0000000  0  9G21G 2G30G 7G 5G 6G24G10G12
  23671632.1374   -1934172.48649  -1481246.43945  23671631.6704   23671638.0694
       218.0004        156.0004
  22606100.7454    1622919.36149   1239791.46946  22606100.1734   22606105.1084
       223.0004        176.0004
  20654823.8114     236072.61449    192877.22347  20654824.0334   20654829.5124
       243.0004        209.0004
  22136528.9174   -1980726.11549  -1195428.29146  22136528.7104   22136535.0414
       230.0004        182.0004
  21513113.6574    1550880.79249   1207909.08847  21513113.1124   21513119.9334
       237.0004        198.0004
  21434067.8584   -1707980.29449  -1315135.64747  21434067.1944   21434073.7664
       235.0004        196.0004
  20558624.9764    -362592.78549   -268869.59247  20558624.5904   20558631.5124
       242.0004        210.0004
  20701355.0854      17168.79649     20594.17747  20701354.0414   20701360.7614
       239.0004        204.0004
  21530969.2034    1522473.10049   1186051.07847  21530969.2604   21530974.6444
       236.0004        200.0004
 07  2 17 18 46 25.0000000  0  9G21G 2G30G 7G 5G 6G24G10G12
  23669410.1174   -1945849.01749  -1490345.01845  23669409.0994   23669415.2994
       218.0004        156.0004
  22608584.7624    1635972.90449   1249963.05546  22608584.6434   22608589.2794
       222.0004        176.0004
  20655716.6844     240764.72749    196533.41847  20655716.7854   20655722.4854
       243.0004        209.0004
  22134352.8044   -1992161.69549  -1204339.12946  22134352.3674   22134359.0774
       228.0004        182.0004
  21515628.4764    1564096.25849   1218206.84947  21515627.8614   21515634.8684
       238.0004        197.0004
  21432266.5734   -1717446.03449  -1322511.54747  21432266.3414   21432272.5584
       236.0004        196.0004
  20558639.8494    -362514.74649   -268808.77847  20558639.5504   20558646.2494
       242.0004        210.0004
  20701959.9004      20347.14149     23070.81447  20701958.9924   20701965.4714
       239.0004        204.0004
  21533452.2224    1535521.33149   1196218.52647  21533452.3514   21533457.5844
       237.0004        200.0004
 07  2 17 18 46 30.0000000  0  9G21G 2G30G 7G 5G 6G24G10G12
  23667188.9544   -1957521.28449  -1499440.28045  23667188.2964   23667194.7304
       217.0004        156.0004
  22611069.1694    1649028.58849   1260136.31946  22611068.9634   22611073.9694
       223.0004        176.0004
  20656612.6374     245473.01649    200202.21647  20656612.8644   20656618.3654
       243.0004        209.0004
  22132177.1104   -2003594.97349  -1213248.16346  22132176.4134   22132183.4274
       230.0004        182.0004
  21518145.3054    1577322.22649   1228512.79947  21518144.8884   21518151.4104
       237.0004        197.0004
  21430466.1154   -1726907.41249  -1329884.04247  21430465.8774   21430471.9174
       235.0004        196.0004
  20558656.3084    -362428.18649   -268741.32347  20558655.9794   20558662.6334
       242.0004        210.0004
  20702568.0134      23542.83849     25560.97447  20702567.1514   20702573.5484
       239.0004        204.0004
  21535937.2654    1548580.44349   1206394.45947  21535937.3014   21535942.8904
       236.0004        200.0004
 07  2 17 18 46 35.0000000  0  9G21G 2G30G 7G 5G 6G24G10G12
  23664968.6544   -1969188.89149  -1508531.90245  23664968.4534   23664975.3434
       218.0004        156.0004
  22613554.1074    1662086.85349   1270311.58046  22613554.1524   22613558.7664
       223.0004        176.0004
  20657511.7724     250197.86449    203883.91547  20657511.9424   20657517.5584
       243.0004        209.0004
  22130001.9524   -2015025.47949  -1222155.04746  22130001.2994   22130008.6294
       229.0004        182.0004
  21520664.2014    1590559.06749   1238827.21447  21520663.8344   21520670.6014
       236.0004        197.0004
  21428666.5744   -1736364.10249  -1337252.88547  21428665.9534   21428672.4844
       235.0004        196.0004
  20558674.4734    -362332.72549   -268666.93647  20558674.2664   20558680.7544
       242.0004        210.0004
  20703179.5064      26756.28549     28064.95847  20703178.5784   20703185.0854
       238.0004        204.0004
  21538424.4884    1561650.77649   1216579.13147  21538424.7094   21538430.0364
       236.0004        200.0004
 07  2 17 18 46 40.0000000  0  9G21G 2G30G 7G 5G 6G24G10G12
  23662749.1324   -1980852.49949  -1517620.41845  23662749.5394   23662754.9094
       218.0004        156.0004
  22616039.3384    1675146.95749   1280488.29046  22616039.6724   22616043.5674
       225.0004        176.0004
  20658413.9054     254938.59549    207577.99047  20658414.1084   20658419.5854
       243.0004        209.0004
  22127827.1894   -2026453.97449  -1231060.37046  22127826.5144   22127833.7874
       230.0004        183.0004
  21523185.0514    1603806.10349   1249149.57747  21523184.5794   21523191.5474
       237.0004        197.0004
  21426867.7884   -1745816.69649  -1344618.54647  21426867.4384   21426873.8074
       235.0004        196.0004
  20558694.2024    -362229.05149   -268586.15047  20558693.9924   20558700.6724
       242.0004        210.0004
  20703794.2554      29986.80249     30582.24647  20703793.4224   20703799.9674
       240.0004        204.0004
  21540913.6864    1574731.63649   1226772.00647  21540913.8564   21540919.1194
       236.0004        200.0004
 07  2 17 18 46 45.0000000  0  9G21G 2G30G 7G 5G 6G24G10G12
  23660530.4944   -1992511.47649  -1526705.31145  23660529.6664   23660536.3764
       219.0004        156.0004
  22618525.0974    1688209.55049   1290666.92846  22618524.9814   22618529.8724
       224.0004        176.0004
  20659319.1674     259695.78849    211284.89547  20659319.5414   20659324.9364
       244.0004        209.0004
  22125652.9224   -2037879.75449  -1239963.56546  22125652.2704   22125659.1444
       230.0004        183.0004
  21525707.9294    1617063.92749   1259480.34747  21525707.5134   21525714.1564
       238.0004        197.0004
  21425069.8974   -1755264.60049  -1351980.54247  21425069.5534   21425076.0844
       236.0004        196.0004
  20558715.6204    -362116.54849   -268498.48247  20558715.2484   20558722.0084
       243.0004        210.0004
  20704412.3674      33235.00949     33113.31747  20704411.5644   20704418.0544
       240.0004        204.0004
  21543405.0254    1587823.68549   1236973.60247  21543405.1914   21543410.7004
       237.0004        200.0004
 07  2 17 18 46 50.0000000  0  9G21G 2G30G 7G 5G 6G24G10G12
  23658312.6294   -2004166.46849  -1535787.10645  23658311.6824   23658318.9984
       219.0004        157.0004
  22621011.1954    1701274.04349   1300847.04846  22621011.4004   22621015.1364
       224.0004        177.0004
  20660227.4544     264468.85549    215004.16647  20660227.5224   20660233.0874
       243.0004        209.0004
  22123479.0534   -2049303.41349  -1248865.11346  22123478.6844   22123485.4134
       230.0004        183.0004
  21528232.7424    1630331.89749   1269819.01747  21528232.2754   21528239.0414
       236.0004        197.0004
  21423272.8004   -1764708.40949  -1359339.34947  21423272.4174   21423278.8834
       235.0004        196.0004
  20558738.5954    -361995.82949   -268404.40947  20558738.2424   20558745.1004
       242.0004        210.0004
  20705033.7224      36500.28249     35657.69047  20705032.8244   20705039.1564
       238.0004        204.0004
  21545898.3654    1600926.25549   1247183.39447  21545898.4754   21545904.1514
       236.0004        200.0004
 07  2 17 18 46 55.0000000  0  9G21G 2G30G 7G 5G 6G24G10G12
  23656095.5954   -2015817.03849  -1544865.45445  23656094.4474   23656101.8184
       220.0004        157.0004
  22623497.7134    1714340.81449   1311028.94746  22623497.4594   22623502.1674
       224.0004        177.0004
  20661138.8654     269258.25149    218736.16147  20661139.0714   20661144.6374
       243.0004        209.0004
  22121305.6804   -2060724.55749  -1257764.70446  22121305.6094   22121311.5934
       230.0004        183.0004
  21530759.5864    1643610.46449   1280165.95147  21530759.2564   21530765.9804
       235.0004        197.0004
  21421476.5544   -1774147.68149  -1366694.61947  21421476.3014   21421482.4164
       235.0004        196.0004
  20558763.2024    -361866.46349   -268303.60047  20558762.7354   20558769.5674
       242.0004        210.0004
  20705658.4244      39783.06149     38215.70047  20705657.7114   20705664.1914
       239.0004        204.0004
  21548393.7924    1614039.77349   1257401.71747  21548393.8574   21548399.3274
       235.0004        200.0004
 07  2 17 18 47  0.0000000  0  9G21G 2G30G 7G 5G 6G24G10G12
  23653879.4674   -2027462.93749  -1553940.17145  23653878.3814   23653884.8644
       218.0004        157.0004
  22625984.7094    1727410.07349   1321212.78046  22625984.6874   22625989.1374
       223.0004        177.0004
  20662053.3894     274064.17049    222481.03347  20662053.6484   20662058.9754
       243.0004        209.0004
  22119132.8344   -2072142.97049  -1266662.15546  22119132.5634   22119139.4004
       230.0004        183.0004
  21533288.4734    1656899.79749   1290521.27347  21533287.9754   21533294.8804
       236.0004        197.0004
  21419681.2264   -1783582.27549  -1374046.24347  21419680.7844   21419687.2734
       235.0004        196.0004
  20558789.4974    -361728.26749   -268195.91047  20558789.2064   20558796.0084
       242.0004        210.0004
  20706286.4834      43083.52649     40787.49347  20706285.7174   20706292.1344
       238.0004        204.0004
  21550891.3464    1627164.42149   1267628.71547  21550891.6084   21550896.9304
       236.0004        200.0004
 07  2 17 18 47  5.0000000  0  9G21G 2G30G 7G 5G 6G24G10G12
  23651664.0734   -2039104.77749  -1563011.72545  23651663.2144   23651669.9654
       219.0004        157.0004
  22628472.0884    1740481.30049   1331398.14146  22628472.0354   22628476.4384
       224.0004        177.0004
  20662970.9744     278886.06249    226238.35147  20662971.1334   20662976.6784
       243.0004        209.0004
  22116960.4164   -2083559.17649  -1275557.90046  22116959.8474   22116967.1074
       230.0004        183.0004
  21535819.2854    1670199.34149   1300884.54947  21535818.8834   21535825.4494
       237.0004        197.0004
  21417886.6804   -1793012.62549  -1381394.56647  21417886.3464   21417893.0424
       236.0004        196.0004
  20558817.3664    -361581.79449   -268081.77347  20558816.9074   20558823.6774
       242.0004        210.0004
  20706917.8044      46401.13149     43372.64347  20706916.9004   20706923.7074
       239.0004        204.0004
  21553390.8954    1640299.65549   1277863.95847  21553391.3084   21553396.2984
       237.0004        200.0004
 07  2 17 18 47 10.0000000  0  9G21G 2G30G 7G 5G 6G24G10G12
  23649449.5694   -2050742.04249  -1572079.70845  23649448.9174   23649456.0534
       219.0004        157.0004
  22630959.9224    1753554.93549   1341585.39046  22630959.7134   22630964.4194
       224.0004        177.0004
  20663891.6504     283724.31749    230008.41947  20663891.7654   20663897.3504
       243.0004        209.0004
  22114788.5014   -2094972.73449  -1284451.58346  22114788.3314   22114795.0774
       230.0004        183.0004
  21538352.1504    1683509.56349   1311256.14447  21538351.4704   21538358.5894
       237.0004        197.0004
  21416093.0494   -1802438.25049  -1388739.20747  21416092.8674   21416099.1754
       235.0004        196.0004
  20558846.8984    -361426.56249   -267960.81347  20558846.5274   20558853.2864
       242.0004        210.0004
  20707552.4674      49736.35449     45971.51947  20707551.7404   20707558.0514
       239.0004        204.0004
  21555892.5584    1653445.95349   1288107.82147  21555892.7764   21555898.0534
       236.0004        200.0004
 07  2 17 18 47 15.0000000  0  9G21G 2G30G 7G 5G 6G24G10G12
  23647235.8854   -2062374.94049  -1581144.28545  23647235.6094   23647241.5784
       219.0004        157.0004
  22633448.1784    1766630.80849   1351774.37846  22633447.8404   22633453.0394
       223.0004        177.0004
  20664815.4334     288578.79049    233791.12647  20664815.6964   20664821.2074
       243.0004        209.0004
  22112617.0604   -2106383.77049  -1293343.28746  22112617.0244   22112623.5914
       230.0004        183.0004
  21540887.0104    1696830.28649   1321635.92847  21540886.5454   21540893.4084
       237.0004        197.0004
  21414300.2624   -1811859.41449  -1396080.36447  21414300.3484   21414306.2404
       235.0004        196.0004
  20558878.0684    -361262.74449   -267833.15847  20558877.8554   20558884.4974
       243.0004        210.0004
  20708190.4314      53089.00249     48583.97347  20708189.5794   20708196.2504
       239.0004        204.0004
  21558396.2864    1666603.12849   1298360.16747  21558396.3734   21558401.8184
       236.0004        200.0004
 07  2 17 18 47 20.0000000  0  9G21G 2G30G 7G 5G 6G24G10G12
  23645023.0694   -2074003.37949  -1590205.39745  23645022.5714   23645029.5834
       217.0004        157.0004
  22635936.8644    1779708.96449   1361965.14546  22635936.0284   22635941.2744
       223.0004        177.0004
  20665742.3084     293449.52649    237586.50347  20665742.5044   20665748.0884
       243.0004        209.0004
  22110446.0914   -2117792.26649  -1302233.02046  22110445.2974   22110452.4454
       230.0004        183.0004
  21543423.8514    1710161.51849   1332023.89747  21543423.0294   21543429.9984
       236.0004        197.0004
  21412508.3204   -1821276.00949  -1403417.97047  21412508.1294   21412514.0664
       235.0004        196.0004
  20558910.8854    -361090.32249   -267698.80047  20558910.5924   20558917.3854
       242.0004        210.0004
  20708831.7444      56459.12349     51210.04247  20708831.0154   20708837.4994
       240.0004        204.0004
  21560902.0914    1679771.19149   1308620.99247  21560902.0684   21560907.8684
       236.0004        200.0004
 07  2 17 18 47 25.0000000  0  9G21G 2G30G 7G 5G 6G24G10G12
  23642811.0274   -2085627.69949  -1599263.29045  23642810.0734   23642817.1194
       216.0004        157.0004
  22638425.8994    1792788.99349   1372157.36946  22638425.4444   22638430.3844
       222.0004        177.0004
  20666672.2294     298336.17849    241394.28347  20666672.4904   20666678.0314
       243.0004        209.0004
  22108275.5504   -2129198.58849  -1311121.05846  22108274.9504   22108281.9774
       230.0004        183.0004
  21545962.6464    1723502.91549   1342419.79047  21545962.3014   21545968.8464
       237.0004        197.0004
  21410717.2284   -1830688.39249  -1410752.29047  21410717.0794   21410723.1164
       235.0004        196.0004
  20558945.2784    -360909.66349   -267558.02347  20558945.0394   20558951.6734
       242.0004        210.0004
  20709476.3254      59846.36649     53849.45347  20709475.3294   20709481.9314
       240.0004        204.0004
  21563409.9024    1692949.78649   1318890.02347  21563410.2824   21563415.4554
       236.0004        200.0004
 07  2 17 18 47 30.0000000  0  9G21G 2G30G 7G 5G 6G24G10G12
  23640599.8074   -2097247.70249  -1608317.81445  23640599.2844   23640606.3054
       219.0004        157.0004
  22640915.3634    1805871.21749   1382351.31046  22640915.3704   22640919.1304
       222.0004        177.0004
  20667605.2034     303239.00949    245214.67347  20667605.4444   20667610.9474
       243.0004        209.0004
  22106105.4824   -2140602.40249  -1320007.13646  22106104.6924   22106111.6964
       230.0004        183.0004
  21548503.3994    1736854.69349   1352823.77047  21548503.0124   21548509.6714
       236.0004        197.0004
  21408926.9714   -1840096.29749  -1418083.11647  21408926.8084   21408933.2574
       235.0004        196.0004
  20558981.2774    -360720.50049   -267410.61847  20558980.9844   20558987.4474
       242.0004        210.0004
  20710124.2054      63250.96849     56502.39347  20710123.3604   20710129.8774
       239.0004        204.0004
  21565919.7424    1706139.16449   1329167.46047  21565920.0844   21565925.3314
       235.0004        200.0004
 07  2 17 18 47 35.0000000  0  9G21G 2G30G 7G 5G 6G24G10G12
  23638389.4304   -2108863.28049  -1617368.91145  23638389.0944   23638395.7924
       219.0004        157.0004
  22643405.2694    1818955.69849   1392547.00646  22643405.5674   22643410.4534
       223.0004        177.0004
  20668541.2714     308158.05049    249047.69147  20668541.2474   20668547.0934
       243.0004        209.0004
  22103935.8904   -2152003.63649  -1328891.20846  22103935.3344   22103942.2744
       230.0004        183.0004
  21551046.1534    1750216.95049   1363235.91447  21551045.5824   21551052.3954
       236.0004        197.0004
  21407137.5774   -1849499.63249  -1425410.38747  21407137.6174   21407143.6394
       235.0004        196.0004
  20559018.9024    -360522.74249   -267256.52047  20559018.4284   20559025.2474
       242.0004        210.0004
  20710775.4164      66673.01849     59168.92547  20710774.5094   20710781.1314
       239.0004        204.0004
  21568431.6604    1719339.40549   1339453.36147  21568431.7454   21568437.4154
       236.0004        200.0004
 07  2 17 18 47 40.0000000  0  9G21G 2G30G 7G 5G 6G24G10G12
  23636179.9164   -2120474.35749  -1626416.48545  23636178.9044   23636185.9354
       219.0004        157.0004
  22645895.5964    1832042.47549   1402744.49146  22645895.0434   22645900.4164
       225.0004        177.0004
  20669480.4524     313093.45649    252893.45947  20669480.6464   20669486.0824
       242.0004        209.0004
  22101766.7964   -2163402.23849  -1337773.23946  22101766.0064   22101772.8734
       230.0004        183.0004
  21553590.9084    1763589.76049   1373656.28247  21553590.4604   21553597.0474
       237.0004        196.0004
  21405349.0824   -1858898.27549  -1432734.00147  21405348.9054   21405355.2624
       235.0004        196.0004
  20559058.1934    -360316.30349   -267095.65847  20559057.7904   20559064.7334
       242.0004        210.0004
  20711429.9484      70112.58849     61849.10947  20711429.1364   20711435.7904
       239.0004        204.0004
  21570945.6634    1732550.59149   1349747.78547  21570945.7754   21570951.5914
       236.0004        200.0004
 07  2 17 18 47 45.0000000  0  9G21G 2G30G 7G 5G 6G24G10G12
  23633971.1524   -2132081.40249  -1635460.91745  23633970.6634   23633977.4944
       219.0004        158.0004
  22648386.2934    1845131.07749   1412943.39846  22648386.1694   22648390.3164
       224.0004        177.0004
  20670422.6344     318044.68249    256751.55847  20670422.8644   20670428.1834
       243.0004        209.0004
  22099598.1384   -2174798.66049  -1346653.55746  22099597.0974   22099604.5024
       230.0004        183.0004
  21556137.5684    1776972.61749   1384084.48147  21556137.2874   21556143.7804
       236.0004        196.0004
  21403561.3824   -1868292.71949  -1440054.33847  21403561.1534   21403567.6694
       236.0004        196.0004
  20559099.0104    -360101.68949   -266928.42247  20559098.6824   20559105.1864
       242.0004        210.0004
  20712087.7234      73569.21249     64542.58347  20712086.9414   20712093.3474
       239.0004        204.0004
  21573461.6634    1745772.21149   1360050.34647  21573461.9334   21573466.9914
       236.0004        199.0004
 07  2 17 18 47 50.0000000  0  9G21G 2G30G 7G 5G 6G24G10G12
  23631763.2864   -2143683.88149  -1644501.79845  23631763.0514   23631769.5454
       219.0004        158.0004
  22650877.4464    1858222.03049   1423144.13146  22650877.2344   22650882.3444
       224.0004        177.0004
  20671367.9344     323012.24749    260622.38647  20671368.0504   20671373.7674
       243.0004        209.0004
  22097429.9974   -2186192.39749  -1355531.79546  22097429.7784   22097436.4894
       230.0004        183.0004
  21558686.2764    1790366.04349   1394520.91547  21558685.8824   21558692.4154
       237.0004        196.0004
  21401774.5664   -1877682.47549  -1447371.03147  21401774.0604   21401780.4314
       235.0004        196.0004
  20559141.5044    -359878.37949   -266754.41447  20559141.1934   20559147.7974
       242.0004        210.0004
  20712748.8234      77043.36749     67249.71847  20712748.1634   20712754.4944
       239.0004        204.0004
  21575979.7594    1759004.83449   1370361.47547  21575979.9204   21575985.3474
       235.0004        199.0004
 07  2 17 18 47 55.0000000  0  9G21G 2G30G 7G 5G 6G24G10G12
  23629556.1804   -2155282.26249  -1653539.47645  23629555.9794   23629562.0784
       218.0004        158.0004
  22653368.9284    1871314.81249   1433346.29746  22653369.6194   22653373.8724
       224.0004        177.0004
  20672316.2444     327995.68149    264505.58147  20672316.4734   20672321.9574
       243.0004        209.0004
  22095262.2454   -2197583.89249  -1364408.27846  22095261.6194   22095268.7184
       230.0004        183.0004
  21561236.8814    1803769.52849   1404965.18547  21561236.4574   21561243.2294
       237.0004        196.0004
  21399988.5734   -1887067.99849  -1454684.41547  21399988.2564   21399994.8424
       235.0004        197.0004
  20559185.5684    -359646.84849   -266573.99647  20559185.1724   20559192.0014
       243.0004        210.0004
  20713413.1964      80534.59649     69970.15847  20713412.4134   20713418.9914
       239.0004        204.0004
  21578499.8494    1772247.93649   1380680.77347  21578499.8254   21578505.3994
       235.0004        199.0004
 07  2 17 18 48  0.0000000  0  9G21G 2G30G 7G 5G 6G24G10G12
  23627349.9624   -2166876.14749  -1662573.65045  23627349.0274   23627355.6954
       221.0004        158.0004
  22655860.8554    1884409.89449   1443550.25946  22655860.8944   22655865.1614
       224.0004        177.0004
  20673267.6544     332995.42049    268401.48247  20673267.7754   20673273.5474
       243.0004        209.0004
  22093095.0484   -2208972.70949  -1373282.67246  22093094.2394   22093101.4364
       230.0004        183.0004
  21563789.4764    1817183.48249   1415417.61647  21563789.2494   21563795.7984
       236.0004        196.0004
  21398203.4324   -1896448.84549  -1461994.15947  21398203.2624   21398209.3444
       236.0004        197.0004
  20559231.2654    -359406.71949   -266386.88047  20559230.7714   20559237.5414
       242.0004        210.0004
  20714080.8854      84043.30649     72704.22047  20714080.2314   20714086.5594
       239.0004        204.0004
  21581021.9684    1785501.86349   1391008.50947  21581022.0394   21581027.5664
       236.0004        199.0004
 07  2 17 18 48  5.0000000  0  9G21G 2G30G 7G 5G 6G24G10G12
  23625144.5384   -2178465.71649  -1671604.47445  23625144.2334   23625150.6204
       218.0004        159.0004
  22658353.1954    1897507.07449   1453755.84746  22658352.9494   22658357.9474
       224.0004        176.0004
  20674222.1354     338011.23349    272309.90747  20674222.1344   20674228.0514
       243.0004        209.0004
  22090928.2764   -2220359.10649  -1382155.18746  22090927.8794   22090934.9294
       231.0004        183.0004
  21566344.0474    1830607.75349   1425878.08547  21566343.4814   21566350.3364
       236.0004        196.0004
  21396419.1774   -1905825.18349  -1469300.39047  21396418.7784   21396425.1004
       236.0004        197.0004
  20559278.5684    -359158.16549   -266193.19847  20559278.1684   20559284.8784
       242.0004        210.0004
  20714751.8474      87569.33549     75451.77547  20714751.0164   20714757.7114
       240.0004        204.0004
  21583546.1384    1798766.42849   1401344.53047  21583546.1424   21583551.6144
       236.0004        199.0004
 07  2 17 18 48 10.0000000  0  9G21G 2G30G 7G 5G 6G24G10G12
  23622939.9984   -2190050.62249  -1680631.65345  23622939.7994   23622946.2094
       219.0004        159.0004
  22660845.9944    1910606.73749   1463963.37146  22660846.2034   22660849.9004
       224.0004        177.0004
  20675179.7584     343043.52149    276231.17147  20675179.8814   20675185.6184
       243.0004        209.0004
  22088762.0734   -2231742.57249  -1391025.41546  22088761.7584   22088768.3324
       229.0004        183.0004
  21568900.6304    1844042.66449   1436346.84147  21568900.2914   21568907.1234
       236.0004        196.0004
  21394635.8464   -1915196.60449  -1476602.79047  21394635.3724   21394641.6624
       235.0004        197.0004
  20559327.5234    -358900.81249   -265992.65847  20559327.0344   20559333.8384
       242.0004        210.0004
  20715426.2124      91113.02749     78213.09647  20715425.5194   20715431.8144
       239.0004        204.0004
  21586072.4034    1812041.99249   1411689.12347  21586072.5534   21586078.2104
       236.0004        199.0004
 07  2 17 18 48 15.0000000  0  9G21G 2G30G 7G 5G 6G24G10G12
  23620736.2164   -2201631.44549  -1689655.65845  23620735.3954   23620742.1854
       218.0004        159.0004
  22663339.1454    1923708.22049   1474172.31246  22663338.8274   22663343.4794
       225.0004        176.0004
  20676140.3804     348091.66849    280164.78847  20676140.6264   20676146.1774
       243.0004        209.0004
  22086596.3004   -2243123.77949  -1399893.88046  22086595.8784   22086602.4334
       230.0004        184.0004
  21571459.1274    1857487.61149   1446823.42047  21571458.7504   21571465.3264
       237.0004        196.0004
  21392853.3324   -1924563.77249  -1483901.88247  21392852.8064   21392859.0384
       235.0004        197.0004
  20559378.0714    -358635.28049   -265785.75047  20559377.7294   20559384.2854
       242.0004        210.0004
  20716103.8204      94673.78949     80987.71447  20716103.0804   20716109.7204
       240.0004        204.0004
  21588600.6174    1825327.95149   1422041.81447  21588600.8234   21588606.1754
       236.0004        199.0004
 07  2 17 18 48 20.0000000  0  9G21G 2G30G 7G 5G 6G24G10G12
  23618533.3554   -2213207.47949  -1698675.93245  23618532.8804   23618540.3234
       220.0004        159.0004
  22665832.7864    1936812.21849   1484383.21346  22665832.9504   22665836.7634
       223.0004        176.0004
  20677104.1664     353156.31149    284111.26247  20677104.3694   20677110.1384
       243.0004        209.0004
  22084431.0484   -2254502.10549  -1408760.10146  22084430.5974   22084437.5594
       230.0004        184.0004
  21574019.6484    1870943.23349   1457308.31747  21574019.0974   21574025.8944
       236.0004        196.0004
  21391071.7574   -1933926.04749  -1491197.15347  21391071.2894   21391077.7894
       235.0004        197.0004
  20559430.2494    -358360.95849   -265571.99047  20559429.8334   20559436.5054
       242.0004        210.0004
  20716784.7834      98252.25149     83776.12747  20716784.1194   20716790.5494
       240.0004        204.0004
  21591130.9804    1838624.92149   1432403.08947  21591131.1314   21591136.4114
       235.0004        199.0004
 07  2 17 18 48 25.0000000  0  9G21G 2G30G 7G 5G 6G24G10G12
  23616331.3054   -2224779.36749  -1707692.96645  23616330.7244   23616337.6894
       219.0004        159.0004
  22668326.7974    1949918.12049   1494595.60546  22668327.2844   22668330.8364
       223.0004        176.0004
  20678070.9494     358236.88649    288070.15247  20678071.1994   20678076.6374
       243.0004        209.0004
  22082266.2774   -2265878.05649  -1417624.47746  22082265.3764   22082272.9824
       229.0004        184.0004
  21576582.0984    1884408.92849   1467801.06447  21576581.6934   21576588.8434
       236.0004        196.0004
  21389290.9804   -1943283.96849  -1498489.03847  21389290.5524   21389297.0804
       235.0004        197.0004
  20559484.0164    -358078.37249   -265351.79247  20559483.7064   20559490.3224
       242.0004        210.0004
  20717468.9814     101847.83149     86577.88147  20717468.0354   20717474.8924
       239.0004        204.0004
  21593663.2844    1851932.36849   1442772.52147  21593663.4184   21593669.0054
       236.0004        199.0004
 07  2 17 18 48 30.0000000  0  9G21G 2G30G 7G 5G 6G24G10G12
  23614130.0204   -2236347.07749  -1716706.75045  23614130.4284   23614135.5834
       218.0004        159.0004
  22670821.1594    1963025.98349   1504809.51646  22670820.8374   22670825.4034
       223.0004        176.0004
  20679040.8134     363333.41849    292041.47747  20679040.9984   20679046.5024
       243.0004        209.0004
  22080101.9594   -2277251.60149  -1426486.97846  22080101.4444   22080108.1004
       230.0004        184.0004
  21579146.4624    1897884.75249   1478301.70547  21579146.0284   21579153.2714
       236.0004        196.0004
  21387511.0604   -1952637.42849  -1505777.43847  21387510.8644   21387517.0654
       235.0004        197.0004
  20559539.3594    -357787.47349   -265125.11147  20559538.9574   20559545.9054
       242.0004        210.0004
  20718156.4954     105460.57449     89393.00847  20718155.7294   20718162.2084
       240.0004        204.0004
  21596197.6274    1865250.35649   1453150.17347  21596197.7734   21596202.9804
       236.0004        199.0004
 07  2 17 18 48 35.0000000  0  9G21G 2G30G 7G 5G 6G24G10G12
  23611929.5834   -2247910.35449  -1725717.08645  23611929.2624   23611935.9444
       216.0004        159.0004
  22673315.9164    1976136.04249   1515025.13846  22673315.1414   22673320.2394
       223.0004        176.0004
  20680013.7314     368446.06649    296025.35347  20680013.7944   20680019.7474
       243.0004        209.0004
  22077938.1494   -2288622.49449  -1435347.40646  22077937.8724   22077944.7114
       229.0004        184.0004
  21581712.8014    1911370.90349   1488810.38947  21581712.2814   21581719.2114
       237.0004        196.0004
  21385732.0364   -1961986.22749  -1513062.21647  21385731.6564   21385738.0514
       235.0004        197.0004
  20559596.3364    -357488.05449   -264891.79747  20559595.9484   20559602.6074
       242.0004        210.0004
  20718847.2644     109090.70949     92221.68547  20718846.3614   20718852.8954
       239.0004        204.0004
  21598734.0174    1878579.07849   1463536.19047  21598734.2274   21598739.8774
       236.0004        199.0004
 07  2 17 18 48 40.0000000  0  9G21G 2G30G 7G 5G 6G24G10G12
  23609730.0194   -2259469.08649  -1734723.86745  23609728.4254   23609736.4844
       219.0004        158.0004
  22675811.1494    1989248.40449   1525242.55746  22675811.6024   22675814.9554
       224.0004        176.0004
  20680989.7164     373574.99049    300021.91547  20680989.9194   20680995.4764
       243.0004        209.0004
  22075774.8434   -2299990.59949  -1444205.66446  22075774.7494   22075780.9214
       230.0004        184.0004
  21584281.0984    1924867.49949   1499327.21247  21584280.5144   21584287.4344
       237.0004        196.0004
  21383953.9194   -1971330.23049  -1520343.25047  21383953.4974   21383959.7524
       235.0004        197.0004
  20559654.9674    -357180.01549   -264651.76747  20559654.7374   20559661.3394
       243.0004        210.0004
  20719541.3994     112738.37049     95064.01447  20719540.5014   20719546.9914
       240.0004        204.0004
  21601272.4284    1891918.64349   1473930.64947  21601272.4504   21601278.0514
       236.0004        199.0004
 07  2 17 18 48 45.0000000  0  9G21G 2G30G 7G 5G 6G24G10G12
  23607531.2964   -2271023.45149  -1743727.26545  23607530.1674   23607536.9954
       217.0004        158.0004
  22678306.7794    2002362.90449   1535461.64446  22678306.1754   22678310.9684
       223.0004        176.0004
  20681968.8104     378720.07449    304031.07347  20681969.0114   20681974.5514
       243.0004        209.0004
  22073612.0514   -2311356.13449  -1453061.91646  22073611.4774   22073618.3764
       231.0004        184.0004
  21586851.3964    1938374.40449   1509852.07047  21586850.9344   21586857.7254
       236.0004        196.0004
  21382176.7054   -1980669.63349  -1527620.70447  21382176.5074   21382182.5924
       236.0004        197.0004
  20559715.1834    -356863.51549   -264405.13947  20559714.9364   20559721.6744
       242.0004        210.0004
  20720238.8294     116403.37149     97919.86247  20720238.0584   20720244.4324
       239.0004        204.0004
  21603812.9194    1905268.87849   1484333.42947  21603812.9524   21603818.4484
       236.0004        199.0004
 07  2 17 18 48 50.0000000  0  9G21G 2G30G 7G 5G 6G24G10G12
  23605333.3184   -2282573.79349  -1752727.51745  23605333.2284   23605338.8004
       217.0004        158.0004
  22680802.7394    2015479.11649   1545682.06346  22680802.1874   22680807.2154
       223.0004        176.0004
  20682950.8554     383880.86049    308052.46347  20682950.8314   20682956.6914
       243.0004        209.0004
  22071449.6954   -2322719.47949  -1461916.46246  22071448.5644   22071456.2504
       230.0004        184.0004
  21589423.5454    1951891.10949   1520384.56547  21589423.1234   21589429.8304
       237.0004        196.0004
  21380400.2854   -1990004.80049  -1534894.85947  21380400.2674   21380406.4144
       236.0004        197.0004
  20559776.9384    -356538.96749   -264152.24447  20559776.6934   20559783.2134
       242.0004        210.0004
  20720939.4864     120085.29849    100788.89547  20720938.6734   20720945.2534
       239.0004        204.0004
  21606355.3054    1918629.34749   1494744.18047  21606355.4014   21606360.9434
       236.0004        199.0004
 07  2 17 18 48 55.0000000  0  9G21G 2G30G 7G 5G 6G24G10G12
  23603136.1834   -2294119.60749  -1761724.23245  23603135.5094   23603142.8234
       218.0004        158.0004
  22683299.0754    2028597.56349   1555904.23346  22683299.2194   22683303.0704
       223.0004        176.0004
  20683936.0264     389057.88249    312086.50747  20683936.1294   20683941.8624
       243.0004        209.0004
  22069287.8564   -2334080.02149  -1470768.83046  22069287.4504   22069294.6564
       230.0004        184.0004
  21591997.6654    1965418.20249   1530925.15447  21591997.1114   21592004.1584
       237.0004        196.0004
  21378624.7544   -1999335.20949  -1542165.30247  21378624.5364   21378630.6014
       235.0004        197.0004
  20559840.3554    -356205.83249   -263892.65547  20559840.1594   20559846.7184
       243.0004        210.0004
  20721643.4574     123784.68449    103671.53847  20721642.5254   20721649.3204
       240.0004        204.0004
  21608899.7794    1932000.60549   1505163.34047  21608900.0104   21608905.3344
       236.0004        199.0004
 07  2 17 18 49  0.0000000  0  9G21G 2G30G 7G 5G 6G24G10G12
  23600939.9334   -2305660.83449  -1770717.38345  23600939.9494   23600946.0584
       218.0004        158.0004
  22685795.8864    2041718.32049   1566128.19346  22685795.5014   22685800.3004
       223.0004        176.0004
  20684924.2494     394251.19149    316133.24047  20684924.4854   20684930.0084
       242.0004        209.0004
  22067126.5214   -2345437.81049  -1479619.04946  22067126.0674   22067132.7314
       230.0004        184.0004
  21594573.7914    1978955.70649   1541473.85747  21594573.1984   21594579.9534
       236.0004        196.0004
  21376850.1834   -2008660.73449  -1549431.93947  21376850.0054   21376856.1154
       236.0004        197.0004
  20559905.3894    -355864.05649   -263626.33547  20559905.0044   20559911.8334
       242.0004        210.0004
  20722350.7594     127501.58649    106567.82447  20722349.9764   20722356.3284
       239.0004        204.0004
  21611446.3314    1945382.68449   1515590.93347  21611446.6274   21611451.8274
       235.0004        199.0004
 07  2 17 18 49  5.0000000  0  9G21G 2G30G 7G 5G 6G24G10G12
  23598744.4724   -2317197.91149  -1779707.29245  23598743.4604   23598750.8574
       219.0004        158.0004
  22688293.0284    2054840.92849   1576353.59446  22688292.6824   22688296.7984
       222.0004        176.0004
  20685915.5404     399460.32549    320192.30347  20685915.9284   20685921.4344
       243.0004        209.0004
  22064965.6814   -2356793.18249  -1488467.39146  22064965.2524   22064971.8414
       231.0004        184.0004
  21597151.7934    1992503.20749   1552030.34347  21597151.3534   21597158.2694
       237.0004        196.0004
  21375076.4214   -2017981.93049  -1556695.20847  21375076.2534   21375082.7134
       236.0004        197.0004
  20559971.9684    -355514.09649   -263353.63747  20559971.7384   20559978.1904
       242.0004        210.0004
  20723061.3074     131235.55949    109477.41247  20723060.5444   20723067.0214
       240.0004        204.0004
  21613994.8294    1958775.11149   1526026.58147  21613994.9834   21614000.6134
       235.0004        199.0004
 07  2 17 18 49 10.0000000  0  9G21G 2G30G 7G 5G 6G24G10G12
  23596549.9194   -2328730.33149  -1788693.58445  23596548.6194   23596555.9944
       219.0004        158.0004
  22690790.5934    2067965.93249   1586580.87446  22690790.4034   22690794.5554
       223.0004        176.0004
  20686909.9064     404685.88549    324264.16647  20686910.1304   20686915.8084
       243.0004        209.0004
  22062805.3704   -2368145.59149  -1497313.41446  22062805.1284   22062811.5934
       230.0004        184.0004
  21599731.7874    2006061.20849   1562595.01647  21599730.8574   21599737.8544
       236.0004        196.0004
  21373303.6104   -2027298.10949  -1563954.55847  21373303.4904   21373309.6664
       236.0004        197.0004
  20560040.2334    -355155.40449   -263074.13347  20560039.9714   20560046.5384
       242.0004        210.0004
  20723775.2094     134987.15549    112400.74147  20723774.3804   20723780.8624
       239.0004        204.0004
  21616545.3854    1972178.46049   1536470.75147  21616545.3774   21616551.1914
       236.0004        199.0004
 07  2 17 18 49 15.0000000  0  9G21G 2G30G 7G 5G 6G24G10G12
  23594356.1944   -2340258.48449  -1797676.54845  23594355.5184   23594361.3594
       216.0004        158.0004
  22693288.5554    2081092.87049   1596809.65846  22693287.6444   22693292.7114
       223.0004        176.0004
  20687907.3464     409927.44549    328348.50147  20687907.5104   20687913.1364
       243.0004        209.0004
  22060645.5814   -2379495.46749  -1506157.46646  22060645.2134   22060651.7904
       231.0004        184.0004
  21602313.6954    2019629.28849   1573167.54447  21602313.2704   21602319.8114
       237.0004        196.0004
  21371531.6674   -2036609.78549  -1571210.40747  21371531.5974   21371537.7114
       236.0004        197.0004
  20560110.0704    -354788.40749   -262788.16147  20560109.9124   20560116.5134
       243.0004        210.0004
  20724492.4024     138755.95249    115337.46247  20724491.6934   20724498.1564
       239.0004        204.0004
  21619097.9724    1985592.28549   1546923.07847  21619098.2604   21619103.6144
       236.0004        199.0004
 07  2 17 18 49 20.0000000  0  9G21G 2G30G 7G 5G 6G24G10G12
  23592163.3024   -2351782.09349  -1806655.96045  23592162.8664   23592169.3984
       218.0004        158.0004
  22695786.9604    2094222.08049   1607040.19846  22695786.9544   22695791.7644
       223.0004        176.0004
  20688907.8914     415185.27849    332445.51147  20688908.0974   20688913.5834
       242.0004        209.0004
  22058486.2804   -2390842.53449  -1514999.33246  22058485.6584   22058492.2814
       230.0004        184.0004
  21604897.5904    2033207.71149   1583748.13147  21604897.0614   21604904.0074
       236.0004        196.0004
  21369760.6364   -2045916.55349  -1578462.43247  21369760.4834   21369766.6414
       236.0004        197.0004
  20560181.5424    -354412.82449   -262495.49347  20560181.1434   20560187.8594
       243.0004        210.0004
  20725212.9214     142542.21549    118287.80047  20725212.1544   20725218.6644
       240.0004        204.0004
  21621652.5624    1999016.84549   1557383.77047  21621652.7314   21621658.0544
       235.0004        199.0004
 07  2 17 18 49 25.0000000  0  9G21G 2G30G 7G 5G 6G24G10G12
  23589971.1904   -2363301.75049  -1815632.30745  23589969.8844   23589977.0324
       218.0004        158.0004
  22698285.6604    2107352.91849   1617272.01646  22698285.4544   22698289.6044
       224.0004        176.0004
  20689911.4194     420458.76049    336554.71847  20689911.6524   20689917.1914
       243.0004        209.0004
  22056327.4294   -2402187.40749  -1523839.48846  22056326.8234   22056334.2054
       230.0004        184.0004
  21607483.3234    2046795.85249   1594336.28847  21607482.9514   21607489.5924
       237.0004        196.0004
  21367990.4434   -2055219.13449  -1585711.18947  21367990.1484   21367996.6904
       235.0004        197.0004
  20560254.5414    -354029.29449   -262196.63447  20560254.1724   20560261.0804
       242.0004        210.0004
  20725936.6394     146345.33249    121251.26947  20725936.0334   20725942.3784
       240.0004        204.0004
  21624209.1224    2012451.52349   1567852.34847  21624209.2414   21624214.4864
       235.0004        199.0004
 07  2 17 18 49 30.0000000  0  9G21G 2G30G 7G 5G 6G24G10G12
  23587779.9684   -2374816.67249  -1824604.95345  23587779.3604   23587785.2754
       218.0004        158.0004
  22700784.8664    2120486.22349   1627505.76346  22700784.6144   22700789.1324
       223.0004        176.0004
  20690918.0474     425748.67849    340676.73047  20690918.3854   20690923.6744
       242.0004        209.0004
  22054169.1424   -2413529.26849  -1532677.29746  22054168.9474   22054175.7264
       230.0004        184.0004
  21610071.0594    2060394.48949   1604932.62347  21610070.1004   21610077.0694
       237.0004        196.0004
  21366221.1844   -2064516.66049  -1592956.01047  21366220.8034   21366227.4334
       236.0004        197.0004
  20560329.2074    -353636.98849   -261890.94147  20560328.9404   20560335.5954
       242.0004        210.0004
  20726663.6924     150166.09949    124228.48547  20726663.0004   20726669.3464
       239.0004        204.0004
  21626767.7264    2025897.12549   1578329.43947  21626767.6704   21626773.2864
       235.0004        199.0004
 07  2 17 18 49 35.0000000  0  9G21G 2G30G 7G 5G 6G24G10G12
  23585589.5864   -2386327.26549  -1833574.23945  23585588.8974   23585595.4364
       219.0004        158.0004
  22703284.4144    2133621.53049   1637741.06346  22703283.6844   22703289.3084
       223.0004        176.0004
  20691927.7294     431054.63849    344811.24447  20691927.9364   20691933.4144
       243.0004        209.0004
  22052011.3614   -2424868.49149  -1541513.04846  22052010.9804   22052017.7784
       230.0004        184.0004
  21612660.7374    2074003.26249   1615536.85947  21612660.2474   21612667.1444
       236.0004        196.0004
  21364452.7904   -2073809.52649  -1600197.19747  21364452.5374   21364458.9064
       236.0004        198.0004
  20560405.4454    -353236.32949   -261578.73547  20560405.1184   20560411.9284
       242.0004        210.0004
  20727394.0344     154004.11149    127219.14947  20727393.0544   20727399.7984
       239.0004        204.0004
  21629328.3484    2039353.22449   1588814.70747  21629328.6474   21629334.1234
       235.0004        198.0004
 07  2 17 18 49 40.0000000  0  9G21G 2G30G 7G 5G 6G24G10G12
  23583399.9804   -2397833.63749  -1842540.21845  23583399.6624   23583406.8824
       218.0004        158.0004
  22705784.3594    2146758.72049   1647977.82546  22705783.2034   22705789.6244
       223.0004        176.0004
  20692940.4604     436376.48149    348958.13147  20692940.7254   20692946.3954
       243.0004        209.0004
  22049854.0604   -2436205.23249  -1550346.86846  22049853.4644   22049860.6004
       231.0004        184.0004
  21615252.2884    2087621.96949   1626148.83547  21615252.0124   21615258.5374
       237.0004        196.0004
  21362685.3004   -2083097.87449  -1607434.87047  21362685.0814   21362691.5354
       236.0004        198.0004
  20560483.2694    -352827.45549   -261260.13347  20560482.9444   20560489.6474
       242.0004        210.0004
  20728127.6594     157859.21849    130223.12947  20728126.7964   20728133.3574
       239.0004        204.0004
  21631890.9254    2052819.66749   1599308.03547  21631891.0034   21631896.6894
       235.0004        198.0004
 07  2 17 18 49 45.0000000  0  9G21G 2G30G 7G 5G 6G24G10G12
  23581211.2484   -2409335.46949  -1851502.67845  23581211.3274   23581216.8534
       219.0004        159.0004
  22708284.7214    2159898.07949   1658216.28446  22708284.1924   22708289.0854
       224.0004        176.0004
  20693956.2494     441714.50349    353117.62847  20693956.4524   20693961.9964
       242.0004        209.0004
  22047697.2664   -2447539.21149  -1559178.53446  22047696.4874   22047703.5564
       230.0004        184.0004
  21617845.8184    2101250.88749   1636768.77247  21617845.3974   21617852.2204
       236.0004        196.0004
  21360918.6914   -2092381.43349  -1614668.80647  21360918.4344   21360924.6434
       236.0004        198.0004
  20560562.6994    -352410.07849   -260934.89747  20560562.3894   20560568.9144
       242.0004        210.0004
  20728864.5534     161731.70449    133240.65247  20728863.7464   20728870.2964
       239.0004        204.0004
  21634455.5394    2066296.78749   1609809.68247  21634455.5784   21634460.9634
       235.0004        198.0004
 07  2 17 18 49 50.0000000  0  9G21G 2G30G 7G 5G 6G24G10G12
  23579023.3634   -2420832.95549  -1860461.74345  23579022.9624   23579029.0164
       219.0004        159.0004
  22710785.4754    2173039.46949   1668456.32846  22710785.2714   22710789.9074
       223.0004        176.0004
  20694975.0924     447068.53949    357289.60647  20694975.4174   20694980.9674
       244.0004        209.0004
  22045541.0224   -2458870.45849  -1568008.06546  22045540.5304   22045547.6634
       230.0004        184.0004
  21620441.2334    2114889.90149   1647396.57047  21620441.0304   21620447.6314
       237.0004        196.0004
  21359152.9574   -2101660.29749  -1621899.08347  21359152.7464   21359158.7684
       236.0004        198.0004
  20560643.6954    -351984.37549   -260603.17847  20560643.3634   20560650.1154
       242.0004        210.0004
  20729604.7484     165621.42449    136271.60347  20729603.6644   20729610.1494
       239.0004        204.0004
  21637022.1314    2079784.34649   1620319.46647  21637022.1914   21637027.8394
       235.0004        198.0004
 07  2 17 18 49 55.0000000  0  9G21G 2G30G 7G 5G 6G24G10G12
  23576836.3124   -2432325.97849  -1869417.32945  23576834.9574   23576842.1014
       219.0004        159.0004
  22713286.6284    2186182.98249   1678698.01646  22713286.6194   22713291.0784
       224.0004        175.0004
  20695997.0124     452438.67549    361474.12447  20695997.1394   20696002.7404
       243.0004        209.0004
  22043385.2584   -2470198.99549  -1576835.49846  22043384.0034   22043391.3024
       230.0004        184.0004
  21623038.6104    2128539.05749   1658032.27147  21623038.4924   21623045.4394
       237.0004        196.0004
  21357388.1484   -2110934.41949  -1629125.66847  21357388.1984   21357393.9054
       235.0004        198.0004
  20560726.3294    -351550.22649   -260264.87747  20560725.9864   20560732.6924
       242.0004        210.0004
  20730348.2224     169528.45349    139316.03847  20730347.4194   20730353.8064
       239.0004        204.0004
  21639590.7064    2093282.41749   1630837.44247  21639590.5734   21639596.1374
       235.0004        198.0004
 07  2 17 18 50  0.0000000  0  9G21G 2G30G 7G 5G 6G24G10G12
  23574650.0124   -2443814.91249  -1878369.72945  23574648.8704   23574656.1924
       217.0004        159.0004
  22715788.1024    2199328.21749   1688941.05546  22715787.6974   22715792.6394
       223.0004        175.0004
  20697021.9024     457824.51749    365670.88947  20697022.1004   20697027.8774
       243.0004        209.0004
  22041229.9954   -2481525.11949  -1585661.04146  22041229.9644   22041236.2094
       230.0004        184.0004
  21625637.8064    2142197.97649   1668675.59047  21625637.4534   21625644.2744
       236.0004        196.0004
  21355624.2084   -2120204.09549  -1636348.78447  21355624.0394   21355630.0644
       237.0004        198.0004
  20560810.4754    -351108.00949   -259920.28647  20560810.0774   20560816.8194
       242.0004        210.0004
  20731094.9284     173452.43949    142373.69347  20731094.1124   20731100.7164
       239.0004        204.0004
  21642161.2604    2106790.67149   1641363.35447  21642161.1144   21642167.2424
       235.0004        198.0004
 07  2 17 18 50  5.0000000  0  9G21G 2G30G 7G 5G 6G24G10G12
  23572464.5524   -2455299.62649  -1887318.84445  23572464.7924   23572470.9024
       219.0004        159.0004
  22718289.9164    2212475.32849   1699185.55246  22718288.9264   22718294.1184
       224.0004        175.0004
  20698049.8144     463226.21049    369879.99547  20698049.8784   20698055.5034
       243.0004        209.0004
  22039075.1864   -2492848.69349  -1594484.60146  22039074.7864   22039081.2944
       232.0004        184.0004
  21628238.9214    2155866.80349   1679326.61947  21628238.3024   21628245.3164
       237.0004        196.0004
  21353861.0894   -2129469.21649  -1643568.35447  21353861.0804   21353867.0804
       236.0004        198.0004
  20560896.1824    -350657.57949   -259569.30047  20560895.7284   20560902.4664
       242.0004        210.0004
  20731844.9074     177393.54049    145444.68147  20731844.0434   20731850.6174
       240.0004        204.0004
  21644733.7344    2120309.24349   1651897.30447  21644733.4534   21644739.6514
       236.0004        198.0004
 07  2 17 18 50 10.0000000  0  9G21G 2G30G 7G 5G 6G24G10G12
  23570279.9564   -2466779.67349  -1896264.31545  23570279.2454   23570286.4804
       217.0004        159.0004
  22720792.2014    2225624.73449   1709431.83746  22720792.2234   22720797.1444
       223.0004        175.0004
  20699080.8354     468644.23149    374101.83147  20699081.0744   20699086.6684
       242.0004        209.0004
  22036920.9154   -2504169.33449  -1603305.87346  22036919.8184   22036927.0604
       230.0004        184.0004
  21630841.9934    2169545.95349   1689985.69447  21630841.6404   21630848.2274
       236.0004        196.0004
  21352098.9724   -2138729.33749  -1650784.02847  21352098.8704   21352104.8024
       236.0004        198.0004
  20560983.5314    -350198.53449   -259211.59947  20560983.0284   20560990.0254
       242.0004        210.0004
  20732598.2004     181352.13649    148529.30347  20732597.3624   20732603.8134
       239.0004        204.0004
  21647308.2674    2133838.54649   1662439.61547  21647308.5204   21647314.1414
       235.0004        198.0004
 07  2 17 18 50 15.0000000  0  9G21G 2G30G 7G 5G 6G24G10G12
  23568096.1574   -2478255.64149  -1905206.61145  23568094.0284   23568102.9154
       220.0004        159.0004
  22723294.7684    2238775.79449   1719679.41246  22723294.2614   22723299.0684
       223.0004        175.0004
  20700114.8414     474077.98549    378335.92447  20700115.1184   20700120.4384
       243.0004        209.0004
  22034767.0994   -2515487.58349  -1612125.27946  22034766.4694   22034773.3584
       230.0004        185.0004
  21633446.9054    2183234.82749   1700652.34647  21633446.5674   21633453.4284
       235.0004        196.0004
  21350337.6544   -2147985.02049  -1657996.24647  21350337.4994   21350343.5614
       236.0004        198.0004
  20561072.4274    -349731.44549   -258847.63447  20561072.0664   20561078.7184
       242.0004        210.0004
  20733354.7284     185327.65949    151627.11547  20733353.6784   20733360.2454
       239.0004        204.0004
  21649884.7354    2147377.99749   1672989.83347  21649884.7574   21649890.4474
       235.0004        198.0004
 07  2 17 18 50 20.0000000  0  9G21G 2G30G 7G 5G 6G24G10G12
  23565913.2704   -2489726.78949  -1914145.16545  23565912.5284   23565918.8544
       220.0004        159.0004
  22725797.8104    2251929.36949   1729928.94246  22725798.0674   22725802.1324
       223.0004        175.0004
  20701151.9884     479528.25449    382582.88847  20701152.1914   20701157.7294
       242.0004        208.0004
  22032613.9054   -2526802.62749  -1620942.19646  22032613.1194   22032620.5074
       230.0004        185.0004
  21636053.8434    2196934.26549   1711327.22847  21636053.2924   21636059.9144
       236.0004        195.0004
  21348577.3504   -2157235.46849  -1665204.38447  21348577.1484   21348583.1004
       236.0004        198.0004
  20561162.9904    -349255.50949   -258476.77547  20561162.7234   20561169.2494
       242.0004        210.0004
  20734114.6064     189320.91949    154738.74347  20734113.8624   20734120.3344
       239.0004        204.0004
  21652463.2914    2160928.37849   1683548.56547  21652463.0924   21652468.7624
       235.0004        198.0004
 07  2 17 18 50 25.0000000  0  9G21G 2G30G 7G 5G 6G24G10G12
  23563731.1894   -2501193.71349  -1923080.40545  23563730.1294   23563737.8404
       218.0004        159.0004
  22728301.2084    2265084.78749   1740179.92146  22728301.2744   22728305.6034
       223.0004        175.0004
  20702192.1554     484994.34449    386842.17847  20702192.5004   20702198.0344
       243.0004        208.0004
  22030461.2124   -2538115.08449  -1629757.08546  22030460.8194   22030467.9184
       230.0004        185.0004
  21638662.6064    2210643.50149   1722009.74447  21638662.0864   21638668.9104
       236.0004        195.0004
  21346817.9434   -2166481.31649  -1672408.93647  21346817.8754   21346823.9244
       236.0004        198.0004
  20561255.0934    -348771.40149   -258099.54747  20561254.9094   20561261.2794
       243.0004        210.0004
  20734877.7494     193331.21749    157863.65247  20734876.9534   20734883.6714
       239.0004        204.0004
  21655043.7874    2174489.02149   1694115.29547  21655044.0054   21655049.7184
       235.0004        198.0004
 07  2 17 18 50 30.0000000  0  9G21G 2G30G 7G 5G 6G24G10G12
  23561549.9464   -2512656.32049  -1932012.29645  23561549.3494   23561555.0024
       219.0004        159.0004
  22730804.9764    2278242.12949   1750432.38346  22730804.7814   22730809.0474
       223.0004        175.0004
  20703235.3384     490476.30249    391113.83447  20703235.5984   20703240.9494
       243.0004        208.0004
  22028309.0044   -2549424.93049  -1638569.95046  22028308.1604   22028315.4234
       231.0004        185.0004
  21641273.2944    2224362.67549   1732700.00847  21641272.9484   21641279.5854
       236.0004        195.0004
  21345059.3914   -2175722.51449  -1679609.86647  21345059.2934   21345065.2524
       236.0004        198.0004
  20561348.8004    -348279.05649   -257715.89647  20561348.4154   20561354.9534
       243.0004        210.0004
  20735644.1364     197358.63449    161001.89847  20735643.2534   20735649.7514
       239.0004        204.0004
  21657626.2714    2188059.99649   1704690.08047  21657626.3274   21657631.8804
       235.0004        198.0004
 07  2 17 18 50 35.0000000  0  9G21G 2G30G 7G 5G 6G24G10G12
  23559369.5324   -2524114.42249  -1940940.67145  23559368.8384   23559374.9924
       219.0004        159.0004
  22733309.1464    2291401.61649   1760686.52646  22733308.4084   22733313.9134
       222.0004        175.0004
  20704281.5834     495974.38849    395398.05347  20704281.7244   20704287.1334
       242.0004        208.0004
  22026157.3604   -2560731.90249  -1647380.57146  22026157.0894   22026163.4644
       230.0004        185.0004
  21643885.8794    2238091.96149   1743398.14947  21643885.2204   21643892.1434
       236.0004        195.0004
  21343301.7794   -2184958.78149  -1686806.95247  21343301.4904   21343307.8664
       236.0004        198.0004
  20561444.0994    -347778.25549   -257325.66047  20561443.7494   20561450.2754
       243.0004        210.0004
  20736413.8194     201403.40049    164153.66447  20736412.9704   20736419.4124
       239.0004        204.0004
  21660210.7324    2201641.50049   1715273.06347  21660210.6584   21660216.4884
       234.0004        198.0004
 07  2 17 18 50 40.0000000  0  9G21G 2G30G 7G 5G 6G24G10G12
  23557189.9544   -2535568.21349  -1949865.68645  23557189.7674   23557196.1054
       219.0004        159.0004
  22735813.6804    2304563.05949   1770942.19246  22735813.4744   22735817.6254
       222.0004        175.0004
  20705330.8824     501488.41049    399694.69347  20705331.1184   20705336.5554
       243.0004        208.0004
  22024006.2304   -2572036.18449  -1656189.10546  22024005.6584   22024012.8104
       231.0004        185.0004
  21646500.3974    2251831.19549   1754104.04247  21646500.0104   21646507.1144
       236.0004        195.0004
  21341545.0864   -2194190.36149  -1694000.38947  21341545.3964   21341551.2264
       237.0004        198.0004
  20561540.9634    -347269.18749   -256928.98647  20561540.7324   20561547.0934
       242.0004        210.0004
  20737186.7884     205465.31949    167318.79647  20737186.1654   20737192.4864
       239.0004        204.0004
  21662797.1904    2215233.35549   1725864.11847  21662797.3574   21662802.9754
       235.0004        198.0004
 07  2 17 18 50 45.0000000  0  9G21G 2G30G 7G 5G 6G24G10G12
  23555011.1404   -2547017.88249  -1958787.48845  23555010.2164   23555017.0984
       219.0004        159.0004
  22738318.5364    2317726.21649   1781199.18846  22738318.2104   22738323.2084
       223.0004        175.0004
  20706383.1504     507018.13949    404003.57347  20706383.4194   20706388.6974
       243.0004        208.0004
  22021855.5674   -2583337.94749  -1664995.65946  22021855.0374   22021861.9954
       231.0004        185.0004
  21649116.7094    2265580.12649   1764817.49347  21649116.0594   21649122.8934
       236.0004        195.0004
  21339789.2334   -2203417.40349  -1701190.28647  21339788.8824   21339795.3024
       236.0004        198.0004
  20561639.3744    -346752.05649   -256526.02147  20561639.0634   20561645.6334
       242.0004        210.0004
  20737962.9714     209544.18349    170497.13147  20737962.3574   20737968.4064
       239.0004        204.0004
  21665385.5714    2228835.33349   1736463.05947  21665385.9454   21665391.2864
       236.0004        198.0004
 07  2 17 18 50 50.0000000  0  9G21G 2G30G 7G 5G 6G24G10G12
  23552833.1954   -2558462.91549  -1967705.68345  23552831.5644   23552839.1164
       219.0004        159.0004
  22740823.8454    2330891.63949   1791457.95846  22740823.6354   22740827.7144
       221.0004        174.0004
  20707438.5074     512564.16349    408325.14947  20707438.7184   20707444.3124
       242.0004        208.0004
  22019705.4784   -2594636.70149  -1673799.88446  22019705.0154   22019711.7574
       231.0004        185.0004
  21651734.9994    2279339.30749   1775538.92947  21651734.3264   21651741.3864
       236.0004        195.0004
  21338034.3604   -2212639.34249  -1708376.21047  21338034.1064   21338040.3444
       236.0004        198.0004
  20561739.4184    -346226.31949   -256116.35747  20561739.1644   20561745.6504
       242.0004        210.0004
  20738742.4804     213640.54049    173689.09747  20738741.7884   20738748.0494
       239.0004        204.0004
  21667975.9584    2242447.97449   1747070.30347  21667975.9424   21667981.7884
       236.0004        198.0004
 07  2 17 18 50 55.0000000  0  9G21G 2G30G 7G 5G 6G24G10G12
  23550656.1254   -2569903.42949  -1976620.35645  23550655.5804   23550660.9124
       216.0004        160.0004
  22743329.5304    2344059.14349   1801718.34446  22743329.0014   22743333.5084
       223.0004        174.0004
  20708496.9634     518126.24749    412659.23947  20708497.2864   20708502.6094
       242.0004        208.0004
  22017555.9604   -2605932.53849  -1682601.82646  22017556.0134   22017562.6674
       229.0004        185.0004
  21654355.2214    2293108.51249   1786268.17847  21654354.6024   21654361.4814
       236.0004        195.0004
  21336280.4194   -2221856.40649  -1715558.33347  21336280.1714   21336286.4214
       236.0004        198.0004
  20561841.0734    -345692.19449   -255700.15247  20561840.7044   20561847.3654
       241.0004        210.0004
  20739525.3014     217754.17149    176894.52547  20739524.2164   20739531.0104
       240.0004        204.0004
  21670568.3594    2256071.09349   1757685.71947  21670568.5484   21670574.1464
       235.0004        198.0004
 07  2 17 18 51  0.0000000  0  9G21G 2G30G 7G 5G 6G24G10G12
  23548479.8744   -2581339.55549  -1985531.60945  23548478.6374   23548486.7274
       218.0004        160.0004
  22745835.5874    2357228.59349   1811980.24546  22745835.3264   22745840.3084
       222.0004        174.0004
  20709558.4124     523704.28049    417005.76047  20709558.5814   20709564.1864
       242.0004        208.0004
  22015406.9654   -2617225.64449  -1691401.64446  22015406.9214   22015413.3284
       230.0004        185.0004
  21656977.2994    2306887.64449   1797005.15747  21656976.6174   21656983.3254
       236.0004        195.0004
  21334527.3704   -2231068.67649  -1722736.72047  21334527.1644   21334532.9634
       236.0004        198.0004
  20561944.2704    -345149.81049   -255277.51547  20561943.8624   20561950.6814
       242.0004        210.0004
  20740311.3464     221884.95149    180113.31647  20740310.5124   20740316.9374
       239.0004        204.0004
  21673162.7334    2269704.54849   1768309.18547  21673162.7724   21673168.6154
       236.0004        198.0004
 07  2 17 18 51  5.0000000  0  9G21G 2G30G 7G 5G 6G24G10G12
  23546304.4894   -2592771.29349  -1994439.43745  23546303.9434   23546310.6554
       219.0004        160.0004
  22748342.0394    2370400.03649   1822243.70946  22748341.4414   22748345.7834
       222.0004        174.0004
  20710622.9184     529298.29149    421364.72947  20710623.2344   20710628.6914
       243.0004        208.0004
  22013258.4614   -2628516.00549  -1700199.31646  22013257.9194   22013264.9414
       231.0004        185.0004
  21659601.2454    2320676.70849   1807749.88547  21659600.8504   21659607.4154
       236.0004        195.0004
  21332775.2604   -2240276.13449  -1729911.36247  21332774.9374   21332781.2044
       236.0004        198.0004
  20562049.0704    -344599.12949   -254848.41147  20562048.7604   20562055.3374
       242.0004        210.0004
  20741100.6944     226032.94049    183345.51647  20741099.9554   20741106.5714
       239.0004        204.0004
  21675759.0664    2283348.36149   1778940.72447  21675759.3644   21675764.9144
       236.0004        198.0004
 07  2 17 18 51 10.0000000  0  9G21G 2G30G 7G 5G 6G24G10G12
  23544129.8754   -2604198.89549  -2003344.04445  23544129.3984   23544135.7174
       218.0004        160.0004
  22750848.7794    2383573.20749   1832508.50946  22750848.4854   22750853.0244
       221.0004        174.0004
  20711690.4194     534907.98349    425735.91647  20711690.8854   20711696.1044
       243.0004        208.0004
  22011110.4764   -2639803.79749  -1708994.99546  22011109.5464   22011116.9654
       230.0004        185.0004
  21662227.0724    2334475.44249   1818502.13847  21662226.5834   21662233.4764
       236.0004        195.0004
  21331024.0114   -2249479.00849  -1737082.42347  21331023.5504   21331030.1574
       236.0004        198.0004
  20562155.3954    -344040.38749   -254413.02547  20562155.0964   20562161.5954
       242.0004        210.0004
  20741893.2584     230197.87649    186590.92047  20741892.2474   20741898.8174
       239.0004        204.0004
  21678357.3284    2297002.26449   1789580.12647  21678357.6354   21678363.0384
       236.0004        198.0004
 07  2 17 18 51 15.0000000  0  9G21G 2G30G 7G 5G 6G24G10G12
  23541956.1174   -2615621.87849  -2012245.06845  23541955.3934   23541962.2574
       217.0004        160.0004
  22753355.9364    2396748.51749   1842774.97746  22753355.0204   22753360.0554
       222.0004        174.0004
  20712761.0124     540533.84949    430119.70647  20712761.3544   20712766.8434
       243.0004        208.0004
  22008963.0404   -2651088.57749  -1717788.32746  22008962.9724   22008969.3204
       230.0004        185.0004
  21664854.7864    2348284.26149   1829262.25447  21664854.4434   21664861.2254
       236.0004        195.0004
  21329273.7234   -2258676.82549  -1744249.54947  21329273.4214   21329279.4604
       237.0004        198.0004
  20562263.3154    -343473.20349   -253971.06347  20562262.8124   20562269.5644
       242.0004        210.0004
  20742689.1174     234380.18749    189849.86447  20742688.1664   20742694.8864
       239.0004        204.0004
  21680957.5924    2310666.69349   1800227.72647  21680958.0054   21680963.2964
       236.0004        198.0004
 07  2 17 18 51 20.0000000  0  9G21G 2G30G 7G 5G 6G24G10G12
  23539783.1764   -2627040.70849  -2021142.83645  23539782.5884   23539789.6984
       218.0004        160.0004
  22755863.4354    2409925.58449   1853042.81946  22755863.0544   22755868.0194
       222.0004        174.0004
  20713834.5924     546175.49449    434515.79347  20713834.8514   20713840.3584
       243.0004        208.0004
  22006816.0994   -2662370.80649  -1726579.66446  22006815.7684   22006822.4314
       230.0004        185.0004
  21667484.3634    2362102.75649   1840029.90847  21667483.8334   21667490.8754
       236.0004        195.0004
  21327524.2874   -2267870.07749  -1751413.11547  21327524.3424   21327530.2314
       236.0004        198.0004
  20562372.7924    -342897.95749   -253522.81847  20562372.3564   20562379.0104
       243.0004        210.0004
  20743488.2294     238579.46449    193122.02747  20743487.5324   20743493.8684
       239.0004        204.0004
  21683559.7674    2324341.20649   1810883.18947  21683560.1144   21683565.6844
       237.0004        198.0004
 07  2 17 18 51 25.0000000  0  9G21G 2G30G 7G 5G 6G24G10G12
  23537611.0894   -2638455.05949  -2030037.11845  23537610.0224   23537616.3694
       217.0004        160.0004
  22758371.3174    2423104.67249   1863312.23346  22758371.5374   22758374.8074
       222.0004        174.0004
  20714911.1904     551833.13249    438924.33747  20714911.2554   20714917.0884
       242.0004        208.0004
  22004669.7244   -2673650.13249  -1735368.74846  22004669.4644   22004676.1164
       231.0004        185.0004
  21670115.8374    2375931.19549   1850805.31047  21670115.4414   21670122.3414
       236.0004        195.0004
  21325775.8154   -2277058.41449  -1758572.85847  21325775.4734   21325781.9924
       237.0004        199.0004
  20562483.8414    -342314.34549   -253068.05547  20562483.4294   20562490.1434
       242.0004        210.0004
  20744290.5924     242795.97149    196407.61847  20744289.5074   20744296.4254
       239.0004        204.0004
  21686163.9194    2338026.06349   1821546.71347  21686164.3814   21686169.5094
       237.0004        198.0004
 07  2 17 18 51 30.0000000  0  9G21G 2G30G 7G 5G 6G24G10G12
  23535439.7644   -2649865.34449  -2038928.23045  23535439.1654   23535446.6524
       217.0004        160.0004
  22760879.5214    2436285.40649   1873582.92846  22760878.7914   22760883.7284
       221.0004        174.0004
  20715990.7554     557506.32049    443345.00547  20715990.9884   20715996.5454
       243.0004        208.0004
  22002523.8204   -2684926.99549  -1744155.90646  22002523.4904   22002530.2724
       231.0004        186.0004
  21672749.1214    2389769.15349   1861588.13547  21672748.5484   21672755.4754
       236.0004        195.0004
  21324028.2064   -2286242.24349  -1765729.08047  21324027.9534   21324034.2974
       236.0004        199.0004
  20562596.4124    -341722.79849   -252607.10347  20562596.1214   20562602.7694
       242.0004        210.0004
  20745096.1704     247029.29349    199706.31447  20745095.2294   20745102.1054
       238.0004        204.0004
  21688769.9614    2351720.85749   1832217.97847  21688770.0874   21688775.7704
       236.0004        198.0004
 07  2 17 18 51 35.0000000  0  9G21G 2G30G 7G 5G 6G24G10G12
  23533269.3314   -2661270.98449  -2047815.73045  23533267.8584   23533274.7464
       217.0004        160.0004
  22763388.1724    2449468.35749   1883855.35446  22763388.4144   22763392.8774
       222.0004        174.0004
  20717073.4104     563195.70349    447778.28947  20717073.6584   20717079.3654
       242.0004        208.0004
  22000378.4854   -2696200.73749  -1752940.63646  22000378.0254   22000385.1214
       231.0004        186.0004
  21675384.3194    2403617.23449   1872378.84347  21675383.9644   21675390.4734
       236.0004        195.0004
  21322281.5564   -2295420.93749  -1772881.30947  21322281.5424   21322287.3754
       236.0004        199.0004
  20562710.5874    -341122.69249   -252139.49147  20562710.2824   20562717.0654
       242.0004        210.0004
  20745905.0474     251280.05549    203018.59547  20745904.0994   20745910.8204
       239.0004        204.0004
  21691377.9924    2365426.19449   1842897.45647  21691378.3114   21691383.9994
       237.0004        198.0004
 07  2 17 18 51 40.0000000  0  9G21G 2G30G 7G 5G 6G24G10G12
  23531099.7204   -2672672.22849  -2056699.79345  23531098.5894   23531104.4634
       216.0004        159.0004
  22765897.1424    2462653.23849   1894129.27546  22765896.9284   22765901.8264
       222.0004        174.0004
  20718159.1134     568901.01449    452223.98847  20718159.3874   20718164.8864
       243.0004        208.0004
  21998233.6864   -2707471.61249  -1761723.13146  21998232.9804   21998240.0684
       230.0004        186.0004
  21678021.4144    2417475.16549   1883177.22947  21678021.1184   21678027.6354
       236.0004        195.0004
  21320535.8304   -2304594.75149  -1780029.72847  21320535.5804   21320541.4944
       237.0004        199.0004
  20562826.3744    -340514.32849   -251665.43547  20562826.1224   20562832.7054
       242.0004        210.0004
  20746717.2064     255547.96949    206344.24547  20746716.5374   20746722.7234
       239.0004        204.0004
  21693988.0164    2379141.78649   1853584.92847  21693988.1554   21693993.9024
       236.0004        198.0004
 07  2 17 18 51 45.0000000  0  9G21G 2G30G 7G 5G 6G24G10G12
  23528931.0494   -2684068.67549  -2065580.13945  23528930.9104   23528937.7564
       217.0004        159.0004
  22768406.5984    2475840.47549   1904405.04046  22768406.4904   22768410.7004
       222.0004        174.0004
  20719247.9014     574622.68649    456682.43247  20719248.2034   20719253.7284
       242.0004        208.0004
  21996089.5174   -2718739.29049  -1770503.13446  21996089.1944   21996096.0034
       231.0004        186.0004
  21680660.4564    2431343.34449   1893983.60047  21680659.9514   21680666.5404
       236.0004        195.0004
  21318791.1104   -2313763.27249  -1787174.02947  21318791.0884   21318797.2054
       237.0004        199.0004
  20562943.7844    -339897.32649   -251184.65547  20562943.3714   20562950.0974
       242.0004        210.0004
  20747532.6904     259833.41749    209683.55347  20747532.0624   20747538.3164
       239.0004        204.0004
  21696600.0324    2392868.02949   1864280.70247  21696600.3364   21696605.7884
       237.0004        198.0004
 07  2 17 18 51 50.0000000  0  9G21G 2G30G 7G 5G 6G24G10G12
  23526763.0744   -2695461.22949  -2074457.43445  23526762.0624   23526769.2464
       218.0004        159.0004
  22770916.3344    2489029.15149   1914681.91946  22770916.6524   22770920.6004
       223.0004        174.0004
  20720339.6384     580359.77949    461152.88947  20720339.7474   20720345.4564
       243.0004        208.0004
  21993945.8054   -2730004.57949  -1779281.28146  21993945.4084   21993952.6384
       231.0004        186.0004
  21683301.2504    2445220.86749   1904797.24647  21683300.7934   21683307.6004
       236.0004        195.0004
  21317047.2794   -2322927.35949  -1794314.87547  21317047.1054   21317053.0764
       237.0004        199.0004
  20563062.6534    -339272.56349   -250697.82947  20563062.2684   20563068.9064
       243.0004        210.0004
  20748351.3764     264135.53249    213035.84847  20748350.6764   20748357.0324
       239.0004        204.0004
  21699213.9374    2406604.06149   1874984.09447  21699214.0174   21699219.5414
       236.0004        198.0004
 07  2 17 18 51 55.0000000  0  9G21G 2G30G 7G 5G 6G24G10G12
  23524595.9514   -2706849.45049  -2083331.37045  23524595.5214   23524601.3274
       216.0004        159.0004
  22773426.4084    2502219.65549   1924960.22546  22773426.6354   22773431.3044
       223.0004        174.0004
  20721434.3744     586112.71149    465635.69547  20721434.5894   20721440.2854
       242.0004        208.0004
  21991802.6274   -2741267.08749  -1788057.25546  21991801.9824   21991809.5754
       232.0004        186.0004
  21685943.9284    2459108.13249   1915618.48947  21685943.5844   21685950.0574
       236.0004        195.0004
  21315304.3034   -2332086.68349  -1801452.00447  21315304.2324   21315310.3674
       237.0004        199.0004
  20563183.0974    -338639.61949   -250204.62547  20563182.9354   20563189.3444
       243.0004        210.0004
  20749173.2854     268454.69149    216401.42647  20749172.5874   20749179.1464
       239.0004        204.0004
  21701829.7754    2420350.25449   1885695.41147  21701829.9464   21701835.5764
       237.0004        198.0004
 07  2 17 18 52  0.0000000  0  9G21G 2G30G 7G 5G 6G24G10G12
  23522429.6774   -2718233.25349  -2092201.84945  23522428.7714   23522434.7424
       217.0004        159.0004
  22775936.8884    2515412.13149   1935240.08246  22775936.6174   22775941.6694
       223.0004        174.0004
  20722532.1814     591881.60649    470130.94047  20722532.2794   20722537.8314
       242.0004        208.0004
  21989660.0144   -2752526.70149  -1796830.96846  21989659.2164   21989666.3174
       231.0004        186.0004
  21688588.4764    2473005.20249   1926447.37347  21688587.9934   21688594.6804
       236.0004        195.0004
  21313562.2914   -2341241.03549  -1808585.25947  21313561.8984   21313568.1104
       237.0004        199.0004
  20563305.1254    -337998.41649   -249704.98147  20563304.8604   20563311.4444
       242.0004        210.0004
  20749998.4554     272791.01349    219780.38147  20749997.6764   20750004.3564
       239.0004        204.0004
  21704447.5274    2434106.70649   1896414.72747  21704447.7044   21704453.2614
       237.0004        198.0004
 07  2 17 18 52  5.0000000  0  9G21G 2G30G 7G 5G 6G24G10G12
  23520264.2194   -2729612.71749  -2101068.94845  23520263.1614   23520269.5404
       217.0004        159.0004
  22778447.7044    2528606.47749   1945521.37646  22778447.1694   22778451.8874
       223.0004        174.0004
  20723632.9844     597666.37049    474638.54847  20723633.1774   20723638.8744
       242.0004        208.0004
  21987517.9174   -2763783.48749  -1805602.49146  21987517.3194   21987524.1534
       232.0004        186.0004
  21691234.8574    2486912.00849   1937283.84747  21691234.3814   21691240.9574
       236.0004        195.0004
  21311821.1984   -2350390.55549  -1815714.75247  21311821.0634   21311827.0614
       236.0004        199.0004
  20563428.7114    -337349.03549   -249198.97047  20563428.4954   20563434.9824
       242.0004        210.0004
  20750826.8764     277144.39849    223172.63347  20750826.0624   20750832.7664
       239.0004        204.0004
  21707067.2374    2447873.32849   1907141.95747  21707067.4704   21707072.9344
       237.0004        198.0004
 07  2 17 18 52 10.0000000  0  9G21G 2G30G 7G 5G 6G24G10G12
  23518099.6144   -2740987.67249  -2109932.53645  23518098.5394   23518106.2344
       216.0004        159.0004
  22780958.9184    2541802.85549   1955804.26346  22780958.4714   22780962.9164
       223.0004        174.0004
  20724736.8174     603467.17149    479158.65147  20724737.0734   20724742.5844
       242.0004        208.0004
  21985376.4044   -2775037.30049  -1814371.68646  21985376.2014   21985382.9394
       232.0004        186.0004
  21693883.1144    2500828.76149   1948128.06547  21693882.5084   21693889.3294
       236.0004        194.0004
  21310081.0864   -2359535.02149  -1822840.30947  21310080.6784   21310086.9524
       236.0004        199.0004
  20563553.8794    -336691.29449   -248686.44547  20563553.6284   20563560.0864
       242.0004        210.0004
  20751658.5774     281515.02249    226578.31547  20751657.7764   20751664.2434
       239.0004        204.0004
  21709688.8974    2461650.28749   1917877.24547  21709689.1854   21709694.2894
       237.0004        198.0004
 07  2 17 18 52 15.0000000  0  9G21G 2G30G 7G 5G 6G24G10G12
  23515935.8764   -2752358.27449  -2118792.72745  23515934.8774   23515942.1614
       215.0004        159.0004
  22783470.4924    2555001.17349   1966088.66446  22783470.4024   22783473.8894
       224.0004        174.0004
  20725843.7074     609283.87249    483691.14047  20725843.8774   20725849.4484
       242.0004        208.0004
  21983235.4534   -2786288.18449  -1823138.61046  21983235.2334   21983241.9134
       231.0004        186.0004
  21696533.2564    2514755.29349   1958979.90047  21696533.0334   21696539.5354
       236.0004        194.0004
  21308341.8674   -2368674.58249  -1829962.04247  21308341.6724   21308347.7924
       236.0004        199.0004
  20563680.6224    -336025.30049   -248167.48947  20563680.3804   20563686.8674
       242.0004        210.0004
  20752493.5524     285902.77749    229997.34147  20752492.7284   20752499.3344
       239.0004        204.0004
  21712312.5154    2475437.43749   1928620.47647  21712312.4594   21712318.0844
       236.0004        198.0004
 07  2 17 18 52 20.0000000  0  9G21G 2G30G 7G 5G 6G24G10G12
  23513772.9444   -2763724.48249  -2127649.50145  23513771.7854   23513778.3914
       217.0004        159.0004
  22785982.4284    2568201.35049   1976374.51346  22785982.2734   22785987.3244
       223.0004        174.0004
  20726953.5994     615116.39849    488235.97047  20726953.7984   20726959.4294
       243.0004        208.0004
  21981095.0244   -2797536.22049  -1831903.30246  21981094.9854   21981101.2614
       232.0004        186.0004
  21699185.2444    2528691.50549   1969839.28747  21699184.6074   21699191.6934
       236.0004        194.0004
  21306603.6154   -2377809.19149  -1837079.91147  21306603.4454   21306609.5434
       237.0004        199.0004
  20563808.8904    -335351.14149   -247642.16847  20563808.4224   20563815.2764
       242.0004        210.0004
  20753331.7554     290307.59249    233429.66847  20753330.8884   20753337.5634
       239.0004        204.0004
  21714938.0684    2489234.78149   1939371.65047  21714938.4314   21714943.7604
       236.0004        198.0004
 07  2 17 18 52 25.0000000  0  9G21G 2G30G 7G 5G 6G24G10G12
  23511610.7874   -2775086.60449  -2136503.09345  23511609.4124   23511616.7244
       215.0004        159.0004
  22788494.6544    2581403.05149   1986661.55046  22788494.4144   22788499.2454
       224.0004        174.0004
  20728066.4564     620964.48049    492792.92047  20728066.6884   20728072.2464
       243.0004        208.0004
  21978955.0874   -2808781.67049  -1840665.98546  21978954.7664   21978961.7004
       231.0004        186.0004
  21701839.0314    2542637.13849   1980706.01147  21701838.7604   21701845.4204
       236.0004        194.0004
  21304866.2394   -2386939.21249  -1844194.20747  21304866.0284   21304872.0234
       236.0004        199.0004
  20563938.6914    -334669.08549   -247110.69047  20563938.3224   20563944.8914
       242.0004        210.0004
  20754173.1634     294729.20649    236875.08547  20754172.4954   20754178.7394
       239.0004        204.0004
  21717565.5004    2503041.95149   1950130.48647  21717565.7524   21717571.2514
       236.0004        198.0004
 07  2 17 18 52 30.0000000  0  9G21G 2G30G 7G 5G 6G24G10G12
  23509449.4874   -2786444.25349  -2145353.18945  23509448.4774   23509455.1734
       217.0004        159.0004
  22791007.2394    2594606.74549   1996950.13746  22791007.0344   22791011.6914
       224.0004        174.0004
  20729182.3724     626828.49549    497362.27647  20729182.6354   20729188.0164
       242.0004        208.0004
  21976815.6864   -2820024.18749  -1849426.38446  21976814.9684   21976821.8604
       232.0004        186.0004
  21704494.6514    2556592.55949   1991580.36147  21704494.0814   21704501.0184
       237.0004        194.0004
  21303129.7984   -2396064.21549  -1851304.59647  21303129.6304   21303135.7514
       236.0004        199.0004
  20564070.0484    -333978.77449   -246572.78747  20564069.5714   20564076.3684
       243.0004        210.0004
  20755017.8544     299167.96349    240333.85647  20755016.9514   20755023.4774
       239.0004        204.0004
  21720194.8584    2516859.33949   1960897.27647  21720194.8724   21720200.3294
       237.0004        198.0004
 07  2 17 18 52 35.0000000  0  9G21G 2G30G 7G 5G 6G24G10G12
  23507289.0384   -2797797.26249  -2154199.66445  23507288.9524   23507295.2994
       217.0004        159.0004
  22793520.2594    2607812.59249   2007240.39546  22793520.2844   22793524.3254
       223.0004        174.0004
  20730301.3294     632708.64649    501944.21047  20730301.5214   20730306.8664
       243.0004        208.0004
  21974676.8984   -2831263.49949  -1858184.29146  21974676.3684   21974683.0944
       231.0004        186.0004
  21707152.1834    2570557.95249   2002462.48247  21707151.4724   21707158.3864
       236.0004        194.0004
  21301394.3844   -2405183.98549  -1858410.90447  21301393.7724   21301400.0904
       238.0004        199.0004
  20564203.0194    -333279.99649   -246028.28647  20564202.7094   20564209.2724
       243.0004        210.0004
  20755865.8164     303624.08649    243806.15847  20755864.9444   20755871.3924
       239.0004        204.0004
  21722826.1954    2530687.13649   1971672.17847  21722826.6004   21722831.8284
       236.0004        198.0004
 07  2 17 18 52 40.0000000  0  9G21G 2G30G 7G 5G 6G24G10G12
  23505129.4214   -2809146.07549  -2163042.88945  23505128.6184   23505135.9434
       220.0004        159.0004
  22796033.6124    2621020.18049   2017532.02046  22796032.9354   22796037.6264
       224.0004        174.0004
  20731423.2794     638604.49149    506538.37547  20731423.5544   20731429.0044
       243.0004        208.0004
  21972538.6384   -2842500.06649  -1866940.04846  21972538.1884   21972545.2724
       232.0004        186.0004
  21709811.5324    2584532.91249   2013352.05747  21709810.9914   21709818.0164
       237.0004        194.0004
  21299659.8374   -2414298.97949  -1865513.49547  21299659.4734   21299665.5634
       236.0004        199.0004
  20564337.5304    -332573.17649   -245477.51747  20564337.1364   20564343.9804
       242.0004        210.0004
  20756717.0054     308097.15649    247291.66947  20756716.2044   20756722.8384
       239.0004        204.0004
  21725459.4534    2544524.90749   1982454.85347  21725459.6774   21725465.1394
       237.0004        198.0004
 07  2 17 18 52 45.0000000  0  9G21G 2G30G 7G 5G 6G24G10G12
  23502970.6294   -2820490.51049  -2171882.70045  23502970.2324   23502976.6014
       219.0004        159.0004
  22798547.3234    2634229.69849   2027825.15546  22798547.2344   22798552.1334
       223.0004        174.0004
  20732548.2414     644516.23349    511144.92847  20732548.3454   20732554.1104
       243.0004        208.0004
  21970400.9604   -2853733.66349  -1875693.49646  21970400.4284   21970407.3854
       232.0004        187.0004
  21712472.7114    2598517.58649   2024249.20247  21712472.3684   21712479.2654
       236.0004        194.0004
  21297926.2584   -2423408.96149  -1872612.17947  21297926.1034   21297931.9164
       237.0004        199.0004
  20564473.6094    -331858.13249   -244920.33547  20564473.3014   20564479.8194
       242.0004        210.0004
  20757571.4804     312587.34049    250790.51947  20757570.7634   20757577.3114
       239.0004        204.0004
  21728094.6634    2558372.84249   1993245.45147  21728095.1534   21728100.2094
       236.0004        198.0004
 07  2 17 18 52 50.0000000  0  9G21G 2G30G 7G 5G 6G24G10G12
  23500812.6924   -2831830.56149  -2180719.08845  23500811.3974   23500818.2794
       218.0004        159.0004
  22801061.3734    2647441.02749   2038119.67846  22801061.6834   22801065.2184
       224.0004        174.0004
  20733676.2054     650443.77249    515763.79047  20733676.2254   20733681.8784
       242.0004        208.0004
  21968263.7994   -2864964.45449  -1884444.75846  21968262.8784   21968269.9774
       232.0004        187.0004
  21715135.7314    2612511.87649   2035153.83747  21715134.8554   21715141.9724
       237.0004        194.0004
  21296193.6204   -2432514.08749  -1879707.07647  21296193.2124   21296199.3764
       236.0004        199.0004
  20564611.2184    -331134.96049   -244356.82347  20564610.8164   20564617.6344
       242.0004        210.0004
  20758429.1574     317094.52749    254302.61447  20758428.3194   20758434.8174
       239.0004        204.0004
  21730731.7524    2572230.83649   2004043.88347  21730731.9174   21730737.4544
       236.0004        198.0004
 07  2 17 18 52 55.0000000  0  9G21G 2G30G 7G 5G 6G24G10G12
  23498655.5814   -2843166.16649  -2189552.01645  23498654.4804   23498660.8454
       217.0004        159.0004
  22803575.7504    2660654.19949   2048415.65446  22803575.7434   22803579.7594
       224.0004        174.0004
  20734807.1954     656387.18549    520395.02047  20734807.3724   20734812.9584
       242.0004        208.0004
  21966127.1974   -2876192.27149  -1893193.70246  21966127.0074   21966133.5814
       232.0004        187.0004
  21717800.5964    2626515.83049   2046066.01047  21717799.9804   21717806.7924
       236.0004        194.0004
  21294461.9024   -2441614.19849  -1886798.06847  21294461.4914   21294467.8494
       237.0004        199.0004
  20564750.3784    -330403.62949   -243786.95547  20564749.9504   20564756.7674
       243.0004        210.0004
  20759290.0924     321618.77349    257828.00247  20759289.2034   20759295.9334
       239.0004        204.0004
  21733370.7864    2586098.93049   2014850.18847  21733370.9604   21733376.4224
       237.0004        198.0004
 07  2 17 18 53  0.0000000  0  9G21G 2G30G 7G 5G 6G24G10G12
  23496499.3144   -2854497.41149  -2198381.54345  23496498.7924   23496504.8144
       218.0004        159.0004
  22806090.5064    2673869.25449   2058713.09746  22806090.1624   22806095.5884
       224.0004        174.0004
  20735941.1864     662346.39049    525038.55547  20735941.4264   20735947.0414
       242.0004        208.0004
  21963991.1644   -2887417.12949  -1901940.33546  21963990.7464   21963997.5674
       231.0004        187.0004
  21720467.3064    2640529.39649   2056985.66747  21720466.7544   21720473.6954
       237.0004        194.0004
  21292731.1604   -2450709.38149  -1893885.21847  21292730.7294   21292736.8134
       237.0004        199.0004
  20564891.0694    -329664.14249   -243210.73247  20564890.7324   20564897.5474
       242.0004        210.0004
  20760154.2684     326160.05749    261366.66747  20760153.2054   20760159.9374
       239.0004        204.0004
  21736011.7104    2599977.11049   2025664.34947  21736012.1024   21736017.4044
       236.0004        198.0004
 07  2 17 18 53  5.0000000  0  9G21G 2G30G 7G 5G 6G24G10G12
  23494343.8354   -2865824.37949  -2207207.73745  23494343.4054   23494350.5754
       218.0004        159.0004
  22808605.6004    2687086.03549   2069011.88646  22808605.0914   22808610.2204
       224.0004        174.0004
  20737078.1854     668321.25249    529694.29447  20737078.2694   20737084.0774
       242.0004        208.0004
  21961855.6864   -2898639.22649  -1910684.82046  21961854.9344   21961862.0804
       231.0004        187.0004
  21723135.7964    2654552.48949   2067912.75947  21723135.1164   21723141.9644
       237.0004        194.0004
  21291001.3324   -2459799.69549  -1900968.57547  21291001.1374   21291007.3114
       236.0004        199.0004
  20565033.3084    -328916.65349   -242628.26547  20565032.9844   20565039.7104
       242.0004        210.0004
  20761021.6724     330718.26349    264918.52247  20761020.8944   20761027.2444
       239.0004        203.0004
  21738654.5704    2613865.23249   2036486.26147  21738654.7724   21738659.9844
       236.0004        198.0004
 07  2 17 18 53 10.0000000  0  9G21G 2G30G 7G 5G 6G24G10G12
  23492189.2604   -2877146.73149  -2216030.33945  23492188.3464   23492195.6694
       219.0004        159.0004
  22811121.0834    2700304.85949   2079312.26346  22811121.0104   22811124.8534
       224.0004        174.0004
  20738218.2154     674312.14349    534362.51447  20738218.4104   20738224.1294
       242.0004        208.0004
  21959720.7824   -2909858.17849  -1919426.85846  21959720.1724   21959727.0304
       231.0004        187.0004
  21725806.1794    2668585.39849   2078847.48047  21725805.8484   21725812.6394
       237.0004        194.0004
  21289272.4904   -2468884.80049  -1908047.88347  21289272.4134   21289278.2644
       236.0004        199.0004
  20565177.1414    -328160.79549   -242039.28947  20565176.7944   20565183.4344
       241.0004        210.0004
  20761892.3474     335293.73849    268483.82347  20761891.3124   20761897.9734
       239.0004        203.0004
  21741299.3584    2627763.61149   2047316.16247  21741299.6014   21741304.9004
       236.0004        198.0004
 07  2 17 18 53 15.0000000  0 10G21G 2G30G 7G 5G 6G24G29G10G12
  23490035.4204   -2888465.10149  -2224849.83445  23490034.8474   23490041.9604
       219.0004        159.0004
  22813636.8364    2713525.16149   2089613.78646  22813636.5084   22813641.2774
       224.0004        174.0004
  20739361.1614     680318.45549    539042.75947  20739361.3094   20739366.8424
       243.0004        208.0004
  21957586.3474   -2921074.59049  -1928166.91746  21957585.8004   21957592.2354
       231.0004        187.0004
  21728478.3404    2682627.54149   2089789.40847  21728477.6284   21728484.7764
       236.0004        194.0004
  21287544.5344   -2477965.29649  -1915123.59147  21287544.0804   21287550.3514
       236.0004        199.0004
  20565322.4624    -327397.18649   -241444.27047  20565322.1944   20565328.7804
       242.0004        210.0004
                  -1307186.90559   -994547.48244                  24344442.4944
       206.0004        117.0004
  20762766.1764     339885.83449    272062.08247  20762765.5074   20762771.7794
       239.0004        203.0004
  21743945.9884    2641671.63849   2058153.57947  21743946.3494   21743951.7004
       236.0004        198.0004
 07  2 17 18 53 20.0000000  0 10G21G 2G30G 7G 5G 6G24G29G10G12
  23487882.4564   -2899778.99949  -2233665.84445  23487882.7274   23487888.4784
       218.0004        159.0004
  22816152.9474    2726747.37149   2099916.80846  22816152.8164   22816157.4304
       224.0004        174.0004
  20740507.1544     686340.63649    543735.36747  20740507.5054   20740513.1494
       243.0004        208.0004
  21955452.5274   -2932287.93349  -1936904.58546  21955451.9974   21955459.0354
       232.0004        187.0004
  21731152.2974    2696679.31849   2100738.84147  21731151.5974   21731158.6874
       236.0004        194.0004
  21285817.5314   -2487040.71049  -1922195.33847  21285817.0064   21285823.2244
       237.0004        199.0004
  20565469.3214    -326625.38949   -240842.86647  20565468.9424   20565475.7044
       242.0004        210.0004
                  -1320120.70549  -1004625.77244                  24341981.5864
       205.0004        122.0004
  20763643.2764     344495.02749    275653.66347  20763642.5794   20763649.0884
       239.0004        204.0004
  21746594.5094    2655589.76749   2068998.87247  21746594.8364   21746600.1264
       236.0004        198.0004
 07  2 17 18 53 25.0000000  0 10G21G 2G30G 7G 5G 6G24G29G10G12
  23485730.3674   -2911088.25349  -2242478.23645  23485729.1984   23485736.7254
       219.0004        159.0004
  22818669.4254    2739971.64049   2110221.43246  22818669.2744   22818673.6164
       223.0004        174.0004
  20741656.1944     692378.85749    548440.47447  20741656.6404   20741662.2024
       242.0004        208.0004
  21953319.2884   -2943498.04049  -1945639.72146  21953318.8244   21953325.7444
       232.0004        187.0004
  21733828.1334    2710740.93049   2111695.94147  21733827.3944   21733834.5824
       236.0004        194.0004
  21284091.5514   -2496110.87649  -1929262.99647  21284091.0704   21284097.4124
       236.0004        199.0004
  20565617.7794    -325845.19349   -240234.91847  20565617.4894   20565624.3104
       242.0004        210.0004
                  -1333053.09349  -1014702.94744                  24339519.7564
       206.0004        125.0004
  20764523.6754     349121.50349    279258.71447  20764522.7104   20764529.2734
       239.0004        204.0004
  21749245.0154    2669518.17849   2079852.17747  21749245.2114   21749250.6004
       236.0004        197.0004
 07  2 17 18 53 30.0000000  0 10G21G 2G30G 7G 5G 6G24G29G10G12
  23483579.0834   -2922393.29749  -2251287.35245  23483578.0074   23483584.2094
       218.0004        159.0004
  22821186.2444    2753197.55049   2120527.32546  22821185.9724   22821190.2774
       223.0004        174.0004
  20742808.2084     698432.69149    553157.74647  20742808.4134   20742813.8554
       243.0004        208.0004
  21951186.6244   -2954705.33649  -1954372.67746  21951185.7104   21951193.5054
       232.0004        187.0004
  21736505.7934    2724811.96349   2122660.37547  21736505.2014   21736512.0874
       236.0004        194.0004
  21282366.4764   -2505176.20549  -1936326.88547  21282366.2144   21282372.0764
       237.0004        199.0004
  20565767.7744    -325057.03649   -239620.77147  20565767.3564   20565774.1534
       242.0004        210.0004
                  -1345984.44649  -1024779.31844                  24337059.1824
       204.0004        126.0004
  20765407.2574     353764.81849    282876.88247  20765406.6784   20765412.9434
       239.0004        203.0004
  21751897.3844    2683456.42549   2090713.14347  21751897.6854   21751903.1094
       236.0004        197.0004
 07  2 17 18 53 35.0000000  0 10G21G 2G30G 7G 5G 6G24G29G10G12
  23481428.5904   -2933694.31449  -2260093.32945  23481428.1664   23481434.1974
       217.0004        160.0004
  22823703.3194    2766424.93749   2130834.37446  22823703.2994   22823707.3884
       223.0004        174.0004
  20743963.1454     704501.95849    557887.04547  20743963.5134   20743969.0254
       243.0004        208.0004
  21949054.4214   -2965910.04549  -1963103.61146  21949054.1264   21949060.7434
       231.0004        187.0004
  21739185.1714    2738892.18349   2133631.97047  21739184.6564   21739191.4804
       236.0004        194.0004
  21280642.2794   -2514236.83749  -1943387.11747  21280641.8984   21280647.9944
       236.0004        199.0004
  20565919.2374    -324261.11149   -239000.56847  20565918.9314   20565925.7444
       242.0004        210.0004
  24334591.0444   -1358914.97749  -1034855.04244  24334589.8944   24334598.9934
       204.0004        128.0004
  20766294.0404     358424.80149    286508.03647  20766293.0444   20766299.9154
       239.0004        203.0004
  21754551.5744    2697404.29749   2101581.61247  21754551.5974   21754557.1564
       236.0004        197.0004
 07  2 17 18 53 40.0000000  0 10G21G 2G30G 7G 5G 6G24G29G10G12
  23479278.9054   -2944990.93949  -2268895.88645  23479277.9044   23479284.6964
       219.0004        160.0004
  22826220.7414    2779654.14649   2141142.85046  22826220.1774   22826224.9894
       223.0004        174.0004
  20745121.1024     710587.04249    562628.66947  20745121.4314   20745126.8064
       242.0004        208.0004
  21946922.8194   -2977111.72049  -1971832.18646  21946921.9424   21946929.0174
       231.0004        187.0004
  21741866.3854    2752981.96949   2144611.02647  21741865.9994   21741872.5454
       236.0004        194.0004
  21278919.0754   -2523292.42449  -1950443.41147  21278918.9614   21278924.9214
       236.0004        199.0004
  20566072.2404    -323457.04949   -238374.02347  20566071.7954   20566078.6064
       242.0004        210.0004
  24332130.5884   -1371844.29549  -1044929.82644  24332128.5984   24332136.9574
       205.0004        129.0004
  20767184.0214     363101.80349    290152.46047  20767183.3084   20767189.9574
       238.0004        203.0004
  21757207.6904    2711362.21149   2112457.91047  21757207.8184   21757213.2714
       236.0004        197.0004
 07  2 17 18 53 45.0000000  0 10G21G 2G30G 7G 5G 6G24G29G10G12
  23477130.0494   -2956283.28249  -2277695.10245  23477129.8614   23477135.3334
       220.0004        159.0004
  22828738.5144    2792885.07549   2151452.66146  22828738.3434   22828743.4444
       223.0004        174.0004
  20746282.0404     716687.76549    567382.48047  20746282.4084   20746287.9134
       242.0004        208.0004
  21944791.7464   -2988310.52949  -1980558.52346  21944790.9574   21944798.1904
       232.0004        187.0004
  21744549.3694    2767081.18349   2155597.42247  21744548.9624   21744555.4814
       236.0004        194.0004
  21277196.7764   -2532343.12549  -1957495.90247  21277196.4434   21277202.3274
       237.0004        199.0004
  20566226.7704    -322644.99949   -237741.25547  20566226.4584   20566233.1684
       242.0004        210.0004
  24329670.3274   -1384772.53249  -1055003.77344  24329670.7194   24329676.1214
       205.0004        130.0004
  20768077.2504     367795.68449    293810.03247  20768076.5704   20768082.8974
       239.0004        203.0004
  21759865.6594    2725330.01649   2123341.90847  21759865.7484   21759870.9004
       236.0004        197.0004
 07  2 17 18 53 50.0000000  0 10G21G 2G30G 7G 5G 6G24G29G10G12
  23474982.0464   -2967571.12549  -2286490.81045  23474980.6794   23474988.5154
       219.0004        159.0004
  22831256.6094    2806117.91749   2161763.95546  22831256.2104   22831260.9124
       223.0004        173.0004
  20747445.9874     722804.32149    572148.62647  20747446.1724   20747451.9654
       242.0004        208.0004
  21942661.2664   -2999506.20549  -1989282.43046  21942660.4824   21942668.1594
       231.0004        187.0004
  21747234.2154    2781190.00949   2166591.30547  21747233.7834   21747240.2724
       237.0004        194.0004
  21275475.4594   -2541388.66449  -1964544.37147  21275475.1854   21275481.0564
       237.0004        199.0004
  20566382.8504    -321824.74749   -237102.10147  20566382.4704   20566389.3154
       242.0004        210.0004
  24327210.4064   -1397699.39749  -1065076.64844  24327211.2524   24327216.8774
       204.0004        131.0004
  20768973.7204     372506.66249    297480.92347  20768972.8894   20768979.1164
       240.0004        203.0004
  21762525.5714    2739307.86449   2134233.73147  21762525.5374   21762531.1184
       236.0004        197.0004
 07  2 17 18 53 55.0000000  0 10G21G 2G30G 7G 5G 6G24G29G10G12
  23472834.8684   -2978854.69349  -2295283.18645  23472833.9554   23472840.0614
       218.0004        159.0004
  22833775.0624    2819352.46249   2172076.58946  22833775.4264   22833778.7564
       224.0004        173.0004
  20748612.9164     728936.51949    576926.96347  20748613.1444   20748618.7054
       242.0004        208.0004
  21940531.3464   -3010699.00149  -1998004.08146  21940531.1464   21940537.6764
       231.0004        187.0004
  21749920.8524    2795308.24249   2177592.52847  21749920.7034   21749927.2734
       237.0004        194.0004
  21273755.0854   -2550429.23849  -1971588.96947  21273755.0364   21273760.9334
       236.0004        199.0004
  20566540.4694    -320996.50949   -236456.71847  20566540.1314   20566546.9154
       242.0004        210.0004
  24324750.6564   -1410625.14249  -1075148.64644  24324750.6764   24324757.2164
       206.0004        131.0004
  20769873.3964     377234.51549    301164.96747  20769872.6864   20769879.0494
       239.0004        203.0004
  21765187.3514    2753295.58449   2145133.25347  21765187.5444   21765193.1124
       235.0004        197.0004
 07  2 17 18 54  0.0000000  0 10G21G 2G30G 7G 5G 6G24G29G10G12
  23470688.4574   -2990134.20649  -2304072.40145  23470688.1614   23470694.1564
       220.0004        159.0004
  22836293.8104    2832588.49449   2182390.37546  22836294.1034   22836298.2054
       224.0004        173.0004
  20749782.7744     735084.17149    581717.34147  20749782.8144   20749788.4524
       243.0004        208.0004
  21938401.9494   -3021889.06449  -2006723.60546  21938401.3614   21938408.3904
       232.0004        187.0004
  21752609.2254    2809435.64849   2188600.89147  21752608.6724   21752615.1214
       237.0004        194.0004
  21272035.6234   -2559465.05049  -1978629.86247  21272035.0974   21272041.2864
       237.0004        199.0004
  20566699.5714    -320160.48549   -235805.26847  20566699.2304   20566705.7874
       243.0004        210.0004
  24322291.1124   -1423549.93849  -1085219.90344  24322291.0284   24322299.1264
       203.0004        131.0004
  20770776.2564     381979.06149    304862.02147  20770775.5714   20770781.8324
       240.0004        203.0004
  21767850.9544    2767292.91649   2156040.26247  21767850.9004   21767856.5304
       236.0004        197.0004
 07  2 17 18 54  5.0000000  0 10G21G 2G30G 7G 5G 6G24G29G10G12
  23468542.9204   -3001408.93049  -2312857.88845  23468542.7864   23468548.6734
       219.0004        159.0004
  22838812.9834    2845826.76949   2192705.91546  22838812.8694   22838817.5954
       223.0004        173.0004
  20750955.7144     741247.97349    586520.30147  20750956.0524   20750961.4254
       242.0004        208.0004
  21936273.1714   -3033075.74249  -2015440.49446  21936272.4454   21936279.5214
       231.0004        187.0004
  21755299.4724    2823572.93149   2199616.95147  21755299.3104   21755305.8604
       236.0004        194.0004
  21270317.2124   -2568495.37549  -1985666.47747  21270317.0464   21270323.0924
       237.0004        199.0004
  20566860.2874    -319315.98549   -235147.21847  20566859.8594   20566866.5554
       242.0004        210.0004
  24319831.9154   -1436473.03849  -1095289.84344  24319833.4204   24319840.5064
       206.0004        131.0004
  20771682.4114     386740.97949    308572.60547  20771681.5744   20771687.8344
       239.0004        203.0004
  21770516.4954    2781300.57149   2166955.31347  21770516.6554   21770521.9404
       236.0004        197.0004
 07  2 17 18 54 10.0000000  0 10G21G 2G30G 7G 5G 6G24G29G10G12
  23466398.2154   -3012679.48149  -2321640.12445  23466397.2314   23466404.4554
       219.0004        159.0004
  22841332.4924    2859066.70249   2203022.73846  22841332.9844   22841337.1154
       223.0004        173.0004
  20752131.6194     747427.37249    591335.41847  20752131.8084   20752137.3504
       242.0004        208.0004
  21934144.9814   -3044259.51949  -2024155.11846  21934144.3384   21934151.0354
       232.0004        187.0004
  21757991.5144    2837719.57049   2210640.30847  21757991.0264   21757997.6494
       237.0004        194.0004
  21268599.7474   -2577520.78149  -1992699.25547  21268599.4754   21268605.4744
       237.0004        199.0004
  20567022.4984    -318463.53249   -234482.96847  20567022.4674   20567028.5234
       242.0004        210.0004
  24317372.9304   -1449395.01149  -1105358.90444  24317373.3534   24317380.5774
       207.0004        131.0004
  20772591.8024     391519.72849    312296.31047  20772591.0544   20772597.5204
       239.0004        203.0004
  21773183.9434    2795318.00649   2177877.98847  21773184.2084   21773189.6724
       236.0004        197.0004
 07  2 17 18 54 15.0000000  0 10G21G 2G30G 7G 5G 6G24G29G10G12
  23464254.3274   -3023945.75949  -2330419.02845  23464254.1054   23464260.1654
       218.0004        159.0004
  22843852.2854    2872308.23449   2213340.81046  22843852.2004   22843856.2084
       223.0004        173.0004
  20753310.4964     753622.32349    596162.65447  20753310.6824   20753316.2524
       242.0004        208.0004
  21932017.3074   -3055440.41549  -2032867.50146  21932016.5614   21932024.0524
       232.0004        187.0004
  21760685.2954    2851875.51349   2221670.90947  21760684.7814   21760691.4534
       236.0004        194.0004
  21266883.2144   -2586541.26049  -1999728.19947  21266883.0434   21266888.7934
       236.0004        199.0004
  20567186.2134    -317603.18949   -233812.56747  20567185.8544   20567192.5024
       242.0004        210.0004
  24314914.1934   -1462315.78649  -1115427.03444  24314915.2644   24314921.7754
       207.0004        131.0004
  20773504.3634     396315.26749    316033.09747  20773503.4434   20773510.1164
       238.0004        203.0004
  21775853.2224    2809345.19549   2188808.26047  21775853.7104   21775858.9454
       236.0004        197.0004
 07  2 17 18 54 20.0000000  0 10G21G 2G30G 7G 5G 6G24G29G10G12
  23462111.2234   -3035207.76049  -2339194.60545  23462110.8294   23462117.3114
       220.0004        159.0004
  22846372.3864    2885551.43649   2223660.17846  22846371.6564   22846376.2914
       222.0004        172.0004
  20754492.3354     759832.85349    601002.02447  20754492.7644   20754497.9184
       242.0004        208.0004
  21929890.1874   -3066618.44449  -2041577.64846  21929889.8034   21929896.7694
       232.0004        187.0004
  21763380.8564    2866040.74149   2232708.74647  21763380.4254   21763387.2024
       236.0004        194.0004
  21265167.6294   -2595556.78349  -2006753.27947  21265167.6614   21265173.5664
       237.0004        199.0004
  20567351.4394    -316734.90849   -233135.98747  20567351.0094   20567357.5744
       242.0004        210.0004
  24312455.7164   -1475235.42249  -1125494.27844  24312455.6474   24312463.2144
       207.0004        131.0004
  20774420.1344     401127.61649    319782.98147  20774419.3094   20774425.9244
       239.0004        203.0004
  21778524.3714    2823382.13949   2199746.13347  21778524.5314   21778530.2864
       236.0004        197.0004
 07  2 17 18 54 25.0000000  0 10G21G 2G30G 7G 5G 6G24G29G10G12
  23459969.0284   -3046465.11849  -2347966.55945  23459968.4524   23459975.3854
       218.0004        159.0004
  22848892.8524    2898796.62149   2233981.10046  22848892.8514   22848897.5194
       223.0004        172.0004
  20755677.1854     766059.36149    605853.85147  20755677.3644   20755683.1054
       242.0004        208.0004
  21927763.7014   -3077793.20349  -2050285.24646  21927763.2554   21927770.2904
       232.0004        187.0004
  21766078.2714    2880215.62449   2243754.10947  21766077.8084   21766084.4644
       236.0004        194.0004
  21263453.0744   -2604566.93149  -2013774.16547  21263452.8184   21263458.9434
       237.0004        199.0004
  20567518.2514    -315858.34649   -232452.94647  20567517.9044   20567524.4304
       242.0004        210.0004
  24309997.5074   -1488153.51849  -1135560.32744  24309996.3304   24310005.9424
       205.0004        131.0004
  20775339.1424     405957.14249    323546.25247  20775338.3834   20775344.8804
       238.0004        203.0004
  21781197.4274    2837429.20049   2210691.89247  21781197.7514   21781203.1854
       236.0004        197.0004
 07  2 17 18 54 30.0000000  0 10G21G 2G30G 7G 5G 6G24G29G10G12
  23457827.6764   -3057718.04749  -2356735.05645  23457827.0344   23457833.6014
       219.0004        159.0004
  22851413.6844    2912043.58549   2244303.40046  22851413.2664   22851417.9964
       222.0004        172.0004
  20756865.0604     772301.62749    610717.95547  20756865.2614   20756870.6834
       242.0004        208.0004
  21925637.8194   -3088964.85849  -2058990.42546  21925636.8274   21925644.7164
       232.0004        187.0004
  21768777.4684    2894399.96849   2254806.83947  21768776.9894   21768783.8594
       236.0004        194.0004
  21261739.4734   -2613571.98649  -2020791.08647  21261739.1744   21261745.3664
       237.0004        199.0004
  20567686.5734    -314973.70649   -231763.61547  20567686.2974   20567692.8834
       242.0004        210.0004
  24307539.5784   -1501070.19349  -1145625.25945  24307539.4114   24307546.4064
       207.0004        132.0004
  20776261.4174     410803.65349    327322.75547  20776260.5744   20776267.1994
       239.0004        203.0004
  21783872.3814    2851486.15049   2221645.35747  21783872.7994   21783877.9934
       236.0004        197.0004
 07  2 17 18 54 35.0000000  0 10G21G 2G30G 7G 5G 6G24G29G10G12
  23455687.0994   -3068966.86249  -2365500.35345  23455686.5464   23455692.9664
       218.0004        159.0004
  22853934.7864    2925292.02149   2254626.85746  22853935.1804   22853939.0804
       222.0004        172.0004
  20758055.8554     778559.34249    615594.09447  20758055.9474   20758061.9794
       242.0004        208.0004
  21923512.4524   -3100133.70749  -2067693.42446  21923511.6594   21923519.7364
       232.0004        187.0004
  21771478.3884    2908593.45049   2265866.69047  21771477.8504   21771484.8994
       236.0004        194.0004
  21260026.7704   -2622572.21649  -2027804.25147  21260026.3104   21260032.7134
       236.0004        199.0004
  20567856.4184    -314081.30449   -231068.24147  20567855.9504   20567862.5624
       242.0004        210.0004
  24305081.8304   -1513985.80449  -1155689.37445  24305081.6524   24305088.4484
       204.0004        132.0004
  20777186.8614     415666.82749    331112.24347  20777185.8844   20777192.5164
       239.0004        203.0004
  21786549.1714    2865552.68849   2232606.29047  21786549.6764   21786554.7944
       236.0004        197.0004
 07  2 17 18 54 40.0000000  0 10G21G 2G30G 7G 5G 6G24G29G10G12
  23453547.3654   -3080211.21449  -2374262.17445  23453546.5984   23453553.2064
       218.0004        159.0004
  22856456.2424    2938542.24849   2264951.70746  22856456.7944   22856460.5024
       224.0004        172.0004
  20759249.6784     784832.79549    620482.50047  20759249.9604   20759255.6544
       242.0004        208.0004
  21921387.6794   -3111299.44649  -2076393.98846  21921387.2694   21921394.4214
       232.0004        187.0004
  21774181.1154    2922796.39649   2276933.92047  21774180.5094   21774187.0704
       236.0004        194.0004
  21258315.0824   -2631567.27749  -2034813.38547  21258314.7354   21258321.1154
       236.0004        199.0004
  20568027.7574    -313180.81649   -230366.55647  20568027.4314   20568034.1124
       242.0004        210.0004
  24302624.3394   -1526899.95549  -1165752.34445  24302623.9244   24302631.4584
       207.0004        132.0004
  20778115.5294     420546.99949    334914.98247  20778114.5814   20778121.3334
       239.0004        203.0004
  21789227.8634    2879629.24349   2243575.03247  21789227.9614   21789233.3224
       236.0004        197.0004
 07  2 17 18 54 45.0000000  0 10G21G 2G30G 7G 5G 6G24G29G10G12
  23451408.4714   -3091451.14949  -2383020.55345  23451407.3694   23451415.3314
       217.0004        159.0004
  22858978.0514    2951794.22549   2275277.91646  22858977.9594   22858982.3544
       223.0004        172.0004
  20760446.4674     791121.96749    625383.15447  20760446.6424   20760452.3224
       242.0004        208.0004
  21919263.5184   -3122462.08849  -2085092.14346  21919263.1504   21919269.8854
       232.0004        187.0004
  21776885.6314    2937008.73049   2288008.46347  21776884.9664   21776891.6084
       236.0004        193.0004
  21256604.3654   -2640557.16349  -2041818.48647  21256603.8494   21256610.2094
       236.0004        199.0004
  20568200.6464    -312272.25649   -229658.58647  20568200.4114   20568206.9124
       242.0004        210.0004
  24300167.1234   -1539812.67149  -1175814.19745  24300168.0544   24300173.9624
       205.0004        132.0004
  20779047.4164     425444.11349    338730.91747  20779046.5154   20779052.8644
       239.0004        203.0004
  21791908.4204    2893715.64949   2254551.44547  21791908.8254   21791914.1144
       236.0004        197.0004
 07  2 17 18 54 50.0000000  0 10G21G 2G30G 7G 5G 6G24G29G10G12
  23449270.3944   -3102686.76449  -2391775.56345  23449268.4394   23449276.2564
       217.0004        159.0004
  22861500.1424    2965047.91549   2285605.46546  22861499.7234   22861504.2034
       223.0004        171.0004
  20761646.2254     797426.77049    630295.98447  20761646.3214   20761651.7454
       242.0004        208.0004
  21917139.9074   -3133621.67449  -2093787.92946  21917139.5104   21917146.2774
       231.0004        187.0004
  21779591.9204    2951230.35949   2299090.24447  21779591.5234   21779597.9874
       236.0004        193.0004
  21254894.5824   -2649541.99049  -2048819.65147  21254894.0134   21254900.4944
       236.0004        199.0004
  20568375.0624    -311355.70849   -228944.39547  20568374.7404   20568381.3984
       242.0004        210.0004
  24297710.1744   -1552724.03649  -1185874.99345  24297710.6554   24297718.4714
       206.0004        132.0004
  20779982.5154     430358.08949    342559.98947  20779981.5384   20779988.1254
       239.0004        203.0004
  21794590.8454    2907811.79149   2265535.44947  21794591.0694   21794596.5324
       236.0004        197.0004
 07  2 17 18 54 55.0000000  0 10G21G 2G30G 7G 5G 6G24G29G10G12
  23447133.0994   -3113918.21749  -2400527.33145  23447132.2684   23447139.2154
       216.0004        159.0004
  22864022.5604    2978303.19749   2295934.25746  22864022.7464   22864027.0884
       222.0004        171.0004
  20762848.9224     803747.07049    635220.89647  20762849.0594   20762854.8474
       243.0004        208.0004
  21915016.8584   -3144778.38749  -2102481.46746  21915016.2004   21915023.4824
       232.0004        187.0004
  21782299.9784    2965461.22549   2310179.23347  21782299.4884   21782305.8114
       237.0004        193.0004
  21253185.7874   -2658521.82149  -2055816.91147  21253185.4364   21253191.8584
       237.0004        199.0004
  20568550.9674    -310431.29249   -228224.06647  20568550.8094   20568557.2564
       243.0004        210.0004
  24295253.4554   -1565634.14849  -1195934.81745  24295253.4664   24295263.4974
       207.0004        132.0004
  20780920.7994     435288.82549    346402.12747  20780919.9194   20780926.4974
       240.0004        203.0004
  21797275.1094    2921917.56949   2276526.96147  21797275.4704   21797280.8704
       237.0004        197.0004
 07  2 17 18 55  0.0000000  0 10G21G 2G30G 7G 5G 6G24G29G10G12
  23444996.7094   -3125144.92349  -2409275.39945  23444995.6774   23445002.5854
       217.0004        158.0004
  22866545.3724    2991560.57949   2306264.67146  22866545.1104   22866549.1404
       221.0004        171.0004
  20764054.6824     810083.36049    640158.26647  20764054.4644   20764060.4334
       242.0004        208.0004
  21912894.4624   -3155931.62349  -2111172.29246  21912894.0294   21912900.6544
       232.0004        187.0004
  21785009.8664    2979701.79649   2321275.77947  21785009.1624   21785016.0054
       236.0004        193.0004
  21251478.0084   -2667496.19549  -2062809.92647  21251477.5184   21251483.7534
       238.0004        199.0004
  20568728.4924    -309498.49949   -227497.21447  20568728.2264   20568734.7824
       242.0004        210.0004
  24292797.0724   -1578542.49749  -1205993.26745  24292796.9074   24292806.2934
       206.0004        132.0004
  20781862.3564     440236.81749    350257.70947  20781861.3574   20781867.7994
       239.0004        203.0004
  21799961.2934    2936033.48549   2287526.37447  21799961.5214   21799966.6694
       236.0004        197.0004
 07  2 17 18 55  5.0000000  0 10G21G 2G30G 7G 5G 6G24G29G10G12
  23442861.1074   -3136367.31749  -2418020.10445  23442860.3164   23442867.5854
       219.0004        158.0004
  22869068.5144    3004819.73449   2316596.47946  22869068.4034   22869072.6424
       221.0004        171.0004
  20765263.4484     816435.39549    645107.89647  20765263.6474   20765269.2094
       242.0004        208.0004
  21910772.6634   -3167081.65749  -2119860.62646  21910772.2184   21910779.1904
       232.0004        187.0004
  21787721.5544    2993951.77349   2332379.65247  21787721.0854   21787727.7704
       236.0004        193.0004
  21249771.2404   -2676465.29049  -2069798.83347  21249771.1904   21249777.0384
       237.0004        199.0004
  20568907.5454    -308557.60249   -226764.05047  20568907.2324   20568913.9454
       242.0004        210.0004
  24290340.9884   -1591449.32449  -1216050.52845  24290340.9774   24290349.6474
       206.0004        132.0004
  20782807.1624     445201.77949    354126.50747  20782806.2134   20782812.8954
       239.0004        203.0004
  21802649.3404    2950159.26349   2298533.47047  21802649.7604   21802655.2194
       236.0004        197.0004
 07  2 17 18 55 10.0000000  0 10G21G 2G30G 7G 5G 6G24G29G10G12
  23440726.2994   -3147585.68149  -2426761.67745  23440725.0744   23440732.8114
       219.0004        158.0004
  22871591.9114    3018080.32449   2326929.40246  22871591.2174   22871596.3614
       221.0004        171.0004
  20766475.1204     822802.81349    650069.52847  20766475.1084   20766480.9834
       242.0004        208.0004
  21908651.3944   -3178228.91449  -2128546.79546  21908651.3964   21908657.6124
       232.0004        187.0004
  21790434.9454    3008210.75649   2343490.55047  21790434.3864   21790441.0964
       236.0004        193.0004
  21248065.3974   -2685429.52949  -2076783.94547  21248065.1014   21248071.2624
       237.0004        199.0004
  20569088.0444    -307609.01449   -226024.88447  20569087.8274   20569094.4754
       243.0004        210.0004
  24287885.0994   -1604354.95949  -1226106.85445  24287884.9874   24287893.4664
       206.0004        133.0004
  20783755.1294     450183.31649    358008.23247  20783754.2764   20783760.8594
       239.0004        203.0004
  21805339.2134    2964294.50949   2309547.94447  21805339.1984   21805344.9954
       236.0004        197.0004
 07  2 17 18 55 15.0000000  0 10G21G 2G30G 7G 5G 6G24G29G10G12
  23438592.4024   -3158799.28049  -2435499.54145  23438591.5414   23438598.6034
       219.0004        158.0004
  22874115.7104    3031343.00649   2337263.95646  22874115.5594   22874120.1284
       221.0004        171.0004
  20767689.8404     829186.24049    655043.62447  20767689.9574   20767695.6514
       242.0004        208.0004
  21906530.8124   -3189372.71049  -2137230.26746  21906529.8254   21906537.3454
       232.0004        187.0004
  21793150.2144    3022479.41949   2354608.98447  21793149.6064   21793156.5204
       236.0004        193.0004
  21246360.6164   -2694388.27349  -2083764.78547  21246360.1214   21246366.6674
       237.0004        199.0004
  20569270.1464    -306652.04949   -225279.20047  20569269.8914   20569276.5374
       242.0004        210.0004
  24285429.5904   -1617258.77049  -1236161.76845  24285429.2974   24285437.0994
       208.0004        133.0004
  20784706.3794     455182.12049    361903.40747  20784705.4884   20784712.1334
       239.0004        203.0004
  21808030.9974    2978439.89249   2320570.31447  21808031.3044   21808036.6474
       236.0004        197.0004
 07  2 17 18 55 20.0000000  0 10G21G 2G30G 7G 5G 6G24G29G10G12
  23436459.2714   -3170008.91549  -2444234.30445  23436457.5884   23436465.7614
       218.0004        159.0004
  22876639.7704    3044607.06949   2347599.58546  22876639.1524   22876644.9414
       221.0004        171.0004
  20768907.4664     835584.94249    660029.62447  20768907.8044   20768913.3274
       242.0004        208.0004
  21904410.7504   -3200513.72949  -2145911.57846  21904410.3524   21904416.6004
       232.0004        187.0004
  21795867.1334    3036757.00449   2365734.37147  21795866.6264   21795873.3114
       236.0004        193.0004
  21244656.7414   -2703342.16449  -2090741.83847  21244656.2214   21244662.6414
       237.0004        199.0004
  20569453.7264    -305687.44749   -224527.56147  20569453.3044   20569460.0254
       242.0004        210.0004
  24282974.2974   -1630161.42949  -1246215.78245  24282973.6374   24282981.8444
       206.0004        134.0004
  20785660.7684     460197.42949    365811.44247  20785659.7874   20785666.2334
       239.0004        203.0004
  21810724.5804    2992594.66949   2331600.01047  21810724.6104   21810729.8704
       236.0004        197.0004
 07  2 17 18 55 25.0000000  0 10G21G 2G30G 7G 5G 6G24G29G10G12
  23434327.0334   -3181213.89149  -2452965.43945  23434326.2144   23434332.6744
       219.0004        158.0004
  22879164.2214    3057873.10949   2357936.75846  22879164.1844   22879168.6254
       222.0004        171.0004
  20770128.1394     841999.55649    665028.02747  20770128.4694   20770133.9124
       242.0004        208.0004
  21902291.3184   -3211651.34649  -2154590.23246  21902291.0594   21902297.6804
       233.0004        187.0004
  21798585.9094    3051044.15749   2376867.21847  21798585.3534   21798592.0474
       236.0004        193.0004
  21242953.9284   -2712290.58249  -2097714.62447  21242953.6994   21242959.4804
       238.0004        199.0004
  20569638.8684    -304714.57149   -223769.47447  20569638.5464   20569645.0844
       242.0004        210.0004
  24280519.3124   -1643062.32349  -1256268.42245  24280519.5964   24280525.0274
       208.0004        134.0004
  20786618.4204     465229.88149    369732.83847  20786617.4144   20786624.2364
       239.0004        203.0004
  21813420.0644    3006759.47649   2342637.51747  21813420.2534   21813425.4764
       236.0004        197.0004
 07  2 17 18 55 30.0000000  0 10G21G 2G30G 7G 5G 6G24G29G10G12
  23432195.6824   -3192414.37549  -2461693.07645  23432195.4994   23432202.1534
       219.0004        158.0004
  22881688.9914    3071140.85549   2368275.24546  22881688.2274   22881692.9824
       221.0004        171.0004
  20771351.7564     848429.76849    670038.57747  20771352.0124   20771357.3384
       242.0004        208.0004
  21900172.4804   -3222785.87049  -2163266.48246  21900172.1564   21900178.7024
       232.0004        187.0004
  21801306.4254    3065340.56649   2388007.27147  21801305.8804   21801312.4134
       236.0004        193.0004
  21241252.0774   -2721233.81049  -2104683.37547  21241251.9274   21241257.6614
       237.0004        200.0004
  20569825.5044    -303733.71449   -223005.17147  20569825.1064   20569831.8844
       242.0004        210.0004
  24278064.6554   -1655961.68749  -1266319.87345  24278064.6264   24278070.4854
       206.0004        134.0004
  20787579.2494     470279.17749    373667.35347  20787578.5494   20787584.9374
       239.0004        203.0004
  21816117.3924    3020933.98149   2353682.57947  21816117.3964   21816122.6224
       236.0004        197.0004
 07  2 17 18 55 35.0000000  0 10G21G 2G30G 7G 5G 6G24G29G10G12
  23430065.2024   -3203610.10749  -2470417.00645  23430064.0344   23430070.5934
       219.0004        158.0004
  22884214.1344    3084410.60749   2378615.31046  22884213.6494   22884218.7234
       222.0004        170.0004
  20772578.4314     854875.91249    675061.54947  20772578.6134   20772584.1594
       242.0004        207.0004
  21898054.3094   -3233916.93849  -2171940.03746  21898053.5234   21898060.6454
       232.0004        187.0004
  21804028.7734    3079646.51849   2399154.76347  21804028.2954   21804034.9324
       236.0004        193.0004
  21239551.3124   -2730171.52749  -2111647.82647  21239551.2054   21239557.1164
       237.0004        200.0004
  20570013.7424    -302744.59049   -222234.41947  20570013.4964   20570020.1244
       242.0004        210.0004
  24275610.3294   -1668859.25849  -1276369.92845  24275610.8244   24275617.5194
       208.0004        134.0004
  20788543.3844     475345.61049    377615.22947  20788542.4724   20788548.8394
       239.0004        203.0004
  21818816.6144    3035118.52149   2364735.46447  21818816.7274   21818821.9034
       235.0004        197.0004
 07  2 17 18 55 40.0000000  0 10G21G 2G30G 7G 5G 6G24G29G10G12
  23427935.4374   -3214801.97249  -2479137.92645  23427934.6684   23427941.4174
       218.0004        158.0004
  22886739.4954    3097681.46349   2388956.23546  22886738.8304   22886743.1564
       221.0004        170.0004
  20773807.9484     861337.11249    680096.25447  20773808.1224   20773813.7244
       242.0004        207.0004
  21895936.6404   -3245045.47149  -2180611.61746  21895936.0294   21895943.1524
       232.0004        187.0004
  21806752.7374    3093961.11849   2410308.99747  21806752.0004   21806758.9344
       236.0004        193.0004
  21237851.3934   -2739104.71649  -2118608.74647  21237851.2914   21237857.2344
       238.0004        200.0004
  20570203.3744    -301748.09249   -221457.92247  20570202.9654   20570209.7354
       244.0004        210.0004
  24273156.1864   -1681755.84649  -1286419.21245  24273156.4834   24273163.1544
       206.0004        134.0004
  20789510.5904     480428.31949    381575.78747  20789509.8124   20789516.0744
       239.0004        203.0004
  21821517.6044    3049312.20249   2375795.47947  21821517.4384   21821522.9564
       236.0004        197.0004
 07  2 17 18 55 45.0000000  0 10G21G 2G30G 7G 5G 6G24G29G10G12
  23425806.6574   -3225988.83549  -2487854.95245  23425805.5724   23425812.6494
       219.0004        159.0004
  22889265.2864    3110954.59949   2399298.93146  22889264.8224   22889269.7204
       220.0004        170.0004
  20775040.5584     867814.48549    685143.55347  20775040.5694   20775046.2744
       242.0004        207.0004
  21893819.6674   -3256170.24649  -2189280.26746  21893819.3444   21893826.0724
       232.0004        187.0004
  21809478.5914    3108285.54649   2421470.88947  21809477.8634   21809484.8364
       236.0004        193.0004
  21236152.5664   -2748032.06749  -2125565.12147  21236152.3084   21236158.3194
       237.0004        200.0004
  20570394.6224    -300743.05949   -220674.78147  20570394.4124   20570401.0114
       244.0004        210.0004
  24270702.4714   -1694650.28249  -1296466.82045  24270701.6634   24270709.2274
       207.0004        134.0004
  20790481.1004     485528.46149    385549.92447  20790480.3904   20790486.7404
       239.0004        203.0004
  21824220.5124    3063516.13549   2386863.47147  21824220.6964   21824226.2254
       236.0004        196.0004
 07  2 17 18 55 50.0000000  0 10G21G 2G30G 7G 5G 6G24G29G10G12
  23423678.6064   -3237171.70349  -2496568.85645  23423677.4064   23423684.6664
       218.0004        158.0004
  22891791.3064    3124229.00149   2409642.61946  22891791.1434   22891795.7494
       222.0004        170.0004
  20776276.0554     874307.03949    690202.68547  20776276.3434   20776281.9134
       242.0004        207.0004
  21891703.1924   -3267292.26649  -2197946.77947  21891702.5704   21891709.6484
       232.0004        188.0004
  21812206.1224    3122618.79849   2432639.64847  21812205.4044   21812212.0874
       237.0004        193.0004
  21234454.6624   -2756954.61249  -2132517.75147  21234454.3134   21234460.3204
       237.0004        200.0004
  20570587.2974    -299730.47949   -219885.75547  20570586.9694   20570593.5414
       244.0004        210.0004
  24268248.9724   -1707543.54849  -1306513.50845  24268248.3714   24268256.6524
       207.0004        134.0004
  20791454.7534     490645.04349    389536.87447  20791453.9364   20791460.3704
       239.0004        203.0004
  21826925.2154    3077729.38049   2397938.72347  21826925.2444   21826930.5654
       236.0004        196.0004
 07  2 17 18 55 55.0000000  0 10G21G 2G30G 7G 5G 6G24G29G10G12
  23421551.4204   -3248349.98049  -2505279.19945  23421550.4384   23421557.4624
       219.0004        158.0004
  22894317.6824    3137505.27749   2419987.76146  22894316.9244   22894322.2334
       222.0004        170.0004
  20777514.5424     880815.39149    695274.13147  20777514.5764   20777520.3834
       242.0004        207.0004
  21889587.3794   -3278410.94449  -2206610.67247  21889586.7844   21889593.7854
       232.0004        188.0004
  21814935.4364    3136961.43949   2443815.73447  21814934.4754   21814941.6884
       236.0004        192.0004
  21232757.7824   -2765871.74149  -2139466.15547  21232757.5784   21232763.4084
       237.0004        200.0004
  20570781.5354    -298709.79049   -219090.40847  20570781.1754   20570787.5304
       243.0004        210.0004
  24265795.8204   -1720435.01149  -1316558.79145  24265794.9904   24265803.8484
       207.0004        134.0004
  20792431.6574     495778.64049    393537.08647  20792430.8104   20792437.3634
       239.0004        203.0004
  21829631.7834    3091952.50749   2409021.67747  21829631.8304   21829637.2034
       235.0004        196.0004
 07  2 17 18 56  0.0000000  0 10G21G 2G30G 7G 5G 6G24G29G10G12
  23419425.0534   -3259523.99849  -2513986.20945  23419424.2204   23419430.8094
       218.0004        159.0004
  22896844.3834    3150783.13449   2430334.13246  22896843.4554   22896848.8674
       222.0004        170.0004
  20778755.9814     887339.21849    700357.62947  20778755.9874   20778761.7224
       242.0004        207.0004
  21887472.1474   -3289526.54549  -2215272.18047  21887471.4794   21887478.3084
       232.0004        188.0004
  21817666.4804    3151313.15949   2454998.88947  21817665.7944   21817672.7764
       235.0004        192.0004
  21231061.8844   -2774783.74449  -2146410.57147  21231061.6524   21231067.5104
       237.0004        200.0004
  20570977.2464    -297681.27549   -218288.97047  20570976.7894   20570983.3764
       244.0004        210.0004
  24263342.9694   -1733325.00649  -1326602.93245  24263340.9794   24263350.6054
       207.0004        134.0004
  20793411.7264     500928.97149    397550.33147  20793410.6514   20793417.2764
       239.0004        203.0004
  21832340.1694    3106185.17249   2420112.06247  21832340.1254   21832346.0004
       236.0004        196.0004
 07  2 17 18 56  5.0000000  0 10G21G 2G30G 7G 5G 6G24G29G10G12
  23417299.5034   -3270693.69649  -2522689.85045  23417298.6914   23417305.8284
       218.0004        159.0004
  22899371.3824    3164062.57549   2440681.74746  22899370.8554   22899375.5634
       222.0004        170.0004
  20780000.3664     893878.53549    705453.20347  20780000.5154   20780006.1674
       242.0004        207.0004
  21885357.4994   -3300639.03349  -2223931.25147  21885357.3724   21885363.6374
       231.0004        188.0004
  21820399.2504    3165673.98249   2466189.14047  21820398.7624   21820405.3104
       236.0004        192.0004
  21229366.9694   -2783690.58849  -2153350.96547  21229366.9254   21229372.7134
       237.0004        200.0004
  20571174.4484    -296644.92049   -217481.41547  20571173.9934   20571180.9154
       244.0004        210.0004
  24260890.4404   -1746213.45449  -1336645.86545  24260889.0364   24260898.2754
       207.0004        134.0004
  20794394.9854     506096.04649    401576.62847  20794394.1214   20794400.5034
       239.0004        203.0004
  21835050.3744    3120427.40749   2431209.90547  21835050.4294   21835055.5974
       236.0004        196.0004
 07  2 17 18 56 10.0000000  0 10G21G 2G30G 7G 5G 6G24G29G10G12
  23415174.8314   -3281858.85549  -2531389.97545  23415174.2424   23415181.2444
       217.0004        159.0004
  22901898.7444    3177343.86449   2451030.80046  22901898.8854   22901902.9214
       223.0004        170.0004
  20781247.7684     900433.58149    710561.02647  20781248.1014   20781253.6314
       242.0004        207.0004
  21883243.5024   -3311748.17149  -2232587.72447  21883243.0264   21883250.0544
       231.0004        188.0004
  21823133.7754    3180044.12849   2477386.64947  21823132.9294   21823140.0664
       236.0004        192.0004
  21227673.1074   -2792592.00949  -2160287.13647  21227672.9484   21227678.8474
       237.0004        200.0004
  20571373.2124    -295600.46449   -216667.55347  20571372.9354   20571379.3714
       244.0004        210.0004
  24258438.2294   -1759100.09749  -1346687.39345  24258437.6634   24258445.5094
       207.0004        135.0004
  20795381.4734     511280.10049    405616.15147  20795380.7084   20795386.8724
       239.0004        203.0004
  21837762.4584    3134679.43549   2442315.37647  21837762.5024   21837768.0964
       236.0004        196.0004
 07  2 17 18 56 15.0000000  0 10G21G 2G30G 7G 5G 6G24G29G10G12
  23413050.9494   -3293019.85349  -2540086.83945  23413049.7634   23413056.3024
       218.0004        159.0004
  22904426.4034    3190626.66149   2461381.02346  22904425.8964   22904430.4074
       221.0004        170.0004
  20782498.0784     907004.00649    715680.83747  20782498.1464   20782504.0634
       242.0004        207.0004
  21881130.0824   -3322854.33849  -2241241.87647  21881129.6994   21881137.0194
       233.0004        188.0004
  21825870.0394    3194423.26949   2488591.17447  21825869.3454   21825876.1094
       235.0004        192.0004
  21225980.1824   -2801488.35949  -2167219.35447  21225979.6904   21225985.9074
       238.0004        200.0004
  20571573.4314    -294548.27649   -215847.66547  20571573.1064   20571579.6234
       243.0004        210.0004
  24255986.3194   -1771985.26249  -1356727.77245  24255985.1514   24255992.9014
       206.0004        135.0004
  20796371.1404     516480.77549    409668.62847  20796370.2624   20796376.7014
       239.0004        203.0004
  21840476.3264    3148940.91649   2453428.21347  21840476.4934   21840481.9714
       235.0004        196.0004
 07  2 17 18 56 20.0000000  0 10G21G 2G30G 7G 5G 6G24G29G10G12
  23410927.9274   -3304176.25849  -2548780.12145  23410927.4724   23410932.5064
       218.0004        158.0004
  22906954.4314    3203911.33749   2471732.72246  22906954.0464   22906958.6804
       221.0004        170.0004
  20783751.4034     913590.19149    720812.93047  20783751.5484   20783757.1564
       242.0004        207.0004
  21879017.2754   -3333957.10149  -2249893.37847  21879017.0324   21879023.5454
       232.0004        188.0004
  21828608.0724    3208811.77949   2499802.99447  21828607.4404   21828614.3804
       236.0004        192.0004
  21224288.2924   -2810379.26049  -2174147.32447  21224287.9914   21224293.9754
       238.0004        200.0004
  20571775.2164    -293487.96149   -215021.44347  20571774.7774   20571781.4414
       244.0004        210.0004
  24253534.7204   -1784868.60149  -1366766.72845  24253533.6884   24253542.0864
       208.0004        134.0004
  20797364.0454     521698.44949    413734.35347  20797363.1454   20797369.5154
       239.0004        203.0004
  21843192.0744    3163212.30149   2464548.77147  21843192.1334   21843197.6444
       236.0004        196.0004
 07  2 17 18 56 25.0000000  0 10G21G 2G30G 7G 5G 6G24G29G10G12
  23408805.6684   -3315328.74149  -2557470.35945  23408803.7124   23408811.6034
       219.0004        158.0004
  22909482.6564    3217197.24749   2482085.37646  22909482.4354   22909486.5784
       223.0004        170.0004
  20785007.5794     920191.47749    725956.78847  20785007.4094   20785013.2104
       242.0004        207.0004
  21876905.0324   -3345057.06749  -2258542.69747  21876904.7844   21876910.9234
       233.0004        188.0004
  21831347.7734    3223208.92249   2511021.54547  21831347.3334   21831353.9794
       236.0004        192.0004
  21222597.3374   -2819265.29649  -2181071.50447  21222596.9224   21222602.7304
       237.0004        200.0004
  20571978.3944    -292420.18749   -214189.41047  20571978.0664   20571984.6064
       243.0004        210.0004
  24251083.3644   -1797750.66149  -1376804.68745  24251082.2254   24251090.7654
       205.0004        134.0004
  20798360.0554     526932.48349    417812.82447  20798359.2064   20798365.6604
       239.0004        203.0004
  21845909.5824    3177492.80249   2475676.43047  21845909.6314   21845915.1004
       235.0004        196.0004
 07  2 17 18 56 30.0000000  0 10G21G 2G30G 7G 5G 6G24G29G10G12
  23406684.2924   -3326476.63349  -2566157.01045  23406684.2104   23406691.1664
       218.0004        158.0004
  22912011.2624    3230485.01349   2492439.47346  22912011.5144   22912014.7434
       222.0004        170.0004
  20786266.7574     926808.50549    731112.91547  20786266.7774   20786272.6114
       242.0004        207.0004
  21874793.4144   -3356153.63749  -2267189.37247  21874792.7764   21874799.7294
       232.0004        188.0004
  21834089.2234    3237615.40749   2522247.37347  21834088.4254   21834095.2414
       237.0004        192.0004
  21220907.4154   -2828145.92549  -2187991.46947  21220907.1724   21220913.1734
       237.0004        200.0004
  20572183.1194    -291344.31049   -213351.05947  20572182.6744   20572189.4744
       243.0004        210.0004
  24248632.3534   -1810630.83449  -1386841.17645  24248631.8714   24248640.3314
       206.0004        134.0004
  20799359.2874     532183.49449    421904.52447  20799358.3844   20799364.6324
       239.0004        203.0004
  21848628.9274    3191783.05449   2486811.69047  21848629.1394   21848634.3964
       236.0004        196.0004
 07  2 17 18 56 35.0000000  0 10G21G 2G30G 7G 5G 6G24G29G10G12
  23404563.7754   -3337619.87249  -2574840.04445  23404562.5194   23404569.4054
       220.0004        158.0004
  22914540.2134    3243774.72049   2502795.07546  22914540.1144   22914543.3754
       221.0004        170.0004
  20787528.9564     933441.39049    736281.39047  20787529.1734   20787534.8354
       242.0004        207.0004
  21872682.4974   -3367246.64249  -2275833.27547  21872682.0874   21872689.0184
       233.0004        188.0004
  21836832.4754    3252031.28049   2533480.51747  21836831.6764   21836838.7924
       235.0004        192.0004
  21219218.5684   -2837020.96449  -2194907.08547  21219218.2014   21219224.2414
       237.0004        200.0004
  20572389.4184    -290260.23249   -212506.32547  20572389.1714   20572395.5124
       243.0004        210.0004
  24246181.7104   -1823508.97349  -1396876.08045  24246181.2184   24246190.1704
       205.0004        135.0004
  20800361.7764     537451.58649    426009.53247  20800361.0404   20800367.2084
       239.0004        203.0004
  21851350.1504    3206083.20649   2497954.65847  21851350.5954   21851355.5264
       236.0004        196.0004
 07  2 17 18 56 40.0000000  0 10G21G 2G30G 7G 5G 6G24G29G10G12
  23402444.0854   -3348758.92549  -2583519.82045  23402443.2264   23402449.6744
       219.0004        158.0004
  22917069.4464    3257065.81849   2513151.78046  22917068.8634   22917073.8244
       222.0004        170.0004
  20788794.0744     940089.54149    741461.76947  20788794.2074   20788799.8904
       242.0004        207.0004
  21870572.1274   -3378336.71949  -2284474.88647  21870571.8184   21870578.5064
       233.0004        188.0004
  21839577.4044    3266456.03549   2544720.58247  21839576.7264   21839583.8894
       236.0004        192.0004
  21217530.6514   -2845890.91849  -2201818.73447  21217530.2794   21217536.7014
       238.0004        200.0004
  20572597.1634    -289168.47449   -211655.60247  20572597.0474   20572603.4114
       244.0004        210.0004
  24243731.3234   -1836385.66549  -1406909.85745  24243730.2054   24243739.9444
       206.0004        135.0004
  20801367.4084     542736.20849    430127.42247  20801366.3344   20801373.1054
       239.0004        203.0004
  21854073.1594    3220392.68849   2509104.89747  21854073.2804   21854078.5744
       236.0004        196.0004
 07  2 17 18 56 45.0000000  0 10G21G 2G30G 7G 5G 6G24G29G10G12
  23400325.1764   -3359893.76849  -2592196.29945  23400323.9634   23400331.4064
       220.0004        158.0004
  22919598.9284    3270358.38949   2523509.61646  22919598.9324   22919603.2494
       222.0004        170.0004
  20790062.1104     946753.07349    746654.13247  20790062.3294   20790067.9374
       242.0004        207.0004
  21868462.3614   -3389423.66349  -2293114.05747  21868461.8794   21868468.5834
       233.0004        188.0004
  21842324.0664    3280889.70549   2555967.59547  21842323.3944   21842330.4844
       236.0004        192.0004
  21215843.7314   -2854755.73849  -2208726.38247  21215843.5574   21215849.5024
       237.0004        200.0004
  20572806.4224    -288068.94949   -210798.82547  20572806.1234   20572812.7384
       244.0004        210.0004
  24241281.2904   -1849260.72449  -1416942.35945  24241281.5604   24241289.3134
       205.0004        135.0004
  20802376.2184     548037.43749    434258.25547  20802375.3154   20802381.6954
       239.0004        203.0004
  21856797.9844    3234711.57249   2520262.47447  21856798.1534   21856803.4234
       236.0004        196.0004
 07  2 17 18 56 50.0000000  0 10G21G 2G30G 7G 5G 6G24G29G10G12
  23398207.1354   -3371024.09949  -2600869.26745  23398205.9594   23398213.1624
       220.0004        158.0004
  22922128.7744    3283652.72149   2533868.83846  22922128.4314   22922133.0054
       221.0004        170.0004
  20791333.0974     953432.25249    751858.68647  20791333.2104   20791338.9064
       242.0004        207.0004
  21866353.2424   -3400507.20149  -2301750.57847  21866352.8094   21866359.4254
       232.0004        188.0004
  21845072.4454    3295332.58749   2567221.78747  21845071.9814   21845078.2364
       236.0004        192.0004
  21214157.8724   -2863615.09849  -2215629.77947  21214157.6144   21214163.6504
       238.0004        200.0004
  20573017.1594    -286961.43849   -209935.82847  20573016.9974   20573023.3924
       244.0004        210.0004
  24238831.6044   -1862133.91949  -1426973.41345  24238831.1164   24238839.7544
       206.0004        134.0004
  20803388.2174     553355.55449    438402.24247  20803387.3254   20803393.7904
       239.0004        203.0004
  21859524.6224    3249040.13449   2531427.58147  21859524.6464   21859530.1664
       235.0004        196.0004
 07  2 17 18 56 55.0000000  0 10G21G 2G30G 7G 5G 6G24G29G10G12
  23396089.8994   -3382150.21749  -2609538.95945  23396089.3944   23396096.1734
       221.0004        159.0004
  22924658.9014    3296948.59449   2544229.25046  22924658.5894   22924662.4884
       221.0004        169.0004
  20792607.0434     960126.84649    757075.25447  20792607.3274   20792612.8184
       242.0004        207.0004
  21864244.6924   -3411587.63049  -2310384.67047  21864243.7394   21864251.2134
       233.0004        188.0004
  21847822.5494    3309784.45949   2578482.98447  21847821.8584   21847828.6964
       236.0004        192.0004
  21212472.9664   -2872469.23149  -2222529.09847  21212472.4514   21212478.9294
       237.0004        200.0004
  20573229.4104    -285846.14449   -209066.76747  20573229.0704   20573235.6554
       244.0004        210.0004
  24236382.2224   -1875005.39549  -1437003.11245  24236381.4224   24236391.0974
       204.0004        134.0004
  20804403.3714     558690.32749    442559.21247  20804402.4824   20804409.1174
       239.0004        203.0004
  21862253.0724    3263378.12249   2542600.03847  21862252.9374   21862258.5964
       236.0004        196.0004
 07  2 17 18 57  0.0000000  0 10G21G 2G30G 7G 5G 6G24G29G10G12
  23393973.4664   -3393272.19849  -2618205.43645  23393971.9304   23393979.3604
       219.0004        159.0004
  22927189.3084    3310245.93049   2554590.81346  22927188.2984   22927193.4634
       222.0004        169.0004
  20793883.9034     966836.78549    762303.77947  20793884.1744   20793889.7634
       242.0004        207.0004
  21862136.7734   -3422664.92949  -2319016.33147  21862136.2584   21862142.7054
       233.0004        188.0004
  21850574.3664    3324245.21949   2589751.10647  21850574.0424   21850580.7514
       236.0004        192.0004
  21210789.0844   -2881318.22249  -2229424.41147  21210788.7274   21210795.0524
       238.0004        200.0004
  20573443.0994    -284723.13349   -208191.69147  20573442.7624   20573449.2974
       244.0004        210.0004
  24233933.1464   -1887875.26649  -1447031.56845  24233932.1784   24233941.0884
       206.0004        134.0004
  20805421.7234     564041.69149    446729.11247  20805420.7874   20805427.4014
       239.0004        203.0004
  21864983.2774    3277725.48649   2553779.79847  21864983.0874   21864989.0424
       235.0004        196.0004
 07  2 17 18 57  5.0000000  0 10G21G 2G30G 7G 5G 6G24G29G10G12
  23391857.9584   -3404389.23249  -2626868.05045  23391857.1944   23391863.3734
       219.0004        158.0004
  22929720.1324    3323545.36449   2564953.99746  22929720.2254   22929724.1194
       222.0004        169.0004
  20795163.8324     973562.76049    767544.79547  20795163.9884   20795169.4924
       241.0004        207.0004
  21860029.5444   -3433738.44349  -2327645.04247  21860029.0174   21860036.0634
       232.0004        188.0004
  21853327.9884    3338715.55849   2601026.69047  21853327.4264   21853334.1544
       235.0004        191.0004
  21209106.2814   -2890161.28349  -2236315.10947  21209105.9614   21209112.2404
       238.0004        200.0004
  20573658.4344    -283591.68749   -207310.04347  20573658.1334   20573664.7174
       244.0004        210.0004
  24231484.5314   -1900742.78049  -1457058.19245  24231483.8334   24231491.7614
       206.0004        134.0004
  20806443.3244     569410.34149    450912.47447  20806442.6294   20806448.6514
       239.0004        203.0004
  21867715.4064    3292082.89849   2564967.38547  21867715.6064   21867720.7144
       235.0004        196.0004
 07  2 17 18 57 10.0000000  0 10G21G 2G30G 7G 5G 6G24G29G10G12
  23389743.1894   -3415502.39549  -2635527.64645  23389742.4584   23389749.4574
       221.0004        158.0004
  22932251.1394    3336845.85749   2575318.00846  22932250.8334   22932255.5014
       222.0004        169.0004
  20796446.5774     980303.64749    772797.43647  20796446.7404   20796452.4314
       241.0004        207.0004
  21857922.8424   -3444809.24949  -2336271.63847  21857922.0154   21857929.0264
       233.0004        188.0004
  21856083.2074    3353194.34249   2612308.85947  21856082.5194   21856089.4804
       235.0004        191.0004
  21207424.4114   -2898999.61849  -2243202.11847  21207424.3064   21207430.2344
       237.0004        200.0004
  20573875.1184    -282452.95249   -206422.71347  20573875.0034   20573881.4684
       244.0004        210.0004
  24229036.1524   -1913609.06649  -1467083.85445  24229035.9074   24229043.7734
       205.0004        135.0004
  20807468.0224     574795.13849    455108.42747  20807467.2904   20807473.4994
       239.0004        203.0004
  21870449.2324    3306449.21049   2576161.91247  21870449.5334   21870454.7664
       235.0004        196.0004
 07  2 17 18 57 15.0000000  0 10G21G 2G30G 7G 5G 6G24G29G10G12
  23387629.3214   -3426610.78349  -2644183.51445  23387628.1124   23387634.4624
       219.0004        158.0004
  22934782.5494    3350148.31649   2585683.56246  22934782.1014   22934785.3624
       221.0004        169.0004
  20797732.3314     987060.37849    778062.42147  20797732.5194   20797738.1874
       242.0004        207.0004
  21855816.8294   -3455876.41449  -2344895.40047  21855816.2434   21855823.4894
       232.0004        188.0004
  21858840.2214    3367682.49949   2623598.32747  21858839.5904   21858846.0624
       236.0004        191.0004
  21205743.6124   -2907832.27649  -2250084.70647  21205743.2494   21205749.6934
       237.0004        200.0004
  20574093.4014    -281306.01349   -205528.99547  20574093.0424   20574099.6134
       244.0004        210.0004
  24226588.1594   -1926473.17349  -1477107.81945  24226588.1324   24226596.5184
       206.0004        135.0004
  20808495.9724     580197.01349    459317.68247  20808495.0994   20808501.5734
       239.0004        203.0004
  21873184.9054    3320825.38649   2587364.12447  21873184.7494   21873190.2254
       235.0004        196.0004
 07  2 17 18 57 20.0000000  0 10G21G 2G30G 7G 5G 6G24G29G10G12
  23385516.2574   -3437714.88949  -2652836.04845  23385515.5944   23385521.5434
       219.0004        158.0004
  22937314.2164    3363452.30449   2596050.29546  22937314.0884   22937317.7744
       221.0004        168.0004
  20799021.0174     993832.46949    783339.37447  20799021.0874   20799026.9524
       242.0004        207.0004
  21853711.4444   -3466940.37949  -2353516.66747  21853710.8314   21853717.9764
       232.0004        188.0004
  21861598.9174    3382179.53349   2634894.71647  21861598.3704   21861605.2064
       236.0004        191.0004
  21204063.8024   -2916659.69049  -2256963.20447  21204063.5124   21204069.2444
       237.0004        200.0004
  20574313.1254    -280151.33949   -204629.24747  20574313.1194   20574319.4564
       244.0004        210.0004
  24224140.5064   -1939335.53049  -1487130.42745  24224139.9374   24224149.2394
       203.0004        136.0004
  20809527.0604     585615.52149    463539.90247  20809526.0854   20809532.7504
       239.0004        203.0004
  21875922.4144    3335210.93849   2598573.64347  21875922.2444   21875928.0014
       235.0004        195.0004
 07  2 17 18 57 25.0000000  0 10G21G 2G30G 7G 5G 6G24G29G10G12
  23383403.9794   -3448814.80249  -2661485.31545  23383403.8864   23383409.9984
       221.0004        158.0004
  22939846.1634    3376757.70249   2606418.13946  22939846.7654   22939850.3774
       221.0004        168.0004
  20800312.6034    1000619.81449    788628.20847  20800312.7434   20800318.3804
       242.0004        207.0004
  21851606.6244   -3478001.26149  -2362135.53047  21851605.9884   21851613.0774
       233.0004        188.0004
  21864359.3104    3396685.37349   2646197.96147  21864358.5904   21864365.8064
       235.0004        191.0004
  21202384.9934   -2925481.91049  -2263837.66247  21202384.7054   21202390.9804
       237.0004        200.0004
  20574534.3184    -278988.99349   -203723.52347  20574534.2464   20574540.7524
       244.0004        210.0004
  24221693.1824   -1952196.19949  -1497151.71545  24221691.8924   24221701.0814
       204.0004        136.0004
  20810561.3314     591050.54849    467774.98547  20810560.5794   20810566.9894
       239.0004        203.0004
  21878661.6554    3349605.81049   2609790.41847  21878661.6584   21878667.1254
       235.0004        195.0004
 07  2 17 18 57 30.0000000  0 10G21G 2G30G 7G 5G 6G24G29G10G12
  23381292.5934   -3459910.20349  -2670131.06445  23381292.6584   23381297.8204
       220.0004        158.0004
  22942378.4544    3390064.89349   2616787.37446  22942377.9424   22942382.1014
       222.0004        168.0004
  20801607.1604    1007422.81149    793929.24747  20801607.2474   20801612.9064
       241.0004        207.0004
  21849502.4674   -3489058.67149  -2370751.69247  21849501.6854   21849508.8164
       233.0004        188.0004
  21867121.4224    3411200.37349   2657508.35247  21867120.5174   21867127.4924
       235.0004        191.0004
  21200707.1944   -2934298.62349  -2270707.82547  21200706.9464   21200712.8164
       238.0004        200.0004
  20574757.0414    -277818.63149   -202811.54747  20574756.8724   20574763.2724
       244.0004        210.0004
  24219246.1984   -1965054.86849  -1507171.44245  24219244.8964   24219254.2254
       204.0004        135.0004
  20811598.7934     596502.43049    472023.21247  20811597.8914   20811604.2284
       239.0004        203.0004
  21881402.7344    3364010.31949   2621014.71147  21881402.6004   21881408.1514
       235.0004        195.0004
 07  2 17 18 57 35.0000000  0 10G21G 2G30G 7G 5G 6G24G29G10G12
  23379182.0014   -3471001.38649  -2678773.53145  23379181.6694   23379187.6684
       219.0004        159.0004
  22944911.0074    3403373.52949   2627157.73246  22944911.0994   22944914.8644
       221.0004        168.0004
  20802904.6354    1014241.09949    799242.19947  20802904.7194   20802910.5164
       242.0004        207.0004
  21847398.9244   -3500112.87149  -2379365.34847  21847398.7314   21847405.3544
       232.0004        188.0004
  21869885.1984    3425724.15149   2668825.58047  21869884.7844   21869891.7584
       234.0004        191.0004
  21199030.4314   -2943110.11249  -2277573.91347  21199030.2374   21199036.2894
       237.0004        200.0004
  20574981.2194    -276640.59049   -201893.59147  20574980.9974   20574987.3524
       244.0004        210.0004
  24216799.5594   -1977911.79749  -1517189.81645  24216798.3194   24216808.0284
       203.0004        135.0004
  20812639.4024     601970.84649    476284.31947  20812638.3204   20812644.5344
       239.0004        203.0004
  21884145.5894    3378424.11449   2632246.23947  21884145.7014   21884151.0904
       234.0004        195.0004
 07  2 17 18 57 40.0000000  0 10G21G 2G30G 7G 5G 6G24G29G10G12
  23377072.2874   -3482088.12849  -2687412.54545  23377071.7304   23377077.8134
       219.0004        159.0004
  22947443.8844    3416683.86249   2637529.41046  22947443.5954   22947447.7584
       221.0004        168.0004
  20804205.0954    1021074.92349    804567.25547  20804205.2784   20804210.8294
       242.0004        207.0004
  21845296.0174   -3511163.68649  -2387976.37347  21845295.3574   21845302.2964
       232.0004        188.0004
  21872650.7124    3440256.98449   2680149.85447  21872649.8904   21872656.8014
       235.0004        191.0004
  21197354.6854   -2951916.11449  -2284435.73847  21197354.1874   21197360.3364
       238.0004        200.0004
  20575206.9264    -275454.59949   -200969.44247  20575206.6514   20575212.9604
       244.0004        210.0004
  24214353.3304   -1990766.68749  -1527206.59445  24214352.0134   24214362.1884
       205.0004        135.0004
  20813683.2084     607456.09149    480558.53747  20813682.3184   20813688.6254
       239.0004        203.0004
  21886890.2404    3392847.47649   2643485.21247  21886890.2414   21886895.8264
       235.0004        195.0004
